<?xml version="1.0" encoding="UTF-8" standalone="no" ?>
<gpx xmlns="http://www.topografix.com/GPX/1/1" xmlns:xsi="http://www.w3.org/2001/XMLSchema-instance" xsi:schemaLocation="http://www.topografix.com/GPX/1/1 http://www.topografix.com/GPX/1/1/gpx.xsd" version="1.1" creator="VisuGPX - https://www.visugpx.com">
  <metadata>
    <name>Dimanche 6 septembre 26</name>
  </metadata>
  <trk>
    <name><![CDATA[Dimanche 6 septembre 26]]></name>
    <extensions>
      <line xmlns="http://www.topografix.com/GPX/gpx_style/0/2">
        <width>7</width>
      </line>
    </extensions>
    <trkseg>
      <trkpt lat="43.38308" lon="-1.65901">
        <ele>5</ele>
        <time>2026-08-23T12:24:44.000Z</time>
      </trkpt>
      <trkpt lat="43.38309" lon="-1.65902">
        <ele>5</ele>
        <time>2026-08-23T12:24:44.000Z</time>
      </trkpt>
      <trkpt lat="43.38324" lon="-1.65923">
        <ele>6</ele>
        <time>2026-08-23T12:24:48.000Z</time>
      </trkpt>
      <trkpt lat="43.3833" lon="-1.65928">
        <ele>6</ele>
        <time>2026-08-23T12:24:49.000Z</time>
      </trkpt>
      <trkpt lat="43.38332" lon="-1.65925">
        <ele>6</ele>
        <time>2026-08-23T12:24:50.000Z</time>
      </trkpt>
      <trkpt lat="43.38337" lon="-1.65923">
        <ele>6</ele>
        <time>2026-08-23T12:24:51.000Z</time>
      </trkpt>
      <trkpt lat="43.38342" lon="-1.65926">
        <ele>6</ele>
        <time>2026-08-23T12:24:52.000Z</time>
      </trkpt>
      <trkpt lat="43.38344" lon="-1.65934">
        <ele>6</ele>
        <time>2026-08-23T12:24:53.000Z</time>
      </trkpt>
      <trkpt lat="43.38342" lon="-1.65941">
        <ele>6</ele>
        <time>2026-08-23T12:24:54.000Z</time>
      </trkpt>
      <trkpt lat="43.3834" lon="-1.65943">
        <ele>6</ele>
        <time>2026-08-23T12:24:54.000Z</time>
      </trkpt>
      <trkpt lat="43.38347" lon="-1.65961">
        <ele>6</ele>
        <time>2026-08-23T12:24:57.000Z</time>
      </trkpt>
      <trkpt lat="43.38362" lon="-1.65982">
        <ele>5</ele>
        <time>2026-08-23T12:25:01.000Z</time>
      </trkpt>
      <trkpt lat="43.3843" lon="-1.66074">
        <ele>5</ele>
        <time>2026-08-23T12:25:18.000Z</time>
      </trkpt>
      <trkpt lat="43.38445" lon="-1.66095">
        <ele>5</ele>
        <time>2026-08-23T12:25:21.000Z</time>
      </trkpt>
      <trkpt lat="43.38462" lon="-1.66121">
        <ele>5</ele>
        <time>2026-08-23T12:25:26.000Z</time>
      </trkpt>
      <trkpt lat="43.38479" lon="-1.66155">
        <ele>5</ele>
        <time>2026-08-23T12:25:31.000Z</time>
      </trkpt>
      <trkpt lat="43.38481" lon="-1.66153">
        <ele>5</ele>
        <time>2026-08-23T12:25:32.000Z</time>
      </trkpt>
      <trkpt lat="43.38488" lon="-1.66153">
        <ele>5</ele>
        <time>2026-08-23T12:25:33.000Z</time>
      </trkpt>
      <trkpt lat="43.38492" lon="-1.66157">
        <ele>5</ele>
        <time>2026-08-23T12:25:34.000Z</time>
      </trkpt>
      <trkpt lat="43.38493" lon="-1.66163">
        <ele>5</ele>
        <time>2026-08-23T12:25:35.000Z</time>
      </trkpt>
      <trkpt lat="43.38491" lon="-1.6617">
        <ele>5</ele>
        <time>2026-08-23T12:25:36.000Z</time>
      </trkpt>
      <trkpt lat="43.38487" lon="-1.66173">
        <ele>5</ele>
        <time>2026-08-23T12:25:36.000Z</time>
      </trkpt>
      <trkpt lat="43.38488" lon="-1.66178">
        <ele>5</ele>
        <time>2026-08-23T12:25:37.000Z</time>
      </trkpt>
      <trkpt lat="43.38488" lon="-1.66178">
        <ele>5</ele>
        <time>2026-08-23T12:25:37.000Z</time>
      </trkpt>
      <trkpt lat="43.38496" lon="-1.66199">
        <ele>5</ele>
        <time>2026-08-23T12:25:40.000Z</time>
      </trkpt>
      <trkpt lat="43.38503" lon="-1.66208">
        <ele>4</ele>
        <time>2026-08-23T12:25:42.000Z</time>
      </trkpt>
      <trkpt lat="43.3858" lon="-1.66279">
        <ele>2</ele>
        <time>2026-08-23T12:25:58.000Z</time>
      </trkpt>
      <trkpt lat="43.38593" lon="-1.66289">
        <ele>1</ele>
        <time>2026-08-23T12:26:01.000Z</time>
      </trkpt>
      <trkpt lat="43.38604" lon="-1.66296">
        <ele>1</ele>
        <time>2026-08-23T12:26:03.000Z</time>
      </trkpt>
      <trkpt lat="43.38612" lon="-1.66299">
        <ele>1</ele>
        <time>2026-08-23T12:26:05.000Z</time>
      </trkpt>
      <trkpt lat="43.3862" lon="-1.66259">
        <ele>3</ele>
        <time>2026-08-23T12:26:10.000Z</time>
      </trkpt>
      <trkpt lat="43.38621" lon="-1.66244">
        <ele>4</ele>
        <time>2026-08-23T12:26:12.000Z</time>
      </trkpt>
      <trkpt lat="43.38616" lon="-1.66228">
        <ele>4</ele>
        <time>2026-08-23T12:26:14.000Z</time>
      </trkpt>
      <trkpt lat="43.38606" lon="-1.66207">
        <ele>4</ele>
        <time>2026-08-23T12:26:17.000Z</time>
      </trkpt>
      <trkpt lat="43.38603" lon="-1.66203">
        <ele>4</ele>
        <time>2026-08-23T12:26:18.000Z</time>
      </trkpt>
      <trkpt lat="43.38597" lon="-1.66206">
        <ele>4</ele>
        <time>2026-08-23T12:26:19.000Z</time>
      </trkpt>
      <trkpt lat="43.38591" lon="-1.66204">
        <ele>4</ele>
        <time>2026-08-23T12:26:20.000Z</time>
      </trkpt>
      <trkpt lat="43.38579" lon="-1.66218">
        <ele>3</ele>
        <time>2026-08-23T12:26:23.000Z</time>
      </trkpt>
      <trkpt lat="43.38558" lon="-1.6625">
        <ele>3</ele>
        <time>2026-08-23T12:26:29.000Z</time>
      </trkpt>
      <trkpt lat="43.38548" lon="-1.66274">
        <ele>3</ele>
        <time>2026-08-23T12:26:32.000Z</time>
      </trkpt>
      <trkpt lat="43.38543" lon="-1.66285">
        <ele>2</ele>
        <time>2026-08-23T12:26:34.000Z</time>
      </trkpt>
      <trkpt lat="43.38517" lon="-1.66346">
        <ele>2</ele>
        <time>2026-08-23T12:26:43.000Z</time>
      </trkpt>
      <trkpt lat="43.38512" lon="-1.66357">
        <ele>3</ele>
        <time>2026-08-23T12:26:45.000Z</time>
      </trkpt>
      <trkpt lat="43.38489" lon="-1.66425">
        <ele>5</ele>
        <time>2026-08-23T12:26:55.000Z</time>
      </trkpt>
      <trkpt lat="43.38484" lon="-1.6644">
        <ele>6</ele>
        <time>2026-08-23T12:26:57.000Z</time>
      </trkpt>
      <trkpt lat="43.38442" lon="-1.66534">
        <ele>5</ele>
        <time>2026-08-23T12:27:11.000Z</time>
      </trkpt>
      <trkpt lat="43.38437" lon="-1.66547">
        <ele>5</ele>
        <time>2026-08-23T12:27:13.000Z</time>
      </trkpt>
      <trkpt lat="43.38433" lon="-1.66561">
        <ele>4</ele>
        <time>2026-08-23T12:27:15.000Z</time>
      </trkpt>
      <trkpt lat="43.38434" lon="-1.66573">
        <ele>4</ele>
        <time>2026-08-23T12:27:16.000Z</time>
      </trkpt>
      <trkpt lat="43.38436" lon="-1.66585">
        <ele>4</ele>
        <time>2026-08-23T12:27:18.000Z</time>
      </trkpt>
      <trkpt lat="43.3845" lon="-1.66622">
        <ele>4</ele>
        <time>2026-08-23T12:27:23.000Z</time>
      </trkpt>
      <trkpt lat="43.38456" lon="-1.66621">
        <ele>4</ele>
        <time>2026-08-23T12:27:24.000Z</time>
      </trkpt>
      <trkpt lat="43.38462" lon="-1.66624">
        <ele>4</ele>
        <time>2026-08-23T12:27:26.000Z</time>
      </trkpt>
      <trkpt lat="43.38463" lon="-1.66637">
        <ele>4</ele>
        <time>2026-08-23T12:27:27.000Z</time>
      </trkpt>
      <trkpt lat="43.3846" lon="-1.66647">
        <ele>4</ele>
        <time>2026-08-23T12:27:29.000Z</time>
      </trkpt>
      <trkpt lat="43.3847" lon="-1.66674">
        <ele>5</ele>
        <time>2026-08-23T12:27:33.000Z</time>
      </trkpt>
      <trkpt lat="43.38482" lon="-1.66695">
        <ele>5</ele>
        <time>2026-08-23T12:27:36.000Z</time>
      </trkpt>
      <trkpt lat="43.38487" lon="-1.667">
        <ele>5</ele>
        <time>2026-08-23T12:27:37.000Z</time>
      </trkpt>
      <trkpt lat="43.38491" lon="-1.66705">
        <ele>5</ele>
        <time>2026-08-23T12:27:38.000Z</time>
      </trkpt>
      <trkpt lat="43.38523" lon="-1.66729">
        <ele>5</ele>
        <time>2026-08-23T12:27:45.000Z</time>
      </trkpt>
      <trkpt lat="43.38537" lon="-1.66739">
        <ele>5</ele>
        <time>2026-08-23T12:27:47.000Z</time>
      </trkpt>
      <trkpt lat="43.38558" lon="-1.66752">
        <ele>5</ele>
        <time>2026-08-23T12:27:52.000Z</time>
      </trkpt>
      <trkpt lat="43.38585" lon="-1.66778">
        <ele>6</ele>
        <time>2026-08-23T12:27:57.000Z</time>
      </trkpt>
      <trkpt lat="43.38588" lon="-1.66782">
        <ele>6</ele>
        <time>2026-08-23T12:27:58.000Z</time>
      </trkpt>
      <trkpt lat="43.38596" lon="-1.6679">
        <ele>7</ele>
        <time>2026-08-23T12:28:00.000Z</time>
      </trkpt>
      <trkpt lat="43.38616" lon="-1.66815">
        <ele>7</ele>
        <time>2026-08-23T12:28:05.000Z</time>
      </trkpt>
      <trkpt lat="43.3863" lon="-1.66831">
        <ele>7</ele>
        <time>2026-08-23T12:28:08.000Z</time>
      </trkpt>
      <trkpt lat="43.38655" lon="-1.66866">
        <ele>7</ele>
        <time>2026-08-23T12:28:14.000Z</time>
      </trkpt>
      <trkpt lat="43.38673" lon="-1.6689">
        <ele>7</ele>
        <time>2026-08-23T12:28:19.000Z</time>
      </trkpt>
      <trkpt lat="43.38703" lon="-1.66927">
        <ele>7</ele>
        <time>2026-08-23T12:28:26.000Z</time>
      </trkpt>
      <trkpt lat="43.38728" lon="-1.66957">
        <ele>7</ele>
        <time>2026-08-23T12:28:32.000Z</time>
      </trkpt>
      <trkpt lat="43.38731" lon="-1.66954">
        <ele>6</ele>
        <time>2026-08-23T12:28:32.000Z</time>
      </trkpt>
      <trkpt lat="43.38746" lon="-1.66986">
        <ele>6</ele>
        <time>2026-08-23T12:28:37.000Z</time>
      </trkpt>
      <trkpt lat="43.38769" lon="-1.6704">
        <ele>8</ele>
        <time>2026-08-23T12:28:45.000Z</time>
      </trkpt>
      <trkpt lat="43.38772" lon="-1.67047">
        <ele>8</ele>
        <time>2026-08-23T12:28:47.000Z</time>
      </trkpt>
      <trkpt lat="43.38813" lon="-1.67107">
        <ele>7</ele>
        <time>2026-08-23T12:28:57.000Z</time>
      </trkpt>
      <trkpt lat="43.38835" lon="-1.67165">
        <ele>9</ele>
        <time>2026-08-23T12:29:06.000Z</time>
      </trkpt>
      <trkpt lat="43.38838" lon="-1.67172">
        <ele>9</ele>
        <time>2026-08-23T12:29:07.000Z</time>
      </trkpt>
      <trkpt lat="43.38852" lon="-1.67213">
        <ele>9</ele>
        <time>2026-08-23T12:29:13.000Z</time>
      </trkpt>
      <trkpt lat="43.38856" lon="-1.67237">
        <ele>10</ele>
        <time>2026-08-23T12:29:16.000Z</time>
      </trkpt>
      <trkpt lat="43.38855" lon="-1.6725">
        <ele>10</ele>
        <time>2026-08-23T12:29:17.000Z</time>
      </trkpt>
      <trkpt lat="43.38853" lon="-1.67262">
        <ele>10</ele>
        <time>2026-08-23T12:29:19.000Z</time>
      </trkpt>
      <trkpt lat="43.38849" lon="-1.67275">
        <ele>11</ele>
        <time>2026-08-23T12:29:21.000Z</time>
      </trkpt>
      <trkpt lat="43.3883" lon="-1.6731">
        <ele>14</ele>
        <time>2026-08-23T12:29:26.000Z</time>
      </trkpt>
      <trkpt lat="43.38822" lon="-1.67328">
        <ele>16</ele>
        <time>2026-08-23T12:29:29.000Z</time>
      </trkpt>
      <trkpt lat="43.38817" lon="-1.67353">
        <ele>17</ele>
        <time>2026-08-23T12:29:33.000Z</time>
      </trkpt>
      <trkpt lat="43.38813" lon="-1.67535">
        <ele>15</ele>
        <time>2026-08-23T12:29:56.000Z</time>
      </trkpt>
      <trkpt lat="43.38812" lon="-1.67583">
        <ele>15</ele>
        <time>2026-08-23T12:30:02.000Z</time>
      </trkpt>
      <trkpt lat="43.38811" lon="-1.67595">
        <ele>14</ele>
        <time>2026-08-23T12:30:04.000Z</time>
      </trkpt>
      <trkpt lat="43.3881" lon="-1.67716">
        <ele>14</ele>
        <time>2026-08-23T12:30:20.000Z</time>
      </trkpt>
      <trkpt lat="43.3881" lon="-1.67749">
        <ele>15</ele>
        <time>2026-08-23T12:30:24.000Z</time>
      </trkpt>
      <trkpt lat="43.38813" lon="-1.67788">
        <ele>16</ele>
        <time>2026-08-23T12:30:29.000Z</time>
      </trkpt>
      <trkpt lat="43.38826" lon="-1.67838">
        <ele>14</ele>
        <time>2026-08-23T12:30:36.000Z</time>
      </trkpt>
      <trkpt lat="43.38841" lon="-1.67882">
        <ele>10</ele>
        <time>2026-08-23T12:30:42.000Z</time>
      </trkpt>
      <trkpt lat="43.38845" lon="-1.67898">
        <ele>9</ele>
        <time>2026-08-23T12:30:44.000Z</time>
      </trkpt>
      <trkpt lat="43.3884" lon="-1.679">
        <ele>10</ele>
        <time>2026-08-23T12:30:45.000Z</time>
      </trkpt>
      <trkpt lat="43.38845" lon="-1.67935">
        <ele>9</ele>
        <time>2026-08-23T12:30:50.000Z</time>
      </trkpt>
      <trkpt lat="43.3885" lon="-1.67959">
        <ele>9</ele>
        <time>2026-08-23T12:30:53.000Z</time>
      </trkpt>
      <trkpt lat="43.38841" lon="-1.67968">
        <ele>11</ele>
        <time>2026-08-23T12:30:55.000Z</time>
      </trkpt>
      <trkpt lat="43.38842" lon="-1.67974">
        <ele>11</ele>
        <time>2026-08-23T12:30:56.000Z</time>
      </trkpt>
      <trkpt lat="43.38863" lon="-1.6801">
        <ele>9</ele>
        <time>2026-08-23T12:31:02.000Z</time>
      </trkpt>
      <trkpt lat="43.3887" lon="-1.68024">
        <ele>9</ele>
        <time>2026-08-23T12:31:04.000Z</time>
      </trkpt>
      <trkpt lat="43.3888" lon="-1.68052">
        <ele>9</ele>
        <time>2026-08-23T12:31:08.000Z</time>
      </trkpt>
      <trkpt lat="43.38885" lon="-1.6808">
        <ele>10</ele>
        <time>2026-08-23T12:31:12.000Z</time>
      </trkpt>
      <trkpt lat="43.38895" lon="-1.68125">
        <ele>9</ele>
        <time>2026-08-23T12:31:18.000Z</time>
      </trkpt>
      <trkpt lat="43.38902" lon="-1.68136">
        <ele>8</ele>
        <time>2026-08-23T12:31:20.000Z</time>
      </trkpt>
      <trkpt lat="43.38913" lon="-1.68134">
        <ele>6</ele>
        <time>2026-08-23T12:31:22.000Z</time>
      </trkpt>
      <trkpt lat="43.38928" lon="-1.6819">
        <ele>7</ele>
        <time>2026-08-23T12:31:29.000Z</time>
      </trkpt>
      <trkpt lat="43.38931" lon="-1.68202">
        <ele>6</ele>
        <time>2026-08-23T12:31:31.000Z</time>
      </trkpt>
      <trkpt lat="43.38935" lon="-1.68219">
        <ele>6</ele>
        <time>2026-08-23T12:31:33.000Z</time>
      </trkpt>
      <trkpt lat="43.38952" lon="-1.68286">
        <ele>7</ele>
        <time>2026-08-23T12:31:42.000Z</time>
      </trkpt>
      <trkpt lat="43.38958" lon="-1.68289">
        <ele>7</ele>
        <time>2026-08-23T12:31:44.000Z</time>
      </trkpt>
      <trkpt lat="43.38959" lon="-1.68294">
        <ele>7</ele>
        <time>2026-08-23T12:31:44.000Z</time>
      </trkpt>
      <trkpt lat="43.38972" lon="-1.68346">
        <ele>7</ele>
        <time>2026-08-23T12:31:51.000Z</time>
      </trkpt>
      <trkpt lat="43.38985" lon="-1.68403">
        <ele>6</ele>
        <time>2026-08-23T12:31:59.000Z</time>
      </trkpt>
      <trkpt lat="43.3899" lon="-1.68444">
        <ele>5</ele>
        <time>2026-08-23T12:32:04.000Z</time>
      </trkpt>
      <trkpt lat="43.38985" lon="-1.68454">
        <ele>6</ele>
        <time>2026-08-23T12:32:06.000Z</time>
      </trkpt>
      <trkpt lat="43.38985" lon="-1.68468">
        <ele>5</ele>
        <time>2026-08-23T12:32:08.000Z</time>
      </trkpt>
      <trkpt lat="43.38985" lon="-1.68476">
        <ele>5</ele>
        <time>2026-08-23T12:32:09.000Z</time>
      </trkpt>
      <trkpt lat="43.38987" lon="-1.68498">
        <ele>5</ele>
        <time>2026-08-23T12:32:12.000Z</time>
      </trkpt>
      <trkpt lat="43.38987" lon="-1.68499">
        <ele>5</ele>
        <time>2026-08-23T12:32:12.000Z</time>
      </trkpt>
      <trkpt lat="43.38993" lon="-1.68519">
        <ele>5</ele>
        <time>2026-08-23T12:32:15.000Z</time>
      </trkpt>
      <trkpt lat="43.38997" lon="-1.68533">
        <ele>4</ele>
        <time>2026-08-23T12:32:17.000Z</time>
      </trkpt>
      <trkpt lat="43.39" lon="-1.68544">
        <ele>4</ele>
        <time>2026-08-23T12:32:18.000Z</time>
      </trkpt>
      <trkpt lat="43.39004" lon="-1.68552">
        <ele>4</ele>
        <time>2026-08-23T12:32:19.000Z</time>
      </trkpt>
      <trkpt lat="43.39007" lon="-1.68558">
        <ele>4</ele>
        <time>2026-08-23T12:32:20.000Z</time>
      </trkpt>
      <trkpt lat="43.3902" lon="-1.68575">
        <ele>4</ele>
        <time>2026-08-23T12:32:24.000Z</time>
      </trkpt>
      <trkpt lat="43.39023" lon="-1.68577">
        <ele>4</ele>
        <time>2026-08-23T12:32:24.000Z</time>
      </trkpt>
      <trkpt lat="43.3903" lon="-1.68584">
        <ele>4</ele>
        <time>2026-08-23T12:32:26.000Z</time>
      </trkpt>
      <trkpt lat="43.39053" lon="-1.68594">
        <ele>5</ele>
        <time>2026-08-23T12:32:30.000Z</time>
      </trkpt>
      <trkpt lat="43.39068" lon="-1.686">
        <ele>5</ele>
        <time>2026-08-23T12:32:33.000Z</time>
      </trkpt>
      <trkpt lat="43.39099" lon="-1.68606">
        <ele>6</ele>
        <time>2026-08-23T12:32:38.000Z</time>
      </trkpt>
      <trkpt lat="43.39101" lon="-1.68618">
        <ele>6</ele>
        <time>2026-08-23T12:32:40.000Z</time>
      </trkpt>
      <trkpt lat="43.39099" lon="-1.68668">
        <ele>5</ele>
        <time>2026-08-23T12:32:46.000Z</time>
      </trkpt>
      <trkpt lat="43.39099" lon="-1.68715">
        <ele>5</ele>
        <time>2026-08-23T12:32:52.000Z</time>
      </trkpt>
      <trkpt lat="43.391" lon="-1.68751">
        <ele>5</ele>
        <time>2026-08-23T12:32:57.000Z</time>
      </trkpt>
      <trkpt lat="43.39097" lon="-1.68783">
        <ele>6</ele>
        <time>2026-08-23T12:33:01.000Z</time>
      </trkpt>
      <trkpt lat="43.39094" lon="-1.68804">
        <ele>6</ele>
        <time>2026-08-23T12:33:04.000Z</time>
      </trkpt>
      <trkpt lat="43.3909" lon="-1.68814">
        <ele>7</ele>
        <time>2026-08-23T12:33:06.000Z</time>
      </trkpt>
      <trkpt lat="43.39083" lon="-1.68826">
        <ele>7</ele>
        <time>2026-08-23T12:33:08.000Z</time>
      </trkpt>
      <trkpt lat="43.39019" lon="-1.68862">
        <ele>7</ele>
        <time>2026-08-23T12:33:20.000Z</time>
      </trkpt>
      <trkpt lat="43.38996" lon="-1.68879">
        <ele>7</ele>
        <time>2026-08-23T12:33:24.000Z</time>
      </trkpt>
      <trkpt lat="43.38977" lon="-1.68894">
        <ele>7</ele>
        <time>2026-08-23T12:33:28.000Z</time>
      </trkpt>
      <trkpt lat="43.38962" lon="-1.68899">
        <ele>7</ele>
        <time>2026-08-23T12:33:31.000Z</time>
      </trkpt>
      <trkpt lat="43.38925" lon="-1.68909">
        <ele>7</ele>
        <time>2026-08-23T12:33:38.000Z</time>
      </trkpt>
      <trkpt lat="43.38876" lon="-1.6894">
        <ele>9</ele>
        <time>2026-08-23T12:33:47.000Z</time>
      </trkpt>
      <trkpt lat="43.38856" lon="-1.68946">
        <ele>10</ele>
        <time>2026-08-23T12:33:51.000Z</time>
      </trkpt>
      <trkpt lat="43.38831" lon="-1.68947">
        <ele>11</ele>
        <time>2026-08-23T12:33:56.000Z</time>
      </trkpt>
      <trkpt lat="43.38822" lon="-1.68945">
        <ele>10</ele>
        <time>2026-08-23T12:33:57.000Z</time>
      </trkpt>
      <trkpt lat="43.38799" lon="-1.68931">
        <ele>9</ele>
        <time>2026-08-23T12:34:02.000Z</time>
      </trkpt>
      <trkpt lat="43.38772" lon="-1.6891">
        <ele>8</ele>
        <time>2026-08-23T12:34:07.000Z</time>
      </trkpt>
      <trkpt lat="43.38762" lon="-1.68911">
        <ele>8</ele>
        <time>2026-08-23T12:34:09.000Z</time>
      </trkpt>
      <trkpt lat="43.38753" lon="-1.68918">
        <ele>8</ele>
        <time>2026-08-23T12:34:11.000Z</time>
      </trkpt>
      <trkpt lat="43.38731" lon="-1.68945">
        <ele>10</ele>
        <time>2026-08-23T12:34:16.000Z</time>
      </trkpt>
      <trkpt lat="43.38695" lon="-1.68991">
        <ele>10</ele>
        <time>2026-08-23T12:34:25.000Z</time>
      </trkpt>
      <trkpt lat="43.38679" lon="-1.69019">
        <ele>9</ele>
        <time>2026-08-23T12:34:29.000Z</time>
      </trkpt>
      <trkpt lat="43.38672" lon="-1.69039">
        <ele>9</ele>
        <time>2026-08-23T12:34:32.000Z</time>
      </trkpt>
      <trkpt lat="43.38663" lon="-1.69079">
        <ele>10</ele>
        <time>2026-08-23T12:34:38.000Z</time>
      </trkpt>
      <trkpt lat="43.38655" lon="-1.69112">
        <ele>10</ele>
        <time>2026-08-23T12:34:42.000Z</time>
      </trkpt>
      <trkpt lat="43.3864" lon="-1.69151">
        <ele>10</ele>
        <time>2026-08-23T12:34:48.000Z</time>
      </trkpt>
      <trkpt lat="43.38606" lon="-1.69207">
        <ele>10</ele>
        <time>2026-08-23T12:34:57.000Z</time>
      </trkpt>
      <trkpt lat="43.38552" lon="-1.69308">
        <ele>10</ele>
        <time>2026-08-23T12:35:13.000Z</time>
      </trkpt>
      <trkpt lat="43.38547" lon="-1.69314">
        <ele>10</ele>
        <time>2026-08-23T12:35:15.000Z</time>
      </trkpt>
      <trkpt lat="43.38537" lon="-1.69318">
        <ele>9</ele>
        <time>2026-08-23T12:35:17.000Z</time>
      </trkpt>
      <trkpt lat="43.38537" lon="-1.69326">
        <ele>9</ele>
        <time>2026-08-23T12:35:18.000Z</time>
      </trkpt>
      <trkpt lat="43.38533" lon="-1.69332">
        <ele>9</ele>
        <time>2026-08-23T12:35:19.000Z</time>
      </trkpt>
      <trkpt lat="43.38528" lon="-1.69334">
        <ele>9</ele>
        <time>2026-08-23T12:35:20.000Z</time>
      </trkpt>
      <trkpt lat="43.38523" lon="-1.69331">
        <ele>8</ele>
        <time>2026-08-23T12:35:20.000Z</time>
      </trkpt>
      <trkpt lat="43.38517" lon="-1.69341">
        <ele>8</ele>
        <time>2026-08-23T12:35:22.000Z</time>
      </trkpt>
      <trkpt lat="43.38511" lon="-1.69346">
        <ele>8</ele>
        <time>2026-08-23T12:35:23.000Z</time>
      </trkpt>
      <trkpt lat="43.38448" lon="-1.6939">
        <ele>8</ele>
        <time>2026-08-23T12:35:36.000Z</time>
      </trkpt>
      <trkpt lat="43.38437" lon="-1.69395">
        <ele>8</ele>
        <time>2026-08-23T12:35:38.000Z</time>
      </trkpt>
      <trkpt lat="43.38427" lon="-1.69407">
        <ele>7</ele>
        <time>2026-08-23T12:35:40.000Z</time>
      </trkpt>
      <trkpt lat="43.38358" lon="-1.69471">
        <ele>6</ele>
        <time>2026-08-23T12:35:55.000Z</time>
      </trkpt>
      <trkpt lat="43.38346" lon="-1.69482">
        <ele>6</ele>
        <time>2026-08-23T12:35:58.000Z</time>
      </trkpt>
      <trkpt lat="43.38316" lon="-1.69513">
        <ele>6</ele>
        <time>2026-08-23T12:36:04.000Z</time>
      </trkpt>
      <trkpt lat="43.38307" lon="-1.69518">
        <ele>6</ele>
        <time>2026-08-23T12:36:06.000Z</time>
      </trkpt>
      <trkpt lat="43.3829" lon="-1.69518">
        <ele>6</ele>
        <time>2026-08-23T12:36:09.000Z</time>
      </trkpt>
      <trkpt lat="43.38243" lon="-1.695">
        <ele>6</ele>
        <time>2026-08-23T12:36:18.000Z</time>
      </trkpt>
      <trkpt lat="43.38222" lon="-1.69484">
        <ele>6</ele>
        <time>2026-08-23T12:36:22.000Z</time>
      </trkpt>
      <trkpt lat="43.382" lon="-1.69453">
        <ele>6</ele>
        <time>2026-08-23T12:36:28.000Z</time>
      </trkpt>
      <trkpt lat="43.38192" lon="-1.69433">
        <ele>6</ele>
        <time>2026-08-23T12:36:31.000Z</time>
      </trkpt>
      <trkpt lat="43.38179" lon="-1.69396">
        <ele>5</ele>
        <time>2026-08-23T12:36:36.000Z</time>
      </trkpt>
      <trkpt lat="43.38149" lon="-1.69345">
        <ele>6</ele>
        <time>2026-08-23T12:36:45.000Z</time>
      </trkpt>
      <trkpt lat="43.38141" lon="-1.69337">
        <ele>6</ele>
        <time>2026-08-23T12:36:46.000Z</time>
      </trkpt>
      <trkpt lat="43.38131" lon="-1.69331">
        <ele>7</ele>
        <time>2026-08-23T12:36:48.000Z</time>
      </trkpt>
      <trkpt lat="43.38106" lon="-1.69333">
        <ele>8</ele>
        <time>2026-08-23T12:36:53.000Z</time>
      </trkpt>
      <trkpt lat="43.38102" lon="-1.69332">
        <ele>8</ele>
        <time>2026-08-23T12:36:53.000Z</time>
      </trkpt>
      <trkpt lat="43.38096" lon="-1.69323">
        <ele>8</ele>
        <time>2026-08-23T12:36:55.000Z</time>
      </trkpt>
      <trkpt lat="43.38094" lon="-1.69316">
        <ele>8</ele>
        <time>2026-08-23T12:36:56.000Z</time>
      </trkpt>
      <trkpt lat="43.38092" lon="-1.69296">
        <ele>7</ele>
        <time>2026-08-23T12:36:59.000Z</time>
      </trkpt>
      <trkpt lat="43.38088" lon="-1.69277">
        <ele>7</ele>
        <time>2026-08-23T12:37:01.000Z</time>
      </trkpt>
      <trkpt lat="43.38067" lon="-1.6923">
        <ele>8</ele>
        <time>2026-08-23T12:37:08.000Z</time>
      </trkpt>
      <trkpt lat="43.38062" lon="-1.69207">
        <ele>8</ele>
        <time>2026-08-23T12:37:11.000Z</time>
      </trkpt>
      <trkpt lat="43.38058" lon="-1.69191">
        <ele>8</ele>
        <time>2026-08-23T12:37:14.000Z</time>
      </trkpt>
      <trkpt lat="43.38028" lon="-1.6914">
        <ele>9</ele>
        <time>2026-08-23T12:37:22.000Z</time>
      </trkpt>
      <trkpt lat="43.3799" lon="-1.69085">
        <ele>8</ele>
        <time>2026-08-23T12:37:32.000Z</time>
      </trkpt>
      <trkpt lat="43.37973" lon="-1.69084">
        <ele>8</ele>
        <time>2026-08-23T12:37:35.000Z</time>
      </trkpt>
      <trkpt lat="43.37964" lon="-1.69071">
        <ele>8</ele>
        <time>2026-08-23T12:37:37.000Z</time>
      </trkpt>
      <trkpt lat="43.37912" lon="-1.69012">
        <ele>6</ele>
        <time>2026-08-23T12:37:49.000Z</time>
      </trkpt>
      <trkpt lat="43.37888" lon="-1.69002">
        <ele>5</ele>
        <time>2026-08-23T12:37:54.000Z</time>
      </trkpt>
      <trkpt lat="43.37872" lon="-1.69005">
        <ele>6</ele>
        <time>2026-08-23T12:37:57.000Z</time>
      </trkpt>
      <trkpt lat="43.3784" lon="-1.69018">
        <ele>7</ele>
        <time>2026-08-23T12:38:02.000Z</time>
      </trkpt>
      <trkpt lat="43.37797" lon="-1.69045">
        <ele>10</ele>
        <time>2026-08-23T12:38:11.000Z</time>
      </trkpt>
      <trkpt lat="43.37777" lon="-1.69053">
        <ele>10</ele>
        <time>2026-08-23T12:38:15.000Z</time>
      </trkpt>
      <trkpt lat="43.37761" lon="-1.69047">
        <ele>10</ele>
        <time>2026-08-23T12:38:18.000Z</time>
      </trkpt>
      <trkpt lat="43.37577" lon="-1.68899">
        <ele>8</ele>
        <time>2026-08-23T12:38:55.000Z</time>
      </trkpt>
      <trkpt lat="43.37526" lon="-1.68863">
        <ele>8</ele>
        <time>2026-08-23T12:39:06.000Z</time>
      </trkpt>
      <trkpt lat="43.37512" lon="-1.68848">
        <ele>7</ele>
        <time>2026-08-23T12:39:09.000Z</time>
      </trkpt>
      <trkpt lat="43.37496" lon="-1.68825">
        <ele>7</ele>
        <time>2026-08-23T12:39:13.000Z</time>
      </trkpt>
      <trkpt lat="43.37475" lon="-1.68772">
        <ele>6</ele>
        <time>2026-08-23T12:39:21.000Z</time>
      </trkpt>
      <trkpt lat="43.37461" lon="-1.68754">
        <ele>6</ele>
        <time>2026-08-23T12:39:24.000Z</time>
      </trkpt>
      <trkpt lat="43.37448" lon="-1.68747">
        <ele>6</ele>
        <time>2026-08-23T12:39:27.000Z</time>
      </trkpt>
      <trkpt lat="43.37428" lon="-1.68752">
        <ele>6</ele>
        <time>2026-08-23T12:39:30.000Z</time>
      </trkpt>
      <trkpt lat="43.37404" lon="-1.68763">
        <ele>7</ele>
        <time>2026-08-23T12:39:35.000Z</time>
      </trkpt>
      <trkpt lat="43.3735" lon="-1.68765">
        <ele>9</ele>
        <time>2026-08-23T12:39:44.000Z</time>
      </trkpt>
      <trkpt lat="43.37299" lon="-1.68794">
        <ele>10</ele>
        <time>2026-08-23T12:39:54.000Z</time>
      </trkpt>
      <trkpt lat="43.37278" lon="-1.68806">
        <ele>10</ele>
        <time>2026-08-23T12:39:58.000Z</time>
      </trkpt>
      <trkpt lat="43.37244" lon="-1.68827">
        <ele>11</ele>
        <time>2026-08-23T12:40:05.000Z</time>
      </trkpt>
      <trkpt lat="43.3719" lon="-1.68876">
        <ele>12</ele>
        <time>2026-08-23T12:40:16.000Z</time>
      </trkpt>
      <trkpt lat="43.37175" lon="-1.68884">
        <ele>12</ele>
        <time>2026-08-23T12:40:19.000Z</time>
      </trkpt>
      <trkpt lat="43.37147" lon="-1.68883">
        <ele>10</ele>
        <time>2026-08-23T12:40:24.000Z</time>
      </trkpt>
      <trkpt lat="43.37123" lon="-1.68876">
        <ele>9</ele>
        <time>2026-08-23T12:40:29.000Z</time>
      </trkpt>
      <trkpt lat="43.37115" lon="-1.68874">
        <ele>8</ele>
        <time>2026-08-23T12:40:30.000Z</time>
      </trkpt>
      <trkpt lat="43.37086" lon="-1.68863">
        <ele>6</ele>
        <time>2026-08-23T12:40:35.000Z</time>
      </trkpt>
      <trkpt lat="43.37072" lon="-1.68846">
        <ele>6</ele>
        <time>2026-08-23T12:40:39.000Z</time>
      </trkpt>
      <trkpt lat="43.37063" lon="-1.6883">
        <ele>6</ele>
        <time>2026-08-23T12:40:41.000Z</time>
      </trkpt>
      <trkpt lat="43.37051" lon="-1.688">
        <ele>6</ele>
        <time>2026-08-23T12:40:46.000Z</time>
      </trkpt>
      <trkpt lat="43.37045" lon="-1.68775">
        <ele>6</ele>
        <time>2026-08-23T12:40:49.000Z</time>
      </trkpt>
      <trkpt lat="43.37027" lon="-1.68693">
        <ele>7</ele>
        <time>2026-08-23T12:41:00.000Z</time>
      </trkpt>
      <trkpt lat="43.37014" lon="-1.68644">
        <ele>8</ele>
        <time>2026-08-23T12:41:07.000Z</time>
      </trkpt>
      <trkpt lat="43.37011" lon="-1.68627">
        <ele>8</ele>
        <time>2026-08-23T12:41:09.000Z</time>
      </trkpt>
      <trkpt lat="43.36971" lon="-1.6856">
        <ele>9</ele>
        <time>2026-08-23T12:41:20.000Z</time>
      </trkpt>
      <trkpt lat="43.36942" lon="-1.68516">
        <ele>10</ele>
        <time>2026-08-23T12:41:28.000Z</time>
      </trkpt>
      <trkpt lat="43.36932" lon="-1.68503">
        <ele>11</ele>
        <time>2026-08-23T12:41:31.000Z</time>
      </trkpt>
      <trkpt lat="43.36905" lon="-1.6849">
        <ele>12</ele>
        <time>2026-08-23T12:41:36.000Z</time>
      </trkpt>
      <trkpt lat="43.36887" lon="-1.68478">
        <ele>14</ele>
        <time>2026-08-23T12:41:39.000Z</time>
      </trkpt>
      <trkpt lat="43.36879" lon="-1.68482">
        <ele>14</ele>
        <time>2026-08-23T12:41:41.000Z</time>
      </trkpt>
      <trkpt lat="43.36875" lon="-1.6849">
        <ele>14</ele>
        <time>2026-08-23T12:41:42.000Z</time>
      </trkpt>
      <trkpt lat="43.36853" lon="-1.68546">
        <ele>14</ele>
        <time>2026-08-23T12:41:50.000Z</time>
      </trkpt>
      <trkpt lat="43.36839" lon="-1.6858">
        <ele>14</ele>
        <time>2026-08-23T12:41:55.000Z</time>
      </trkpt>
      <trkpt lat="43.36791" lon="-1.6864">
        <ele>14</ele>
        <time>2026-08-23T12:42:07.000Z</time>
      </trkpt>
      <trkpt lat="43.36776" lon="-1.68656">
        <ele>15</ele>
        <time>2026-08-23T12:42:10.000Z</time>
      </trkpt>
      <trkpt lat="43.36764" lon="-1.68668">
        <ele>15</ele>
        <time>2026-08-23T12:42:13.000Z</time>
      </trkpt>
      <trkpt lat="43.36754" lon="-1.68676">
        <ele>15</ele>
        <time>2026-08-23T12:42:15.000Z</time>
      </trkpt>
      <trkpt lat="43.3669" lon="-1.68709">
        <ele>15</ele>
        <time>2026-08-23T12:42:27.000Z</time>
      </trkpt>
      <trkpt lat="43.36658" lon="-1.68726">
        <ele>16</ele>
        <time>2026-08-23T12:42:33.000Z</time>
      </trkpt>
      <trkpt lat="43.36588" lon="-1.68792">
        <ele>18</ele>
        <time>2026-08-23T12:42:48.000Z</time>
      </trkpt>
      <trkpt lat="43.36489" lon="-1.68936">
        <ele>23</ele>
        <time>2026-08-23T12:43:14.000Z</time>
      </trkpt>
      <trkpt lat="43.36445" lon="-1.68999">
        <ele>26</ele>
        <time>2026-08-23T12:43:25.000Z</time>
      </trkpt>
      <trkpt lat="43.36413" lon="-1.69049">
        <ele>25</ele>
        <time>2026-08-23T12:43:34.000Z</time>
      </trkpt>
      <trkpt lat="43.36397" lon="-1.69082">
        <ele>24</ele>
        <time>2026-08-23T12:43:39.000Z</time>
      </trkpt>
      <trkpt lat="43.36366" lon="-1.69156">
        <ele>18</ele>
        <time>2026-08-23T12:43:50.000Z</time>
      </trkpt>
      <trkpt lat="43.36336" lon="-1.69251">
        <ele>16</ele>
        <time>2026-08-23T12:44:03.000Z</time>
      </trkpt>
      <trkpt lat="43.36335" lon="-1.69259">
        <ele>16</ele>
        <time>2026-08-23T12:44:04.000Z</time>
      </trkpt>
      <trkpt lat="43.3633" lon="-1.69277">
        <ele>16</ele>
        <time>2026-08-23T12:44:07.000Z</time>
      </trkpt>
      <trkpt lat="43.36304" lon="-1.69374">
        <ele>14</ele>
        <time>2026-08-23T12:44:20.000Z</time>
      </trkpt>
      <trkpt lat="43.36302" lon="-1.69386">
        <ele>14</ele>
        <time>2026-08-23T12:44:22.000Z</time>
      </trkpt>
      <trkpt lat="43.36301" lon="-1.69397">
        <ele>14</ele>
        <time>2026-08-23T12:44:23.000Z</time>
      </trkpt>
      <trkpt lat="43.36297" lon="-1.69438">
        <ele>13</ele>
        <time>2026-08-23T12:44:29.000Z</time>
      </trkpt>
      <trkpt lat="43.36285" lon="-1.69537">
        <ele>12</ele>
        <time>2026-08-23T12:44:42.000Z</time>
      </trkpt>
      <trkpt lat="43.36276" lon="-1.69613">
        <ele>14</ele>
        <time>2026-08-23T12:44:52.000Z</time>
      </trkpt>
      <trkpt lat="43.36268" lon="-1.69673">
        <ele>18</ele>
        <time>2026-08-23T12:45:00.000Z</time>
      </trkpt>
      <trkpt lat="43.36256" lon="-1.69789">
        <ele>24</ele>
        <time>2026-08-23T12:45:15.000Z</time>
      </trkpt>
      <trkpt lat="43.36247" lon="-1.69881">
        <ele>30</ele>
        <time>2026-08-23T12:45:27.000Z</time>
      </trkpt>
      <trkpt lat="43.36244" lon="-1.69901">
        <ele>32</ele>
        <time>2026-08-23T12:45:29.000Z</time>
      </trkpt>
      <trkpt lat="43.36241" lon="-1.69918">
        <ele>33</ele>
        <time>2026-08-23T12:45:32.000Z</time>
      </trkpt>
      <trkpt lat="43.36235" lon="-1.69971">
        <ele>35</ele>
        <time>2026-08-23T12:45:39.000Z</time>
      </trkpt>
      <trkpt lat="43.36231" lon="-1.7001">
        <ele>36</ele>
        <time>2026-08-23T12:45:44.000Z</time>
      </trkpt>
      <trkpt lat="43.36237" lon="-1.70016">
        <ele>36</ele>
        <time>2026-08-23T12:45:45.000Z</time>
      </trkpt>
      <trkpt lat="43.3626" lon="-1.7004">
        <ele>36</ele>
        <time>2026-08-23T12:45:50.000Z</time>
      </trkpt>
      <trkpt lat="43.36321" lon="-1.70129">
        <ele>38</ele>
        <time>2026-08-23T12:46:06.000Z</time>
      </trkpt>
      <trkpt lat="43.36325" lon="-1.70138">
        <ele>39</ele>
        <time>2026-08-23T12:46:07.000Z</time>
      </trkpt>
      <trkpt lat="43.36334" lon="-1.70157">
        <ele>40</ele>
        <time>2026-08-23T12:46:10.000Z</time>
      </trkpt>
      <trkpt lat="43.36357" lon="-1.70209">
        <ele>40</ele>
        <time>2026-08-23T12:46:18.000Z</time>
      </trkpt>
      <trkpt lat="43.36418" lon="-1.70287">
        <ele>47</ele>
        <time>2026-08-23T12:46:33.000Z</time>
      </trkpt>
      <trkpt lat="43.36436" lon="-1.70313">
        <ele>49</ele>
        <time>2026-08-23T12:46:38.000Z</time>
      </trkpt>
      <trkpt lat="43.36455" lon="-1.70347">
        <ele>52</ele>
        <time>2026-08-23T12:46:43.000Z</time>
      </trkpt>
      <trkpt lat="43.36465" lon="-1.70361">
        <ele>52</ele>
        <time>2026-08-23T12:46:46.000Z</time>
      </trkpt>
      <trkpt lat="43.36506" lon="-1.70403">
        <ele>55</ele>
        <time>2026-08-23T12:46:55.000Z</time>
      </trkpt>
      <trkpt lat="43.36513" lon="-1.70414">
        <ele>55</ele>
        <time>2026-08-23T12:46:57.000Z</time>
      </trkpt>
      <trkpt lat="43.36568" lon="-1.70484">
        <ele>60</ele>
        <time>2026-08-23T12:47:10.000Z</time>
      </trkpt>
      <trkpt lat="43.36573" lon="-1.70495">
        <ele>61</ele>
        <time>2026-08-23T12:47:12.000Z</time>
      </trkpt>
      <trkpt lat="43.36577" lon="-1.70528">
        <ele>63</ele>
        <time>2026-08-23T12:47:16.000Z</time>
      </trkpt>
      <trkpt lat="43.36582" lon="-1.70546">
        <ele>65</ele>
        <time>2026-08-23T12:47:18.000Z</time>
      </trkpt>
      <trkpt lat="43.366" lon="-1.7058">
        <ele>70</ele>
        <time>2026-08-23T12:47:24.000Z</time>
      </trkpt>
      <trkpt lat="43.36631" lon="-1.70643">
        <ele>76</ele>
        <time>2026-08-23T12:47:34.000Z</time>
      </trkpt>
      <trkpt lat="43.36644" lon="-1.70665">
        <ele>79</ele>
        <time>2026-08-23T12:47:37.000Z</time>
      </trkpt>
      <trkpt lat="43.36668" lon="-1.707">
        <ele>82</ele>
        <time>2026-08-23T12:47:44.000Z</time>
      </trkpt>
      <trkpt lat="43.36677" lon="-1.70724">
        <ele>84</ele>
        <time>2026-08-23T12:47:47.000Z</time>
      </trkpt>
      <trkpt lat="43.36683" lon="-1.70792">
        <ele>82</ele>
        <time>2026-08-23T12:47:56.000Z</time>
      </trkpt>
      <trkpt lat="43.36706" lon="-1.70874">
        <ele>84</ele>
        <time>2026-08-23T12:48:07.000Z</time>
      </trkpt>
      <trkpt lat="43.3672" lon="-1.70883">
        <ele>85</ele>
        <time>2026-08-23T12:48:10.000Z</time>
      </trkpt>
      <trkpt lat="43.36728" lon="-1.70878">
        <ele>86</ele>
        <time>2026-08-23T12:48:12.000Z</time>
      </trkpt>
      <trkpt lat="43.36737" lon="-1.70872">
        <ele>88</ele>
        <time>2026-08-23T12:48:13.000Z</time>
      </trkpt>
      <trkpt lat="43.36755" lon="-1.70839">
        <ele>91</ele>
        <time>2026-08-23T12:48:19.000Z</time>
      </trkpt>
      <trkpt lat="43.36765" lon="-1.70828">
        <ele>92</ele>
        <time>2026-08-23T12:48:21.000Z</time>
      </trkpt>
      <trkpt lat="43.36782" lon="-1.70827">
        <ele>92</ele>
        <time>2026-08-23T12:48:24.000Z</time>
      </trkpt>
      <trkpt lat="43.36814" lon="-1.70838">
        <ele>89</ele>
        <time>2026-08-23T12:48:30.000Z</time>
      </trkpt>
      <trkpt lat="43.36844" lon="-1.70838">
        <ele>87</ele>
        <time>2026-08-23T12:48:35.000Z</time>
      </trkpt>
      <trkpt lat="43.36873" lon="-1.70846">
        <ele>84</ele>
        <time>2026-08-23T12:48:41.000Z</time>
      </trkpt>
      <trkpt lat="43.369" lon="-1.70848">
        <ele>82</ele>
        <time>2026-08-23T12:48:45.000Z</time>
      </trkpt>
      <trkpt lat="43.36941" lon="-1.70868">
        <ele>76</ele>
        <time>2026-08-23T12:48:53.000Z</time>
      </trkpt>
      <trkpt lat="43.36994" lon="-1.70904">
        <ele>71</ele>
        <time>2026-08-23T12:49:04.000Z</time>
      </trkpt>
      <trkpt lat="43.37028" lon="-1.70913">
        <ele>70</ele>
        <time>2026-08-23T12:49:10.000Z</time>
      </trkpt>
      <trkpt lat="43.37053" lon="-1.70902">
        <ele>69</ele>
        <time>2026-08-23T12:49:14.000Z</time>
      </trkpt>
      <trkpt lat="43.37094" lon="-1.70878">
        <ele>66</ele>
        <time>2026-08-23T12:49:22.000Z</time>
      </trkpt>
      <trkpt lat="43.37192" lon="-1.70779">
        <ele>44</ele>
        <time>2026-08-23T12:49:44.000Z</time>
      </trkpt>
      <trkpt lat="43.37206" lon="-1.70768">
        <ele>41</ele>
        <time>2026-08-23T12:49:47.000Z</time>
      </trkpt>
      <trkpt lat="43.37215" lon="-1.70767">
        <ele>40</ele>
        <time>2026-08-23T12:49:48.000Z</time>
      </trkpt>
      <trkpt lat="43.37327" lon="-1.70739">
        <ele>22</ele>
        <time>2026-08-23T12:50:09.000Z</time>
      </trkpt>
      <trkpt lat="43.37382" lon="-1.70729">
        <ele>21</ele>
        <time>2026-08-23T12:50:19.000Z</time>
      </trkpt>
      <trkpt lat="43.374" lon="-1.70731">
        <ele>20</ele>
        <time>2026-08-23T12:50:22.000Z</time>
      </trkpt>
      <trkpt lat="43.37422" lon="-1.70737">
        <ele>19</ele>
        <time>2026-08-23T12:50:26.000Z</time>
      </trkpt>
      <trkpt lat="43.37433" lon="-1.70734">
        <ele>20</ele>
        <time>2026-08-23T12:50:28.000Z</time>
      </trkpt>
      <trkpt lat="43.37457" lon="-1.70713">
        <ele>21</ele>
        <time>2026-08-23T12:50:33.000Z</time>
      </trkpt>
      <trkpt lat="43.37464" lon="-1.70709">
        <ele>21</ele>
        <time>2026-08-23T12:50:34.000Z</time>
      </trkpt>
      <trkpt lat="43.37471" lon="-1.70709">
        <ele>21</ele>
        <time>2026-08-23T12:50:35.000Z</time>
      </trkpt>
      <trkpt lat="43.37485" lon="-1.70721">
        <ele>22</ele>
        <time>2026-08-23T12:50:38.000Z</time>
      </trkpt>
      <trkpt lat="43.37491" lon="-1.70722">
        <ele>22</ele>
        <time>2026-08-23T12:50:39.000Z</time>
      </trkpt>
      <trkpt lat="43.37495" lon="-1.70712">
        <ele>22</ele>
        <time>2026-08-23T12:50:41.000Z</time>
      </trkpt>
      <trkpt lat="43.37499" lon="-1.70706">
        <ele>21</ele>
        <time>2026-08-23T12:50:42.000Z</time>
      </trkpt>
      <trkpt lat="43.37593" lon="-1.70588">
        <ele>24</ele>
        <time>2026-08-23T12:51:05.000Z</time>
      </trkpt>
      <trkpt lat="43.37591" lon="-1.70633">
        <ele>29</ele>
        <time>2026-08-23T12:51:10.000Z</time>
      </trkpt>
      <trkpt lat="43.37596" lon="-1.70677">
        <ele>34</ele>
        <time>2026-08-23T12:51:16.000Z</time>
      </trkpt>
      <trkpt lat="43.37609" lon="-1.707">
        <ele>37</ele>
        <time>2026-08-23T12:51:20.000Z</time>
      </trkpt>
      <trkpt lat="43.37711" lon="-1.70752">
        <ele>54</ele>
        <time>2026-08-23T12:51:39.000Z</time>
      </trkpt>
      <trkpt lat="43.37792" lon="-1.70787">
        <ele>61</ele>
        <time>2026-08-23T12:51:54.000Z</time>
      </trkpt>
      <trkpt lat="43.37805" lon="-1.70812">
        <ele>62</ele>
        <time>2026-08-23T12:51:58.000Z</time>
      </trkpt>
      <trkpt lat="43.37856" lon="-1.7093">
        <ele>65</ele>
        <time>2026-08-23T12:52:16.000Z</time>
      </trkpt>
      <trkpt lat="43.37861" lon="-1.7096">
        <ele>67</ele>
        <time>2026-08-23T12:52:20.000Z</time>
      </trkpt>
      <trkpt lat="43.3786" lon="-1.70981">
        <ele>69</ele>
        <time>2026-08-23T12:52:23.000Z</time>
      </trkpt>
      <trkpt lat="43.37856" lon="-1.70995">
        <ele>71</ele>
        <time>2026-08-23T12:52:25.000Z</time>
      </trkpt>
      <trkpt lat="43.37837" lon="-1.71032">
        <ele>76</ele>
        <time>2026-08-23T12:52:31.000Z</time>
      </trkpt>
      <trkpt lat="43.37822" lon="-1.71066">
        <ele>77</ele>
        <time>2026-08-23T12:52:36.000Z</time>
      </trkpt>
      <trkpt lat="43.37781" lon="-1.71176">
        <ele>84</ele>
        <time>2026-08-23T12:52:52.000Z</time>
      </trkpt>
      <trkpt lat="43.37776" lon="-1.71204">
        <ele>83</ele>
        <time>2026-08-23T12:52:56.000Z</time>
      </trkpt>
      <trkpt lat="43.37774" lon="-1.71222">
        <ele>83</ele>
        <time>2026-08-23T12:52:58.000Z</time>
      </trkpt>
      <trkpt lat="43.37789" lon="-1.71327">
        <ele>81</ele>
        <time>2026-08-23T12:53:12.000Z</time>
      </trkpt>
      <trkpt lat="43.37789" lon="-1.71351">
        <ele>81</ele>
        <time>2026-08-23T12:53:15.000Z</time>
      </trkpt>
      <trkpt lat="43.37783" lon="-1.71396">
        <ele>81</ele>
        <time>2026-08-23T12:53:21.000Z</time>
      </trkpt>
      <trkpt lat="43.37774" lon="-1.7143">
        <ele>81</ele>
        <time>2026-08-23T12:53:25.000Z</time>
      </trkpt>
      <trkpt lat="43.37755" lon="-1.71467">
        <ele>82</ele>
        <time>2026-08-23T12:53:31.000Z</time>
      </trkpt>
      <trkpt lat="43.37749" lon="-1.71485">
        <ele>82</ele>
        <time>2026-08-23T12:53:34.000Z</time>
      </trkpt>
      <trkpt lat="43.37743" lon="-1.71515">
        <ele>81</ele>
        <time>2026-08-23T12:53:38.000Z</time>
      </trkpt>
      <trkpt lat="43.37722" lon="-1.71527">
        <ele>80</ele>
        <time>2026-08-23T12:53:42.000Z</time>
      </trkpt>
      <trkpt lat="43.37688" lon="-1.71566">
        <ele>83</ele>
        <time>2026-08-23T12:53:50.000Z</time>
      </trkpt>
      <trkpt lat="43.37676" lon="-1.71575">
        <ele>84</ele>
        <time>2026-08-23T12:53:52.000Z</time>
      </trkpt>
      <trkpt lat="43.37642" lon="-1.71594">
        <ele>87</ele>
        <time>2026-08-23T12:53:59.000Z</time>
      </trkpt>
      <trkpt lat="43.37618" lon="-1.71611">
        <ele>88</ele>
        <time>2026-08-23T12:54:04.000Z</time>
      </trkpt>
      <trkpt lat="43.37591" lon="-1.71633">
        <ele>89</ele>
        <time>2026-08-23T12:54:09.000Z</time>
      </trkpt>
      <trkpt lat="43.37568" lon="-1.71675">
        <ele>89</ele>
        <time>2026-08-23T12:54:16.000Z</time>
      </trkpt>
      <trkpt lat="43.37556" lon="-1.71693">
        <ele>87</ele>
        <time>2026-08-23T12:54:19.000Z</time>
      </trkpt>
      <trkpt lat="43.37512" lon="-1.71741">
        <ele>87</ele>
        <time>2026-08-23T12:54:29.000Z</time>
      </trkpt>
      <trkpt lat="43.37487" lon="-1.71788">
        <ele>85</ele>
        <time>2026-08-23T12:54:37.000Z</time>
      </trkpt>
      <trkpt lat="43.37458" lon="-1.71876">
        <ele>82</ele>
        <time>2026-08-23T12:54:49.000Z</time>
      </trkpt>
      <trkpt lat="43.37444" lon="-1.71911">
        <ele>82</ele>
        <time>2026-08-23T12:54:54.000Z</time>
      </trkpt>
      <trkpt lat="43.37435" lon="-1.71943">
        <ele>80</ele>
        <time>2026-08-23T12:54:59.000Z</time>
      </trkpt>
      <trkpt lat="43.37434" lon="-1.71974">
        <ele>77</ele>
        <time>2026-08-23T12:55:03.000Z</time>
      </trkpt>
      <trkpt lat="43.37437" lon="-1.72012">
        <ele>74</ele>
        <time>2026-08-23T12:55:08.000Z</time>
      </trkpt>
      <trkpt lat="43.37435" lon="-1.72047">
        <ele>74</ele>
        <time>2026-08-23T12:55:12.000Z</time>
      </trkpt>
      <trkpt lat="43.37417" lon="-1.72139">
        <ele>76</ele>
        <time>2026-08-23T12:55:25.000Z</time>
      </trkpt>
      <trkpt lat="43.37408" lon="-1.7217">
        <ele>76</ele>
        <time>2026-08-23T12:55:29.000Z</time>
      </trkpt>
      <trkpt lat="43.37398" lon="-1.72193">
        <ele>76</ele>
        <time>2026-08-23T12:55:32.000Z</time>
      </trkpt>
      <trkpt lat="43.37384" lon="-1.72213">
        <ele>76</ele>
        <time>2026-08-23T12:55:36.000Z</time>
      </trkpt>
      <trkpt lat="43.37314" lon="-1.72272">
        <ele>76</ele>
        <time>2026-08-23T12:55:51.000Z</time>
      </trkpt>
      <trkpt lat="43.37232" lon="-1.72351">
        <ele>74</ele>
        <time>2026-08-23T12:56:08.000Z</time>
      </trkpt>
      <trkpt lat="43.37215" lon="-1.72372">
        <ele>74</ele>
        <time>2026-08-23T12:56:12.000Z</time>
      </trkpt>
      <trkpt lat="43.37184" lon="-1.72418">
        <ele>75</ele>
        <time>2026-08-23T12:56:21.000Z</time>
      </trkpt>
      <trkpt lat="43.37157" lon="-1.72453">
        <ele>76</ele>
        <time>2026-08-23T12:56:27.000Z</time>
      </trkpt>
      <trkpt lat="43.37125" lon="-1.72491">
        <ele>77</ele>
        <time>2026-08-23T12:56:35.000Z</time>
      </trkpt>
      <trkpt lat="43.3707" lon="-1.72554">
        <ele>86</ele>
        <time>2026-08-23T12:56:47.000Z</time>
      </trkpt>
      <trkpt lat="43.37003" lon="-1.72622">
        <ele>94</ele>
        <time>2026-08-23T12:57:02.000Z</time>
      </trkpt>
      <trkpt lat="43.36994" lon="-1.72636">
        <ele>94</ele>
        <time>2026-08-23T12:57:05.000Z</time>
      </trkpt>
      <trkpt lat="43.36989" lon="-1.72648">
        <ele>95</ele>
        <time>2026-08-23T12:57:06.000Z</time>
      </trkpt>
      <trkpt lat="43.36974" lon="-1.72769">
        <ele>92</ele>
        <time>2026-08-23T12:57:22.000Z</time>
      </trkpt>
      <trkpt lat="43.36952" lon="-1.72868">
        <ele>89</ele>
        <time>2026-08-23T12:57:36.000Z</time>
      </trkpt>
      <trkpt lat="43.36953" lon="-1.72896">
        <ele>90</ele>
        <time>2026-08-23T12:57:39.000Z</time>
      </trkpt>
      <trkpt lat="43.36966" lon="-1.73049">
        <ele>86</ele>
        <time>2026-08-23T12:57:59.000Z</time>
      </trkpt>
      <trkpt lat="43.36967" lon="-1.73111">
        <ele>84</ele>
        <time>2026-08-23T12:58:07.000Z</time>
      </trkpt>
      <trkpt lat="43.36955" lon="-1.73228">
        <ele>80</ele>
        <time>2026-08-23T12:58:23.000Z</time>
      </trkpt>
      <trkpt lat="43.3694" lon="-1.73291">
        <ele>79</ele>
        <time>2026-08-23T12:58:31.000Z</time>
      </trkpt>
      <trkpt lat="43.36928" lon="-1.73371">
        <ele>82</ele>
        <time>2026-08-23T12:58:42.000Z</time>
      </trkpt>
      <trkpt lat="43.36919" lon="-1.73394">
        <ele>83</ele>
        <time>2026-08-23T12:58:45.000Z</time>
      </trkpt>
      <trkpt lat="43.36895" lon="-1.73423">
        <ele>83</ele>
        <time>2026-08-23T12:58:51.000Z</time>
      </trkpt>
      <trkpt lat="43.36886" lon="-1.73448">
        <ele>83</ele>
        <time>2026-08-23T12:58:54.000Z</time>
      </trkpt>
      <trkpt lat="43.36869" lon="-1.73521">
        <ele>84</ele>
        <time>2026-08-23T12:59:04.000Z</time>
      </trkpt>
      <trkpt lat="43.36858" lon="-1.7355">
        <ele>85</ele>
        <time>2026-08-23T12:59:08.000Z</time>
      </trkpt>
      <trkpt lat="43.3683" lon="-1.73564">
        <ele>86</ele>
        <time>2026-08-23T12:59:14.000Z</time>
      </trkpt>
      <trkpt lat="43.36776" lon="-1.73565">
        <ele>91</ele>
        <time>2026-08-23T12:59:23.000Z</time>
      </trkpt>
      <trkpt lat="43.36755" lon="-1.73562">
        <ele>92</ele>
        <time>2026-08-23T12:59:27.000Z</time>
      </trkpt>
      <trkpt lat="43.36659" lon="-1.73537">
        <ele>95</ele>
        <time>2026-08-23T12:59:45.000Z</time>
      </trkpt>
      <trkpt lat="43.36641" lon="-1.73528">
        <ele>95</ele>
        <time>2026-08-23T12:59:48.000Z</time>
      </trkpt>
      <trkpt lat="43.36625" lon="-1.73515">
        <ele>96</ele>
        <time>2026-08-23T12:59:51.000Z</time>
      </trkpt>
      <trkpt lat="43.36606" lon="-1.735">
        <ele>97</ele>
        <time>2026-08-23T12:59:55.000Z</time>
      </trkpt>
      <trkpt lat="43.36565" lon="-1.73457">
        <ele>99</ele>
        <time>2026-08-23T13:00:04.000Z</time>
      </trkpt>
      <trkpt lat="43.36552" lon="-1.73451">
        <ele>101</ele>
        <time>2026-08-23T13:00:07.000Z</time>
      </trkpt>
      <trkpt lat="43.36477" lon="-1.73477">
        <ele>108</ele>
        <time>2026-08-23T13:00:21.000Z</time>
      </trkpt>
      <trkpt lat="43.36385" lon="-1.73503">
        <ele>112</ele>
        <time>2026-08-23T13:00:37.000Z</time>
      </trkpt>
      <trkpt lat="43.3636" lon="-1.73507">
        <ele>112</ele>
        <time>2026-08-23T13:00:42.000Z</time>
      </trkpt>
      <trkpt lat="43.36335" lon="-1.73506">
        <ele>114</ele>
        <time>2026-08-23T13:00:46.000Z</time>
      </trkpt>
      <trkpt lat="43.36314" lon="-1.73494">
        <ele>113</ele>
        <time>2026-08-23T13:00:50.000Z</time>
      </trkpt>
      <trkpt lat="43.36296" lon="-1.73497">
        <ele>112</ele>
        <time>2026-08-23T13:00:53.000Z</time>
      </trkpt>
      <trkpt lat="43.36284" lon="-1.735">
        <ele>112</ele>
        <time>2026-08-23T13:00:56.000Z</time>
      </trkpt>
      <trkpt lat="43.36267" lon="-1.7351">
        <ele>112</ele>
        <time>2026-08-23T13:00:59.000Z</time>
      </trkpt>
      <trkpt lat="43.36235" lon="-1.73566">
        <ele>110</ele>
        <time>2026-08-23T13:01:08.000Z</time>
      </trkpt>
      <trkpt lat="43.3623" lon="-1.73583">
        <ele>110</ele>
        <time>2026-08-23T13:01:10.000Z</time>
      </trkpt>
      <trkpt lat="43.36184" lon="-1.7364">
        <ele>105</ele>
        <time>2026-08-23T13:01:22.000Z</time>
      </trkpt>
      <trkpt lat="43.36172" lon="-1.73674">
        <ele>106</ele>
        <time>2026-08-23T13:01:26.000Z</time>
      </trkpt>
      <trkpt lat="43.36152" lon="-1.73703">
        <ele>104</ele>
        <time>2026-08-23T13:01:32.000Z</time>
      </trkpt>
      <trkpt lat="43.36106" lon="-1.73753">
        <ele>103</ele>
        <time>2026-08-23T13:01:42.000Z</time>
      </trkpt>
      <trkpt lat="43.36057" lon="-1.73812">
        <ele>105</ele>
        <time>2026-08-23T13:01:54.000Z</time>
      </trkpt>
      <trkpt lat="43.36033" lon="-1.73859">
        <ele>106</ele>
        <time>2026-08-23T13:02:01.000Z</time>
      </trkpt>
      <trkpt lat="43.36" lon="-1.73906">
        <ele>109</ele>
        <time>2026-08-23T13:02:09.000Z</time>
      </trkpt>
      <trkpt lat="43.35897" lon="-1.74016">
        <ele>110</ele>
        <time>2026-08-23T13:02:33.000Z</time>
      </trkpt>
      <trkpt lat="43.35877" lon="-1.74034">
        <ele>108</ele>
        <time>2026-08-23T13:02:37.000Z</time>
      </trkpt>
      <trkpt lat="43.3582" lon="-1.74065">
        <ele>106</ele>
        <time>2026-08-23T13:02:48.000Z</time>
      </trkpt>
      <trkpt lat="43.35754" lon="-1.74108">
        <ele>105</ele>
        <time>2026-08-23T13:03:01.000Z</time>
      </trkpt>
      <trkpt lat="43.35742" lon="-1.74111">
        <ele>106</ele>
        <time>2026-08-23T13:03:03.000Z</time>
      </trkpt>
      <trkpt lat="43.35664" lon="-1.74111">
        <ele>111</ele>
        <time>2026-08-23T13:03:17.000Z</time>
      </trkpt>
      <trkpt lat="43.3564" lon="-1.74137">
        <ele>115</ele>
        <time>2026-08-23T13:03:22.000Z</time>
      </trkpt>
      <trkpt lat="43.35634" lon="-1.74155">
        <ele>117</ele>
        <time>2026-08-23T13:03:25.000Z</time>
      </trkpt>
      <trkpt lat="43.35633" lon="-1.74186">
        <ele>118</ele>
        <time>2026-08-23T13:03:29.000Z</time>
      </trkpt>
      <trkpt lat="43.35638" lon="-1.74268">
        <ele>119</ele>
        <time>2026-08-23T13:03:40.000Z</time>
      </trkpt>
      <trkpt lat="43.35647" lon="-1.74292">
        <ele>118</ele>
        <time>2026-08-23T13:03:43.000Z</time>
      </trkpt>
      <trkpt lat="43.35659" lon="-1.74325">
        <ele>117</ele>
        <time>2026-08-23T13:03:48.000Z</time>
      </trkpt>
      <trkpt lat="43.35666" lon="-1.74368">
        <ele>117</ele>
        <time>2026-08-23T13:03:53.000Z</time>
      </trkpt>
      <trkpt lat="43.35662" lon="-1.74377">
        <ele>117</ele>
        <time>2026-08-23T13:03:55.000Z</time>
      </trkpt>
      <trkpt lat="43.35635" lon="-1.7435">
        <ele>119</ele>
        <time>2026-08-23T13:04:01.000Z</time>
      </trkpt>
      <trkpt lat="43.35631" lon="-1.74345">
        <ele>120</ele>
        <time>2026-08-23T13:04:02.000Z</time>
      </trkpt>
      <trkpt lat="43.35619" lon="-1.74322">
        <ele>122</ele>
        <time>2026-08-23T13:04:05.000Z</time>
      </trkpt>
      <trkpt lat="43.35591" lon="-1.74242">
        <ele>127</ele>
        <time>2026-08-23T13:04:17.000Z</time>
      </trkpt>
      <trkpt lat="43.3558" lon="-1.74223">
        <ele>127</ele>
        <time>2026-08-23T13:04:20.000Z</time>
      </trkpt>
      <trkpt lat="43.3556" lon="-1.74205">
        <ele>129</ele>
        <time>2026-08-23T13:04:24.000Z</time>
      </trkpt>
      <trkpt lat="43.35541" lon="-1.74195">
        <ele>131</ele>
        <time>2026-08-23T13:04:28.000Z</time>
      </trkpt>
      <trkpt lat="43.35477" lon="-1.74163">
        <ele>138</ele>
        <time>2026-08-23T13:04:40.000Z</time>
      </trkpt>
      <trkpt lat="43.35447" lon="-1.74151">
        <ele>140</ele>
        <time>2026-08-23T13:04:46.000Z</time>
      </trkpt>
      <trkpt lat="43.35401" lon="-1.74143">
        <ele>143</ele>
        <time>2026-08-23T13:04:54.000Z</time>
      </trkpt>
      <trkpt lat="43.35387" lon="-1.74134">
        <ele>144</ele>
        <time>2026-08-23T13:04:57.000Z</time>
      </trkpt>
      <trkpt lat="43.35375" lon="-1.74119">
        <ele>144</ele>
        <time>2026-08-23T13:04:59.000Z</time>
      </trkpt>
      <trkpt lat="43.35319" lon="-1.7399">
        <ele>138</ele>
        <time>2026-08-23T13:05:19.000Z</time>
      </trkpt>
      <trkpt lat="43.35277" lon="-1.73896">
        <ele>132</ele>
        <time>2026-08-23T13:05:33.000Z</time>
      </trkpt>
      <trkpt lat="43.35269" lon="-1.73887">
        <ele>132</ele>
        <time>2026-08-23T13:05:35.000Z</time>
      </trkpt>
      <trkpt lat="43.3526" lon="-1.73882">
        <ele>133</ele>
        <time>2026-08-23T13:05:37.000Z</time>
      </trkpt>
      <trkpt lat="43.3523" lon="-1.73882">
        <ele>134</ele>
        <time>2026-08-23T13:05:42.000Z</time>
      </trkpt>
      <trkpt lat="43.35229" lon="-1.73889">
        <ele>134</ele>
        <time>2026-08-23T13:05:43.000Z</time>
      </trkpt>
      <trkpt lat="43.35225" lon="-1.73901">
        <ele>133</ele>
        <time>2026-08-23T13:05:45.000Z</time>
      </trkpt>
      <trkpt lat="43.35216" lon="-1.73906">
        <ele>133</ele>
        <time>2026-08-23T13:05:46.000Z</time>
      </trkpt>
      <trkpt lat="43.35206" lon="-1.73904">
        <ele>132</ele>
        <time>2026-08-23T13:05:48.000Z</time>
      </trkpt>
      <trkpt lat="43.35202" lon="-1.739">
        <ele>132</ele>
        <time>2026-08-23T13:05:49.000Z</time>
      </trkpt>
      <trkpt lat="43.35197" lon="-1.73888">
        <ele>132</ele>
        <time>2026-08-23T13:05:51.000Z</time>
      </trkpt>
      <trkpt lat="43.35173" lon="-1.73885">
        <ele>131</ele>
        <time>2026-08-23T13:05:55.000Z</time>
      </trkpt>
      <trkpt lat="43.35159" lon="-1.73878">
        <ele>130</ele>
        <time>2026-08-23T13:05:58.000Z</time>
      </trkpt>
      <trkpt lat="43.35087" lon="-1.73823">
        <ele>128</ele>
        <time>2026-08-23T13:06:13.000Z</time>
      </trkpt>
      <trkpt lat="43.35072" lon="-1.73812">
        <ele>130</ele>
        <time>2026-08-23T13:06:16.000Z</time>
      </trkpt>
      <trkpt lat="43.35056" lon="-1.73808">
        <ele>131</ele>
        <time>2026-08-23T13:06:18.000Z</time>
      </trkpt>
      <trkpt lat="43.3504" lon="-1.73815">
        <ele>131</ele>
        <time>2026-08-23T13:06:21.000Z</time>
      </trkpt>
      <trkpt lat="43.3503" lon="-1.73823">
        <ele>130</ele>
        <time>2026-08-23T13:06:23.000Z</time>
      </trkpt>
      <trkpt lat="43.35017" lon="-1.73846">
        <ele>128</ele>
        <time>2026-08-23T13:06:27.000Z</time>
      </trkpt>
      <trkpt lat="43.35013" lon="-1.73873">
        <ele>125</ele>
        <time>2026-08-23T13:06:31.000Z</time>
      </trkpt>
      <trkpt lat="43.35005" lon="-1.73982">
        <ele>117</ele>
        <time>2026-08-23T13:06:45.000Z</time>
      </trkpt>
      <trkpt lat="43.34987" lon="-1.74173">
        <ele>110</ele>
        <time>2026-08-23T13:07:10.000Z</time>
      </trkpt>
      <trkpt lat="43.34967" lon="-1.74279">
        <ele>97</ele>
        <time>2026-08-23T13:07:24.000Z</time>
      </trkpt>
      <trkpt lat="43.34968" lon="-1.74449">
        <ele>89</ele>
        <time>2026-08-23T13:07:46.000Z</time>
      </trkpt>
      <trkpt lat="43.34969" lon="-1.74492">
        <ele>86</ele>
        <time>2026-08-23T13:07:52.000Z</time>
      </trkpt>
      <trkpt lat="43.34974" lon="-1.74554">
        <ele>88</ele>
        <time>2026-08-23T13:08:00.000Z</time>
      </trkpt>
      <trkpt lat="43.35013" lon="-1.74731">
        <ele>87</ele>
        <time>2026-08-23T13:08:24.000Z</time>
      </trkpt>
      <trkpt lat="43.35018" lon="-1.74765">
        <ele>87</ele>
        <time>2026-08-23T13:08:28.000Z</time>
      </trkpt>
      <trkpt lat="43.35016" lon="-1.74805">
        <ele>87</ele>
        <time>2026-08-23T13:08:33.000Z</time>
      </trkpt>
      <trkpt lat="43.35006" lon="-1.74836">
        <ele>86</ele>
        <time>2026-08-23T13:08:38.000Z</time>
      </trkpt>
      <trkpt lat="43.3499" lon="-1.74857">
        <ele>85</ele>
        <time>2026-08-23T13:08:42.000Z</time>
      </trkpt>
      <trkpt lat="43.34974" lon="-1.74869">
        <ele>83</ele>
        <time>2026-08-23T13:08:45.000Z</time>
      </trkpt>
      <trkpt lat="43.34954" lon="-1.74877">
        <ele>80</ele>
        <time>2026-08-23T13:08:49.000Z</time>
      </trkpt>
      <trkpt lat="43.34923" lon="-1.7488">
        <ele>75</ele>
        <time>2026-08-23T13:08:54.000Z</time>
      </trkpt>
      <trkpt lat="43.34887" lon="-1.74885">
        <ele>73</ele>
        <time>2026-08-23T13:09:01.000Z</time>
      </trkpt>
      <trkpt lat="43.3487" lon="-1.74887">
        <ele>72</ele>
        <time>2026-08-23T13:09:04.000Z</time>
      </trkpt>
      <trkpt lat="43.34864" lon="-1.74887">
        <ele>72</ele>
        <time>2026-08-23T13:09:05.000Z</time>
      </trkpt>
      <trkpt lat="43.3484" lon="-1.7489">
        <ele>70</ele>
        <time>2026-08-23T13:09:09.000Z</time>
      </trkpt>
      <trkpt lat="43.34801" lon="-1.74895">
        <ele>71</ele>
        <time>2026-08-23T13:09:16.000Z</time>
      </trkpt>
      <trkpt lat="43.34786" lon="-1.74896">
        <ele>71</ele>
        <time>2026-08-23T13:09:19.000Z</time>
      </trkpt>
      <trkpt lat="43.34755" lon="-1.74916">
        <ele>72</ele>
        <time>2026-08-23T13:09:25.000Z</time>
      </trkpt>
      <trkpt lat="43.34722" lon="-1.74959">
        <ele>67</ele>
        <time>2026-08-23T13:09:33.000Z</time>
      </trkpt>
      <trkpt lat="43.34687" lon="-1.75012">
        <ele>65</ele>
        <time>2026-08-23T13:09:42.000Z</time>
      </trkpt>
      <trkpt lat="43.34656" lon="-1.75066">
        <ele>63</ele>
        <time>2026-08-23T13:09:51.000Z</time>
      </trkpt>
      <trkpt lat="43.34635" lon="-1.75109">
        <ele>62</ele>
        <time>2026-08-23T13:09:58.000Z</time>
      </trkpt>
      <trkpt lat="43.34617" lon="-1.75159">
        <ele>61</ele>
        <time>2026-08-23T13:10:05.000Z</time>
      </trkpt>
      <trkpt lat="43.3461" lon="-1.75185">
        <ele>61</ele>
        <time>2026-08-23T13:10:08.000Z</time>
      </trkpt>
      <trkpt lat="43.34609" lon="-1.75219">
        <ele>61</ele>
        <time>2026-08-23T13:10:13.000Z</time>
      </trkpt>
      <trkpt lat="43.3461" lon="-1.7523">
        <ele>60</ele>
        <time>2026-08-23T13:10:14.000Z</time>
      </trkpt>
      <trkpt lat="43.34661" lon="-1.75753">
        <ele>32</ele>
        <time>2026-08-23T13:11:23.000Z</time>
      </trkpt>
      <trkpt lat="43.34685" lon="-1.75998">
        <ele>19</ele>
        <time>2026-08-23T13:11:55.000Z</time>
      </trkpt>
      <trkpt lat="43.34688" lon="-1.76045">
        <ele>17</ele>
        <time>2026-08-23T13:12:01.000Z</time>
      </trkpt>
      <trkpt lat="43.34686" lon="-1.76066">
        <ele>16</ele>
        <time>2026-08-23T13:12:03.000Z</time>
      </trkpt>
      <trkpt lat="43.34684" lon="-1.76074">
        <ele>15</ele>
        <time>2026-08-23T13:12:04.000Z</time>
      </trkpt>
      <trkpt lat="43.34677" lon="-1.76093">
        <ele>14</ele>
        <time>2026-08-23T13:12:07.000Z</time>
      </trkpt>
      <trkpt lat="43.3466" lon="-1.76119">
        <ele>13</ele>
        <time>2026-08-23T13:12:12.000Z</time>
      </trkpt>
      <trkpt lat="43.34595" lon="-1.76206">
        <ele>11</ele>
        <time>2026-08-23T13:12:28.000Z</time>
      </trkpt>
      <trkpt lat="43.34584" lon="-1.76218">
        <ele>10</ele>
        <time>2026-08-23T13:12:30.000Z</time>
      </trkpt>
      <trkpt lat="43.34575" lon="-1.76231">
        <ele>8</ele>
        <time>2026-08-23T13:12:33.000Z</time>
      </trkpt>
      <trkpt lat="43.3457" lon="-1.76249">
        <ele>7</ele>
        <time>2026-08-23T13:12:35.000Z</time>
      </trkpt>
      <trkpt lat="43.3457" lon="-1.76255">
        <ele>7</ele>
        <time>2026-08-23T13:12:36.000Z</time>
      </trkpt>
      <trkpt lat="43.34564" lon="-1.76265">
        <ele>6</ele>
        <time>2026-08-23T13:12:38.000Z</time>
      </trkpt>
      <trkpt lat="43.34558" lon="-1.76266">
        <ele>6</ele>
        <time>2026-08-23T13:12:39.000Z</time>
      </trkpt>
      <trkpt lat="43.34552" lon="-1.76262">
        <ele>6</ele>
        <time>2026-08-23T13:12:40.000Z</time>
      </trkpt>
      <trkpt lat="43.34549" lon="-1.76252">
        <ele>6</ele>
        <time>2026-08-23T13:12:41.000Z</time>
      </trkpt>
      <trkpt lat="43.34544" lon="-1.7625">
        <ele>6</ele>
        <time>2026-08-23T13:12:42.000Z</time>
      </trkpt>
      <trkpt lat="43.34474" lon="-1.76171">
        <ele>5</ele>
        <time>2026-08-23T13:12:58.000Z</time>
      </trkpt>
      <trkpt lat="43.34455" lon="-1.76153">
        <ele>5</ele>
        <time>2026-08-23T13:13:02.000Z</time>
      </trkpt>
      <trkpt lat="43.34448" lon="-1.76153">
        <ele>4</ele>
        <time>2026-08-23T13:13:04.000Z</time>
      </trkpt>
      <trkpt lat="43.34441" lon="-1.76147">
        <ele>4</ele>
        <time>2026-08-23T13:13:05.000Z</time>
      </trkpt>
      <trkpt lat="43.34439" lon="-1.76142">
        <ele>4</ele>
        <time>2026-08-23T13:13:06.000Z</time>
      </trkpt>
      <trkpt lat="43.3443" lon="-1.76128">
        <ele>4</ele>
        <time>2026-08-23T13:13:08.000Z</time>
      </trkpt>
      <trkpt lat="43.3442" lon="-1.76118">
        <ele>2</ele>
        <time>2026-08-23T13:13:11.000Z</time>
      </trkpt>
      <trkpt lat="43.34391" lon="-1.76086">
        <ele>3</ele>
        <time>2026-08-23T13:13:17.000Z</time>
      </trkpt>
      <trkpt lat="43.34389" lon="-1.76084">
        <ele>3</ele>
        <time>2026-08-23T13:13:18.000Z</time>
      </trkpt>
      <trkpt lat="43.34379" lon="-1.76077">
        <ele>3</ele>
        <time>2026-08-23T13:13:20.000Z</time>
      </trkpt>
      <trkpt lat="43.3436" lon="-1.76059">
        <ele>3</ele>
        <time>2026-08-23T13:13:24.000Z</time>
      </trkpt>
      <trkpt lat="43.3432" lon="-1.76031">
        <ele>3</ele>
        <time>2026-08-23T13:13:32.000Z</time>
      </trkpt>
      <trkpt lat="43.34294" lon="-1.76017">
        <ele>2</ele>
        <time>2026-08-23T13:13:37.000Z</time>
      </trkpt>
      <trkpt lat="43.34285" lon="-1.76015">
        <ele>2</ele>
        <time>2026-08-23T13:13:38.000Z</time>
      </trkpt>
      <trkpt lat="43.34275" lon="-1.76018">
        <ele>2</ele>
        <time>2026-08-23T13:13:40.000Z</time>
      </trkpt>
      <trkpt lat="43.34264" lon="-1.76027">
        <ele>2</ele>
        <time>2026-08-23T13:13:42.000Z</time>
      </trkpt>
      <trkpt lat="43.34256" lon="-1.76035">
        <ele>2</ele>
        <time>2026-08-23T13:13:44.000Z</time>
      </trkpt>
      <trkpt lat="43.34249" lon="-1.76039">
        <ele>2</ele>
        <time>2026-08-23T13:13:45.000Z</time>
      </trkpt>
      <trkpt lat="43.34241" lon="-1.76038">
        <ele>2</ele>
        <time>2026-08-23T13:13:47.000Z</time>
      </trkpt>
      <trkpt lat="43.34234" lon="-1.76035">
        <ele>2</ele>
        <time>2026-08-23T13:13:48.000Z</time>
      </trkpt>
      <trkpt lat="43.34227" lon="-1.76028">
        <ele>3</ele>
        <time>2026-08-23T13:13:50.000Z</time>
      </trkpt>
      <trkpt lat="43.34223" lon="-1.76019">
        <ele>3</ele>
        <time>2026-08-23T13:13:51.000Z</time>
      </trkpt>
      <trkpt lat="43.34221" lon="-1.76009">
        <ele>3</ele>
        <time>2026-08-23T13:13:52.000Z</time>
      </trkpt>
      <trkpt lat="43.34201" lon="-1.75985">
        <ele>3</ele>
        <time>2026-08-23T13:13:57.000Z</time>
      </trkpt>
      <trkpt lat="43.34182" lon="-1.75958">
        <ele>3</ele>
        <time>2026-08-23T13:14:02.000Z</time>
      </trkpt>
      <trkpt lat="43.34164" lon="-1.75929">
        <ele>3</ele>
        <time>2026-08-23T13:14:07.000Z</time>
      </trkpt>
      <trkpt lat="43.34145" lon="-1.75903">
        <ele>5</ele>
        <time>2026-08-23T13:14:12.000Z</time>
      </trkpt>
      <trkpt lat="43.3413" lon="-1.75888">
        <ele>6</ele>
        <time>2026-08-23T13:14:15.000Z</time>
      </trkpt>
      <trkpt lat="43.34114" lon="-1.75878">
        <ele>7</ele>
        <time>2026-08-23T13:14:18.000Z</time>
      </trkpt>
      <trkpt lat="43.34104" lon="-1.75884">
        <ele>8</ele>
        <time>2026-08-23T13:14:20.000Z</time>
      </trkpt>
      <trkpt lat="43.34093" lon="-1.75882">
        <ele>9</ele>
        <time>2026-08-23T13:14:22.000Z</time>
      </trkpt>
      <trkpt lat="43.34086" lon="-1.75909">
        <ele>10</ele>
        <time>2026-08-23T13:14:26.000Z</time>
      </trkpt>
      <trkpt lat="43.34093" lon="-1.75917">
        <ele>9</ele>
        <time>2026-08-23T13:14:27.000Z</time>
      </trkpt>
      <trkpt lat="43.341" lon="-1.75923">
        <ele>9</ele>
        <time>2026-08-23T13:14:29.000Z</time>
      </trkpt>
      <trkpt lat="43.34104" lon="-1.75929">
        <ele>8</ele>
        <time>2026-08-23T13:14:30.000Z</time>
      </trkpt>
      <trkpt lat="43.34117" lon="-1.7597">
        <ele>7</ele>
        <time>2026-08-23T13:14:36.000Z</time>
      </trkpt>
      <trkpt lat="43.3412" lon="-1.7598">
        <ele>7</ele>
        <time>2026-08-23T13:14:37.000Z</time>
      </trkpt>
      <trkpt lat="43.3416" lon="-1.7609">
        <ele>5</ele>
        <time>2026-08-23T13:14:53.000Z</time>
      </trkpt>
      <trkpt lat="43.34177" lon="-1.76145">
        <ele>5</ele>
        <time>2026-08-23T13:15:01.000Z</time>
      </trkpt>
      <trkpt lat="43.34199" lon="-1.76236">
        <ele>8</ele>
        <time>2026-08-23T13:15:13.000Z</time>
      </trkpt>
      <trkpt lat="43.34226" lon="-1.76324">
        <ele>8</ele>
        <time>2026-08-23T13:15:26.000Z</time>
      </trkpt>
      <trkpt lat="43.34232" lon="-1.76335">
        <ele>7</ele>
        <time>2026-08-23T13:15:27.000Z</time>
      </trkpt>
      <trkpt lat="43.34231" lon="-1.76342">
        <ele>7</ele>
        <time>2026-08-23T13:15:28.000Z</time>
      </trkpt>
      <trkpt lat="43.34198" lon="-1.76386">
        <ele>12</ele>
        <time>2026-08-23T13:15:36.000Z</time>
      </trkpt>
      <trkpt lat="43.34183" lon="-1.76404">
        <ele>15</ele>
        <time>2026-08-23T13:15:40.000Z</time>
      </trkpt>
      <trkpt lat="43.34174" lon="-1.76431">
        <ele>16</ele>
        <time>2026-08-23T13:15:44.000Z</time>
      </trkpt>
      <trkpt lat="43.34152" lon="-1.76453">
        <ele>19</ele>
        <time>2026-08-23T13:15:49.000Z</time>
      </trkpt>
      <trkpt lat="43.34129" lon="-1.76471">
        <ele>23</ele>
        <time>2026-08-23T13:15:53.000Z</time>
      </trkpt>
      <trkpt lat="43.34123" lon="-1.76484">
        <ele>25</ele>
        <time>2026-08-23T13:15:55.000Z</time>
      </trkpt>
      <trkpt lat="43.34112" lon="-1.76532">
        <ele>29</ele>
        <time>2026-08-23T13:16:02.000Z</time>
      </trkpt>
      <trkpt lat="43.34106" lon="-1.76545">
        <ele>30</ele>
        <time>2026-08-23T13:16:04.000Z</time>
      </trkpt>
      <trkpt lat="43.34096" lon="-1.7656">
        <ele>33</ele>
        <time>2026-08-23T13:16:07.000Z</time>
      </trkpt>
      <trkpt lat="43.34091" lon="-1.76572">
        <ele>34</ele>
        <time>2026-08-23T13:16:08.000Z</time>
      </trkpt>
      <trkpt lat="43.34089" lon="-1.76585">
        <ele>35</ele>
        <time>2026-08-23T13:16:10.000Z</time>
      </trkpt>
      <trkpt lat="43.34089" lon="-1.7661">
        <ele>35</ele>
        <time>2026-08-23T13:16:13.000Z</time>
      </trkpt>
      <trkpt lat="43.34088" lon="-1.76619">
        <ele>35</ele>
        <time>2026-08-23T13:16:14.000Z</time>
      </trkpt>
      <trkpt lat="43.3408" lon="-1.76631">
        <ele>37</ele>
        <time>2026-08-23T13:16:17.000Z</time>
      </trkpt>
      <trkpt lat="43.34068" lon="-1.76637">
        <ele>37</ele>
        <time>2026-08-23T13:16:19.000Z</time>
      </trkpt>
      <trkpt lat="43.34059" lon="-1.76637">
        <ele>37</ele>
        <time>2026-08-23T13:16:20.000Z</time>
      </trkpt>
      <trkpt lat="43.34049" lon="-1.76632">
        <ele>37</ele>
        <time>2026-08-23T13:16:22.000Z</time>
      </trkpt>
      <trkpt lat="43.3404" lon="-1.76623">
        <ele>36</ele>
        <time>2026-08-23T13:16:24.000Z</time>
      </trkpt>
      <trkpt lat="43.34031" lon="-1.7662">
        <ele>36</ele>
        <time>2026-08-23T13:16:26.000Z</time>
      </trkpt>
      <trkpt lat="43.34021" lon="-1.76623">
        <ele>36</ele>
        <time>2026-08-23T13:16:28.000Z</time>
      </trkpt>
      <trkpt lat="43.34014" lon="-1.76632">
        <ele>37</ele>
        <time>2026-08-23T13:16:29.000Z</time>
      </trkpt>
      <trkpt lat="43.34004" lon="-1.76657">
        <ele>38</ele>
        <time>2026-08-23T13:16:33.000Z</time>
      </trkpt>
      <trkpt lat="43.3399" lon="-1.76702">
        <ele>38</ele>
        <time>2026-08-23T13:16:39.000Z</time>
      </trkpt>
      <trkpt lat="43.33953" lon="-1.76774">
        <ele>39</ele>
        <time>2026-08-23T13:16:51.000Z</time>
      </trkpt>
      <trkpt lat="43.33931" lon="-1.76833">
        <ele>40</ele>
        <time>2026-08-23T13:16:59.000Z</time>
      </trkpt>
      <trkpt lat="43.3392" lon="-1.76853">
        <ele>39</ele>
        <time>2026-08-23T13:17:03.000Z</time>
      </trkpt>
      <trkpt lat="43.33911" lon="-1.76862">
        <ele>38</ele>
        <time>2026-08-23T13:17:05.000Z</time>
      </trkpt>
      <trkpt lat="43.33886" lon="-1.76895">
        <ele>38</ele>
        <time>2026-08-23T13:17:11.000Z</time>
      </trkpt>
      <trkpt lat="43.33837" lon="-1.7697">
        <ele>42</ele>
        <time>2026-08-23T13:17:24.000Z</time>
      </trkpt>
      <trkpt lat="43.33819" lon="-1.77023">
        <ele>45</ele>
        <time>2026-08-23T13:17:31.000Z</time>
      </trkpt>
      <trkpt lat="43.33815" lon="-1.77037">
        <ele>46</ele>
        <time>2026-08-23T13:17:33.000Z</time>
      </trkpt>
      <trkpt lat="43.33813" lon="-1.77055">
        <ele>47</ele>
        <time>2026-08-23T13:17:36.000Z</time>
      </trkpt>
      <trkpt lat="43.33817" lon="-1.77072">
        <ele>46</ele>
        <time>2026-08-23T13:17:38.000Z</time>
      </trkpt>
      <trkpt lat="43.33825" lon="-1.7709">
        <ele>46</ele>
        <time>2026-08-23T13:17:41.000Z</time>
      </trkpt>
      <trkpt lat="43.33826" lon="-1.77097">
        <ele>46</ele>
        <time>2026-08-23T13:17:42.000Z</time>
      </trkpt>
      <trkpt lat="43.33824" lon="-1.77103">
        <ele>47</ele>
        <time>2026-08-23T13:17:43.000Z</time>
      </trkpt>
      <trkpt lat="43.33822" lon="-1.77106">
        <ele>47</ele>
        <time>2026-08-23T13:17:43.000Z</time>
      </trkpt>
      <trkpt lat="43.33816" lon="-1.77109">
        <ele>48</ele>
        <time>2026-08-23T13:17:44.000Z</time>
      </trkpt>
      <trkpt lat="43.33813" lon="-1.77107">
        <ele>48</ele>
        <time>2026-08-23T13:17:45.000Z</time>
      </trkpt>
      <trkpt lat="43.33804" lon="-1.7708">
        <ele>48</ele>
        <time>2026-08-23T13:17:49.000Z</time>
      </trkpt>
      <trkpt lat="43.33796" lon="-1.77066">
        <ele>49</ele>
        <time>2026-08-23T13:17:51.000Z</time>
      </trkpt>
      <trkpt lat="43.33741" lon="-1.77036">
        <ele>53</ele>
        <time>2026-08-23T13:18:02.000Z</time>
      </trkpt>
      <trkpt lat="43.33722" lon="-1.77029">
        <ele>54</ele>
        <time>2026-08-23T13:18:05.000Z</time>
      </trkpt>
      <trkpt lat="43.33713" lon="-1.77027">
        <ele>54</ele>
        <time>2026-08-23T13:18:07.000Z</time>
      </trkpt>
      <trkpt lat="43.33686" lon="-1.77027">
        <ele>55</ele>
        <time>2026-08-23T13:18:11.000Z</time>
      </trkpt>
      <trkpt lat="43.33661" lon="-1.77025">
        <ele>55</ele>
        <time>2026-08-23T13:18:16.000Z</time>
      </trkpt>
      <trkpt lat="43.33645" lon="-1.7702">
        <ele>53</ele>
        <time>2026-08-23T13:18:19.000Z</time>
      </trkpt>
      <trkpt lat="43.33629" lon="-1.77012">
        <ele>51</ele>
        <time>2026-08-23T13:18:22.000Z</time>
      </trkpt>
      <trkpt lat="43.33597" lon="-1.76987">
        <ele>47</ele>
        <time>2026-08-23T13:18:28.000Z</time>
      </trkpt>
      <trkpt lat="43.33587" lon="-1.76983">
        <ele>47</ele>
        <time>2026-08-23T13:18:30.000Z</time>
      </trkpt>
      <trkpt lat="43.33578" lon="-1.76982">
        <ele>46</ele>
        <time>2026-08-23T13:18:32.000Z</time>
      </trkpt>
      <trkpt lat="43.33536" lon="-1.76978">
        <ele>48</ele>
        <time>2026-08-23T13:18:39.000Z</time>
      </trkpt>
      <trkpt lat="43.33503" lon="-1.76972">
        <ele>50</ele>
        <time>2026-08-23T13:18:45.000Z</time>
      </trkpt>
      <trkpt lat="43.33489" lon="-1.76963">
        <ele>54</ele>
        <time>2026-08-23T13:18:48.000Z</time>
      </trkpt>
      <trkpt lat="43.33482" lon="-1.76955">
        <ele>56</ele>
        <time>2026-08-23T13:18:50.000Z</time>
      </trkpt>
      <trkpt lat="43.33476" lon="-1.76942">
        <ele>60</ele>
        <time>2026-08-23T13:18:52.000Z</time>
      </trkpt>
      <trkpt lat="43.33473" lon="-1.7693">
        <ele>62</ele>
        <time>2026-08-23T13:18:53.000Z</time>
      </trkpt>
      <trkpt lat="43.33472" lon="-1.76915">
        <ele>64</ele>
        <time>2026-08-23T13:18:55.000Z</time>
      </trkpt>
      <trkpt lat="43.33475" lon="-1.76895">
        <ele>66</ele>
        <time>2026-08-23T13:18:58.000Z</time>
      </trkpt>
      <trkpt lat="43.33482" lon="-1.76877">
        <ele>67</ele>
        <time>2026-08-23T13:19:01.000Z</time>
      </trkpt>
      <trkpt lat="43.3349" lon="-1.7686">
        <ele>67</ele>
        <time>2026-08-23T13:19:03.000Z</time>
      </trkpt>
      <trkpt lat="43.33505" lon="-1.76839">
        <ele>65</ele>
        <time>2026-08-23T13:19:07.000Z</time>
      </trkpt>
      <trkpt lat="43.33511" lon="-1.7682">
        <ele>66</ele>
        <time>2026-08-23T13:19:10.000Z</time>
      </trkpt>
      <trkpt lat="43.33514" lon="-1.76814">
        <ele>65</ele>
        <time>2026-08-23T13:19:11.000Z</time>
      </trkpt>
      <trkpt lat="43.33511" lon="-1.76776">
        <ele>68</ele>
        <time>2026-08-23T13:19:16.000Z</time>
      </trkpt>
      <trkpt lat="43.33499" lon="-1.76749">
        <ele>73</ele>
        <time>2026-08-23T13:19:20.000Z</time>
      </trkpt>
      <trkpt lat="43.33477" lon="-1.76714">
        <ele>78</ele>
        <time>2026-08-23T13:19:26.000Z</time>
      </trkpt>
      <trkpt lat="43.33465" lon="-1.76672">
        <ele>80</ele>
        <time>2026-08-23T13:19:31.000Z</time>
      </trkpt>
      <trkpt lat="43.33461" lon="-1.76668">
        <ele>81</ele>
        <time>2026-08-23T13:19:32.000Z</time>
      </trkpt>
      <trkpt lat="43.33452" lon="-1.7667">
        <ele>84</ele>
        <time>2026-08-23T13:19:34.000Z</time>
      </trkpt>
      <trkpt lat="43.3345" lon="-1.76675">
        <ele>85</ele>
        <time>2026-08-23T13:19:35.000Z</time>
      </trkpt>
      <trkpt lat="43.33449" lon="-1.76684">
        <ele>85</ele>
        <time>2026-08-23T13:19:36.000Z</time>
      </trkpt>
      <trkpt lat="43.33452" lon="-1.76697">
        <ele>85</ele>
        <time>2026-08-23T13:19:38.000Z</time>
      </trkpt>
      <trkpt lat="43.33453" lon="-1.76724">
        <ele>86</ele>
        <time>2026-08-23T13:19:41.000Z</time>
      </trkpt>
      <trkpt lat="43.33445" lon="-1.76779">
        <ele>87</ele>
        <time>2026-08-23T13:19:48.000Z</time>
      </trkpt>
      <trkpt lat="43.33438" lon="-1.76807">
        <ele>86</ele>
        <time>2026-08-23T13:19:52.000Z</time>
      </trkpt>
      <trkpt lat="43.33432" lon="-1.76816">
        <ele>87</ele>
        <time>2026-08-23T13:19:54.000Z</time>
      </trkpt>
      <trkpt lat="43.33422" lon="-1.7682">
        <ele>89</ele>
        <time>2026-08-23T13:19:56.000Z</time>
      </trkpt>
      <trkpt lat="43.33416" lon="-1.76818">
        <ele>91</ele>
        <time>2026-08-23T13:19:57.000Z</time>
      </trkpt>
      <trkpt lat="43.3341" lon="-1.76808">
        <ele>93</ele>
        <time>2026-08-23T13:19:58.000Z</time>
      </trkpt>
      <trkpt lat="43.33408" lon="-1.76803">
        <ele>94</ele>
        <time>2026-08-23T13:19:59.000Z</time>
      </trkpt>
      <trkpt lat="43.33408" lon="-1.76788">
        <ele>96</ele>
        <time>2026-08-23T13:20:01.000Z</time>
      </trkpt>
      <trkpt lat="43.33419" lon="-1.76719">
        <ele>96</ele>
        <time>2026-08-23T13:20:10.000Z</time>
      </trkpt>
      <trkpt lat="43.33421" lon="-1.76698">
        <ele>95</ele>
        <time>2026-08-23T13:20:13.000Z</time>
      </trkpt>
      <trkpt lat="43.3342" lon="-1.76689">
        <ele>95</ele>
        <time>2026-08-23T13:20:14.000Z</time>
      </trkpt>
      <trkpt lat="43.33415" lon="-1.76681">
        <ele>96</ele>
        <time>2026-08-23T13:20:16.000Z</time>
      </trkpt>
      <trkpt lat="43.33409" lon="-1.7668">
        <ele>98</ele>
        <time>2026-08-23T13:20:17.000Z</time>
      </trkpt>
      <trkpt lat="43.33402" lon="-1.76685">
        <ele>100</ele>
        <time>2026-08-23T13:20:18.000Z</time>
      </trkpt>
      <trkpt lat="43.33398" lon="-1.76696">
        <ele>101</ele>
        <time>2026-08-23T13:20:20.000Z</time>
      </trkpt>
      <trkpt lat="43.33387" lon="-1.76741">
        <ele>104</ele>
        <time>2026-08-23T13:20:26.000Z</time>
      </trkpt>
      <trkpt lat="43.3338" lon="-1.76751">
        <ele>105</ele>
        <time>2026-08-23T13:20:28.000Z</time>
      </trkpt>
      <trkpt lat="43.33342" lon="-1.76793">
        <ele>111</ele>
        <time>2026-08-23T13:20:36.000Z</time>
      </trkpt>
      <trkpt lat="43.33274" lon="-1.76918">
        <ele>123</ele>
        <time>2026-08-23T13:20:56.000Z</time>
      </trkpt>
      <trkpt lat="43.33241" lon="-1.76984">
        <ele>125</ele>
        <time>2026-08-23T13:21:07.000Z</time>
      </trkpt>
      <trkpt lat="43.33228" lon="-1.77002">
        <ele>125</ele>
        <time>2026-08-23T13:21:10.000Z</time>
      </trkpt>
      <trkpt lat="43.3322" lon="-1.77014">
        <ele>124</ele>
        <time>2026-08-23T13:21:12.000Z</time>
      </trkpt>
      <trkpt lat="43.33203" lon="-1.77019">
        <ele>125</ele>
        <time>2026-08-23T13:21:15.000Z</time>
      </trkpt>
      <trkpt lat="43.33195" lon="-1.77016">
        <ele>127</ele>
        <time>2026-08-23T13:21:17.000Z</time>
      </trkpt>
      <trkpt lat="43.33188" lon="-1.77011">
        <ele>128</ele>
        <time>2026-08-23T13:21:18.000Z</time>
      </trkpt>
      <trkpt lat="43.33116" lon="-1.76912">
        <ele>149</ele>
        <time>2026-08-23T13:21:36.000Z</time>
      </trkpt>
      <trkpt lat="43.33105" lon="-1.76903">
        <ele>151</ele>
        <time>2026-08-23T13:21:39.000Z</time>
      </trkpt>
      <trkpt lat="43.33097" lon="-1.76899">
        <ele>152</ele>
        <time>2026-08-23T13:21:40.000Z</time>
      </trkpt>
      <trkpt lat="43.33071" lon="-1.769">
        <ele>150</ele>
        <time>2026-08-23T13:21:45.000Z</time>
      </trkpt>
      <trkpt lat="43.33062" lon="-1.76897">
        <ele>148</ele>
        <time>2026-08-23T13:21:46.000Z</time>
      </trkpt>
      <trkpt lat="43.33046" lon="-1.7688">
        <ele>148</ele>
        <time>2026-08-23T13:21:50.000Z</time>
      </trkpt>
      <trkpt lat="43.3304" lon="-1.76871">
        <ele>148</ele>
        <time>2026-08-23T13:21:52.000Z</time>
      </trkpt>
      <trkpt lat="43.33038" lon="-1.76856">
        <ele>149</ele>
        <time>2026-08-23T13:21:53.000Z</time>
      </trkpt>
      <trkpt lat="43.33043" lon="-1.76847">
        <ele>152</ele>
        <time>2026-08-23T13:21:55.000Z</time>
      </trkpt>
      <trkpt lat="43.33048" lon="-1.76847">
        <ele>153</ele>
        <time>2026-08-23T13:21:56.000Z</time>
      </trkpt>
      <trkpt lat="43.33053" lon="-1.76848">
        <ele>154</ele>
        <time>2026-08-23T13:21:57.000Z</time>
      </trkpt>
      <trkpt lat="43.33065" lon="-1.76863">
        <ele>155</ele>
        <time>2026-08-23T13:22:00.000Z</time>
      </trkpt>
      <trkpt lat="43.33072" lon="-1.76867">
        <ele>156</ele>
        <time>2026-08-23T13:22:01.000Z</time>
      </trkpt>
      <trkpt lat="43.33078" lon="-1.76868">
        <ele>157</ele>
        <time>2026-08-23T13:22:02.000Z</time>
      </trkpt>
      <trkpt lat="43.33113" lon="-1.76861">
        <ele>159</ele>
        <time>2026-08-23T13:22:08.000Z</time>
      </trkpt>
      <trkpt lat="43.3314" lon="-1.7685">
        <ele>160</ele>
        <time>2026-08-23T13:22:13.000Z</time>
      </trkpt>
      <trkpt lat="43.33158" lon="-1.76828">
        <ele>164</ele>
        <time>2026-08-23T13:22:18.000Z</time>
      </trkpt>
      <trkpt lat="43.33182" lon="-1.76763">
        <ele>171</ele>
        <time>2026-08-23T13:22:27.000Z</time>
      </trkpt>
      <trkpt lat="43.33187" lon="-1.76745">
        <ele>173</ele>
        <time>2026-08-23T13:22:30.000Z</time>
      </trkpt>
      <trkpt lat="43.33191" lon="-1.7672">
        <ele>174</ele>
        <time>2026-08-23T13:22:33.000Z</time>
      </trkpt>
      <trkpt lat="43.33195" lon="-1.76695">
        <ele>176</ele>
        <time>2026-08-23T13:22:36.000Z</time>
      </trkpt>
      <trkpt lat="43.33194" lon="-1.76664">
        <ele>180</ele>
        <time>2026-08-23T13:22:40.000Z</time>
      </trkpt>
      <trkpt lat="43.33189" lon="-1.76596">
        <ele>183</ele>
        <time>2026-08-23T13:22:49.000Z</time>
      </trkpt>
      <trkpt lat="43.33171" lon="-1.76513">
        <ele>190</ele>
        <time>2026-08-23T13:23:00.000Z</time>
      </trkpt>
      <trkpt lat="43.3315" lon="-1.76451">
        <ele>190</ele>
        <time>2026-08-23T13:23:09.000Z</time>
      </trkpt>
      <trkpt lat="43.33134" lon="-1.76422">
        <ele>191</ele>
        <time>2026-08-23T13:23:14.000Z</time>
      </trkpt>
      <trkpt lat="43.33125" lon="-1.76416">
        <ele>193</ele>
        <time>2026-08-23T13:23:16.000Z</time>
      </trkpt>
      <trkpt lat="43.33121" lon="-1.76416">
        <ele>194</ele>
        <time>2026-08-23T13:23:16.000Z</time>
      </trkpt>
      <trkpt lat="43.33125" lon="-1.76416">
        <ele>193</ele>
        <time>2026-08-23T13:23:17.000Z</time>
      </trkpt>
      <trkpt lat="43.33134" lon="-1.76422">
        <ele>191</ele>
        <time>2026-08-23T13:23:19.000Z</time>
      </trkpt>
      <trkpt lat="43.3315" lon="-1.76451">
        <ele>190</ele>
        <time>2026-08-23T13:23:24.000Z</time>
      </trkpt>
      <trkpt lat="43.33171" lon="-1.76513">
        <ele>190</ele>
        <time>2026-08-23T13:23:32.000Z</time>
      </trkpt>
      <trkpt lat="43.33189" lon="-1.76596">
        <ele>183</ele>
        <time>2026-08-23T13:23:44.000Z</time>
      </trkpt>
      <trkpt lat="43.33194" lon="-1.76664">
        <ele>180</ele>
        <time>2026-08-23T13:23:52.000Z</time>
      </trkpt>
      <trkpt lat="43.33195" lon="-1.76695">
        <ele>176</ele>
        <time>2026-08-23T13:23:56.000Z</time>
      </trkpt>
      <trkpt lat="43.33191" lon="-1.7672">
        <ele>174</ele>
        <time>2026-08-23T13:24:00.000Z</time>
      </trkpt>
      <trkpt lat="43.33187" lon="-1.76745">
        <ele>173</ele>
        <time>2026-08-23T13:24:03.000Z</time>
      </trkpt>
      <trkpt lat="43.33182" lon="-1.76763">
        <ele>171</ele>
        <time>2026-08-23T13:24:06.000Z</time>
      </trkpt>
      <trkpt lat="43.33158" lon="-1.76828">
        <ele>164</ele>
        <time>2026-08-23T13:24:15.000Z</time>
      </trkpt>
      <trkpt lat="43.3314" lon="-1.7685">
        <ele>160</ele>
        <time>2026-08-23T13:24:19.000Z</time>
      </trkpt>
      <trkpt lat="43.33113" lon="-1.76861">
        <ele>159</ele>
        <time>2026-08-23T13:24:24.000Z</time>
      </trkpt>
      <trkpt lat="43.33078" lon="-1.76868">
        <ele>157</ele>
        <time>2026-08-23T13:24:31.000Z</time>
      </trkpt>
      <trkpt lat="43.33072" lon="-1.76867">
        <ele>156</ele>
        <time>2026-08-23T13:24:32.000Z</time>
      </trkpt>
      <trkpt lat="43.33065" lon="-1.76863">
        <ele>155</ele>
        <time>2026-08-23T13:24:33.000Z</time>
      </trkpt>
      <trkpt lat="43.33053" lon="-1.76848">
        <ele>154</ele>
        <time>2026-08-23T13:24:36.000Z</time>
      </trkpt>
      <trkpt lat="43.33048" lon="-1.76847">
        <ele>153</ele>
        <time>2026-08-23T13:24:37.000Z</time>
      </trkpt>
      <trkpt lat="43.33043" lon="-1.76847">
        <ele>152</ele>
        <time>2026-08-23T13:24:38.000Z</time>
      </trkpt>
      <trkpt lat="43.33038" lon="-1.76856">
        <ele>149</ele>
        <time>2026-08-23T13:24:39.000Z</time>
      </trkpt>
      <trkpt lat="43.3304" lon="-1.76871">
        <ele>148</ele>
        <time>2026-08-23T13:24:41.000Z</time>
      </trkpt>
      <trkpt lat="43.33046" lon="-1.7688">
        <ele>148</ele>
        <time>2026-08-23T13:24:43.000Z</time>
      </trkpt>
      <trkpt lat="43.33062" lon="-1.76897">
        <ele>148</ele>
        <time>2026-08-23T13:24:46.000Z</time>
      </trkpt>
      <trkpt lat="43.33071" lon="-1.769">
        <ele>150</ele>
        <time>2026-08-23T13:24:48.000Z</time>
      </trkpt>
      <trkpt lat="43.33097" lon="-1.76899">
        <ele>152</ele>
        <time>2026-08-23T13:24:53.000Z</time>
      </trkpt>
      <trkpt lat="43.33105" lon="-1.76903">
        <ele>151</ele>
        <time>2026-08-23T13:24:54.000Z</time>
      </trkpt>
      <trkpt lat="43.33116" lon="-1.76912">
        <ele>149</ele>
        <time>2026-08-23T13:24:56.000Z</time>
      </trkpt>
      <trkpt lat="43.33188" lon="-1.77011">
        <ele>128</ele>
        <time>2026-08-23T13:25:14.000Z</time>
      </trkpt>
      <trkpt lat="43.33195" lon="-1.77016">
        <ele>127</ele>
        <time>2026-08-23T13:25:16.000Z</time>
      </trkpt>
      <trkpt lat="43.33203" lon="-1.77019">
        <ele>125</ele>
        <time>2026-08-23T13:25:17.000Z</time>
      </trkpt>
      <trkpt lat="43.3322" lon="-1.77014">
        <ele>124</ele>
        <time>2026-08-23T13:25:20.000Z</time>
      </trkpt>
      <trkpt lat="43.33228" lon="-1.77002">
        <ele>125</ele>
        <time>2026-08-23T13:25:23.000Z</time>
      </trkpt>
      <trkpt lat="43.33241" lon="-1.76984">
        <ele>125</ele>
        <time>2026-08-23T13:25:26.000Z</time>
      </trkpt>
      <trkpt lat="43.33274" lon="-1.76918">
        <ele>123</ele>
        <time>2026-08-23T13:25:36.000Z</time>
      </trkpt>
      <trkpt lat="43.33342" lon="-1.76793">
        <ele>111</ele>
        <time>2026-08-23T13:25:56.000Z</time>
      </trkpt>
      <trkpt lat="43.3338" lon="-1.76751">
        <ele>105</ele>
        <time>2026-08-23T13:26:05.000Z</time>
      </trkpt>
      <trkpt lat="43.33387" lon="-1.76741">
        <ele>104</ele>
        <time>2026-08-23T13:26:07.000Z</time>
      </trkpt>
      <trkpt lat="43.33398" lon="-1.76696">
        <ele>101</ele>
        <time>2026-08-23T13:26:13.000Z</time>
      </trkpt>
      <trkpt lat="43.33402" lon="-1.76685">
        <ele>100</ele>
        <time>2026-08-23T13:26:15.000Z</time>
      </trkpt>
      <trkpt lat="43.33409" lon="-1.7668">
        <ele>98</ele>
        <time>2026-08-23T13:26:16.000Z</time>
      </trkpt>
      <trkpt lat="43.33415" lon="-1.76681">
        <ele>96</ele>
        <time>2026-08-23T13:26:17.000Z</time>
      </trkpt>
      <trkpt lat="43.3342" lon="-1.76689">
        <ele>95</ele>
        <time>2026-08-23T13:26:18.000Z</time>
      </trkpt>
      <trkpt lat="43.33421" lon="-1.76698">
        <ele>95</ele>
        <time>2026-08-23T13:26:20.000Z</time>
      </trkpt>
      <trkpt lat="43.33419" lon="-1.76719">
        <ele>96</ele>
        <time>2026-08-23T13:26:22.000Z</time>
      </trkpt>
      <trkpt lat="43.33408" lon="-1.76788">
        <ele>96</ele>
        <time>2026-08-23T13:26:32.000Z</time>
      </trkpt>
      <trkpt lat="43.33408" lon="-1.76803">
        <ele>94</ele>
        <time>2026-08-23T13:26:33.000Z</time>
      </trkpt>
      <trkpt lat="43.3341" lon="-1.76808">
        <ele>93</ele>
        <time>2026-08-23T13:26:34.000Z</time>
      </trkpt>
      <trkpt lat="43.33416" lon="-1.76818">
        <ele>91</ele>
        <time>2026-08-23T13:26:36.000Z</time>
      </trkpt>
      <trkpt lat="43.33422" lon="-1.7682">
        <ele>89</ele>
        <time>2026-08-23T13:26:37.000Z</time>
      </trkpt>
      <trkpt lat="43.33432" lon="-1.76816">
        <ele>87</ele>
        <time>2026-08-23T13:26:39.000Z</time>
      </trkpt>
      <trkpt lat="43.33438" lon="-1.76807">
        <ele>86</ele>
        <time>2026-08-23T13:26:40.000Z</time>
      </trkpt>
      <trkpt lat="43.33445" lon="-1.76779">
        <ele>87</ele>
        <time>2026-08-23T13:26:44.000Z</time>
      </trkpt>
      <trkpt lat="43.33453" lon="-1.76724">
        <ele>86</ele>
        <time>2026-08-23T13:26:52.000Z</time>
      </trkpt>
      <trkpt lat="43.33452" lon="-1.76697">
        <ele>85</ele>
        <time>2026-08-23T13:26:55.000Z</time>
      </trkpt>
      <trkpt lat="43.33449" lon="-1.76684">
        <ele>85</ele>
        <time>2026-08-23T13:26:57.000Z</time>
      </trkpt>
      <trkpt lat="43.3345" lon="-1.76675">
        <ele>85</ele>
        <time>2026-08-23T13:26:58.000Z</time>
      </trkpt>
      <trkpt lat="43.33452" lon="-1.7667">
        <ele>84</ele>
        <time>2026-08-23T13:26:59.000Z</time>
      </trkpt>
      <trkpt lat="43.33461" lon="-1.76668">
        <ele>81</ele>
        <time>2026-08-23T13:27:00.000Z</time>
      </trkpt>
      <trkpt lat="43.33465" lon="-1.76672">
        <ele>80</ele>
        <time>2026-08-23T13:27:01.000Z</time>
      </trkpt>
      <trkpt lat="43.33477" lon="-1.76714">
        <ele>78</ele>
        <time>2026-08-23T13:27:07.000Z</time>
      </trkpt>
      <trkpt lat="43.33499" lon="-1.76749">
        <ele>73</ele>
        <time>2026-08-23T13:27:13.000Z</time>
      </trkpt>
      <trkpt lat="43.33511" lon="-1.76776">
        <ele>68</ele>
        <time>2026-08-23T13:27:17.000Z</time>
      </trkpt>
      <trkpt lat="43.33514" lon="-1.76814">
        <ele>65</ele>
        <time>2026-08-23T13:27:22.000Z</time>
      </trkpt>
      <trkpt lat="43.33511" lon="-1.7682">
        <ele>66</ele>
        <time>2026-08-23T13:27:23.000Z</time>
      </trkpt>
      <trkpt lat="43.33505" lon="-1.76839">
        <ele>65</ele>
        <time>2026-08-23T13:27:26.000Z</time>
      </trkpt>
      <trkpt lat="43.3349" lon="-1.7686">
        <ele>67</ele>
        <time>2026-08-23T13:27:29.000Z</time>
      </trkpt>
      <trkpt lat="43.33482" lon="-1.76877">
        <ele>67</ele>
        <time>2026-08-23T13:27:32.000Z</time>
      </trkpt>
      <trkpt lat="43.33475" lon="-1.76895">
        <ele>66</ele>
        <time>2026-08-23T13:27:35.000Z</time>
      </trkpt>
      <trkpt lat="43.33472" lon="-1.76915">
        <ele>64</ele>
        <time>2026-08-23T13:27:37.000Z</time>
      </trkpt>
      <trkpt lat="43.33473" lon="-1.7693">
        <ele>62</ele>
        <time>2026-08-23T13:27:39.000Z</time>
      </trkpt>
      <trkpt lat="43.33476" lon="-1.76942">
        <ele>60</ele>
        <time>2026-08-23T13:27:41.000Z</time>
      </trkpt>
      <trkpt lat="43.33482" lon="-1.76955">
        <ele>56</ele>
        <time>2026-08-23T13:27:43.000Z</time>
      </trkpt>
      <trkpt lat="43.33489" lon="-1.76963">
        <ele>54</ele>
        <time>2026-08-23T13:27:45.000Z</time>
      </trkpt>
      <trkpt lat="43.33503" lon="-1.76972">
        <ele>50</ele>
        <time>2026-08-23T13:27:47.000Z</time>
      </trkpt>
      <trkpt lat="43.33536" lon="-1.76978">
        <ele>48</ele>
        <time>2026-08-23T13:27:53.000Z</time>
      </trkpt>
      <trkpt lat="43.33578" lon="-1.76982">
        <ele>46</ele>
        <time>2026-08-23T13:28:01.000Z</time>
      </trkpt>
      <trkpt lat="43.33587" lon="-1.76983">
        <ele>47</ele>
        <time>2026-08-23T13:28:02.000Z</time>
      </trkpt>
      <trkpt lat="43.33597" lon="-1.76987">
        <ele>47</ele>
        <time>2026-08-23T13:28:04.000Z</time>
      </trkpt>
      <trkpt lat="43.33629" lon="-1.77012">
        <ele>51</ele>
        <time>2026-08-23T13:28:11.000Z</time>
      </trkpt>
      <trkpt lat="43.33645" lon="-1.7702">
        <ele>53</ele>
        <time>2026-08-23T13:28:14.000Z</time>
      </trkpt>
      <trkpt lat="43.33661" lon="-1.77025">
        <ele>55</ele>
        <time>2026-08-23T13:28:17.000Z</time>
      </trkpt>
      <trkpt lat="43.33686" lon="-1.77027">
        <ele>55</ele>
        <time>2026-08-23T13:28:21.000Z</time>
      </trkpt>
      <trkpt lat="43.33713" lon="-1.77027">
        <ele>54</ele>
        <time>2026-08-23T13:28:26.000Z</time>
      </trkpt>
      <trkpt lat="43.33722" lon="-1.77029">
        <ele>54</ele>
        <time>2026-08-23T13:28:28.000Z</time>
      </trkpt>
      <trkpt lat="43.33741" lon="-1.77036">
        <ele>53</ele>
        <time>2026-08-23T13:28:31.000Z</time>
      </trkpt>
      <trkpt lat="43.33756" lon="-1.7704">
        <ele>52</ele>
        <time>2026-08-23T13:28:34.000Z</time>
      </trkpt>
      <trkpt lat="43.33775" lon="-1.77048">
        <ele>50</ele>
        <time>2026-08-23T13:28:37.000Z</time>
      </trkpt>
      <trkpt lat="43.33797" lon="-1.77056">
        <ele>48</ele>
        <time>2026-08-23T13:28:41.000Z</time>
      </trkpt>
      <trkpt lat="43.33797" lon="-1.77053">
        <ele>48</ele>
        <time>2026-08-23T13:28:42.000Z</time>
      </trkpt>
      <trkpt lat="43.33802" lon="-1.7705">
        <ele>48</ele>
        <time>2026-08-23T13:28:43.000Z</time>
      </trkpt>
      <trkpt lat="43.33806" lon="-1.7705">
        <ele>47</ele>
        <time>2026-08-23T13:28:43.000Z</time>
      </trkpt>
      <trkpt lat="43.33815" lon="-1.77037">
        <ele>46</ele>
        <time>2026-08-23T13:28:46.000Z</time>
      </trkpt>
      <trkpt lat="43.33819" lon="-1.77023">
        <ele>45</ele>
        <time>2026-08-23T13:28:48.000Z</time>
      </trkpt>
      <trkpt lat="43.33837" lon="-1.7697">
        <ele>42</ele>
        <time>2026-08-23T13:28:55.000Z</time>
      </trkpt>
      <trkpt lat="43.33886" lon="-1.76895">
        <ele>38</ele>
        <time>2026-08-23T13:29:08.000Z</time>
      </trkpt>
      <trkpt lat="43.33911" lon="-1.76862">
        <ele>38</ele>
        <time>2026-08-23T13:29:15.000Z</time>
      </trkpt>
      <trkpt lat="43.3392" lon="-1.76853">
        <ele>39</ele>
        <time>2026-08-23T13:29:17.000Z</time>
      </trkpt>
      <trkpt lat="43.33931" lon="-1.76833">
        <ele>40</ele>
        <time>2026-08-23T13:29:20.000Z</time>
      </trkpt>
      <trkpt lat="43.33953" lon="-1.76774">
        <ele>39</ele>
        <time>2026-08-23T13:29:28.000Z</time>
      </trkpt>
      <trkpt lat="43.3399" lon="-1.76702">
        <ele>38</ele>
        <time>2026-08-23T13:29:40.000Z</time>
      </trkpt>
      <trkpt lat="43.34004" lon="-1.76657">
        <ele>38</ele>
        <time>2026-08-23T13:29:46.000Z</time>
      </trkpt>
      <trkpt lat="43.34014" lon="-1.76632">
        <ele>37</ele>
        <time>2026-08-23T13:29:50.000Z</time>
      </trkpt>
      <trkpt lat="43.34021" lon="-1.76623">
        <ele>36</ele>
        <time>2026-08-23T13:29:51.000Z</time>
      </trkpt>
      <trkpt lat="43.34031" lon="-1.7662">
        <ele>36</ele>
        <time>2026-08-23T13:29:53.000Z</time>
      </trkpt>
      <trkpt lat="43.3404" lon="-1.76623">
        <ele>36</ele>
        <time>2026-08-23T13:29:55.000Z</time>
      </trkpt>
      <trkpt lat="43.34049" lon="-1.76632">
        <ele>37</ele>
        <time>2026-08-23T13:29:57.000Z</time>
      </trkpt>
      <trkpt lat="43.34059" lon="-1.76637">
        <ele>37</ele>
        <time>2026-08-23T13:29:59.000Z</time>
      </trkpt>
      <trkpt lat="43.34068" lon="-1.76637">
        <ele>37</ele>
        <time>2026-08-23T13:30:00.000Z</time>
      </trkpt>
      <trkpt lat="43.3408" lon="-1.76631">
        <ele>37</ele>
        <time>2026-08-23T13:30:03.000Z</time>
      </trkpt>
      <trkpt lat="43.34088" lon="-1.76619">
        <ele>35</ele>
        <time>2026-08-23T13:30:05.000Z</time>
      </trkpt>
      <trkpt lat="43.34089" lon="-1.7661">
        <ele>35</ele>
        <time>2026-08-23T13:30:06.000Z</time>
      </trkpt>
      <trkpt lat="43.34089" lon="-1.76585">
        <ele>35</ele>
        <time>2026-08-23T13:30:09.000Z</time>
      </trkpt>
      <trkpt lat="43.34091" lon="-1.76572">
        <ele>34</ele>
        <time>2026-08-23T13:30:11.000Z</time>
      </trkpt>
      <trkpt lat="43.34096" lon="-1.7656">
        <ele>33</ele>
        <time>2026-08-23T13:30:13.000Z</time>
      </trkpt>
      <trkpt lat="43.34106" lon="-1.76545">
        <ele>30</ele>
        <time>2026-08-23T13:30:15.000Z</time>
      </trkpt>
      <trkpt lat="43.34112" lon="-1.76532">
        <ele>29</ele>
        <time>2026-08-23T13:30:17.000Z</time>
      </trkpt>
      <trkpt lat="43.34123" lon="-1.76484">
        <ele>25</ele>
        <time>2026-08-23T13:30:24.000Z</time>
      </trkpt>
      <trkpt lat="43.34129" lon="-1.76471">
        <ele>23</ele>
        <time>2026-08-23T13:30:26.000Z</time>
      </trkpt>
      <trkpt lat="43.34152" lon="-1.76453">
        <ele>19</ele>
        <time>2026-08-23T13:30:31.000Z</time>
      </trkpt>
      <trkpt lat="43.34174" lon="-1.76431">
        <ele>16</ele>
        <time>2026-08-23T13:30:35.000Z</time>
      </trkpt>
      <trkpt lat="43.34183" lon="-1.76404">
        <ele>15</ele>
        <time>2026-08-23T13:30:39.000Z</time>
      </trkpt>
      <trkpt lat="43.34198" lon="-1.76386">
        <ele>12</ele>
        <time>2026-08-23T13:30:43.000Z</time>
      </trkpt>
      <trkpt lat="43.34204" lon="-1.76373">
        <ele>11</ele>
        <time>2026-08-23T13:30:45.000Z</time>
      </trkpt>
      <trkpt lat="43.34204" lon="-1.76364">
        <ele>12</ele>
        <time>2026-08-23T13:30:46.000Z</time>
      </trkpt>
      <trkpt lat="43.34199" lon="-1.76236">
        <ele>8</ele>
        <time>2026-08-23T13:31:03.000Z</time>
      </trkpt>
      <trkpt lat="43.34226" lon="-1.76324">
        <ele>8</ele>
        <time>2026-08-23T13:31:15.000Z</time>
      </trkpt>
      <trkpt lat="43.34232" lon="-1.76335">
        <ele>7</ele>
        <time>2026-08-23T13:31:17.000Z</time>
      </trkpt>
      <trkpt lat="43.34257" lon="-1.76345">
        <ele>4</ele>
        <time>2026-08-23T13:31:21.000Z</time>
      </trkpt>
      <trkpt lat="43.34263" lon="-1.76304">
        <ele>4</ele>
        <time>2026-08-23T13:31:27.000Z</time>
      </trkpt>
      <trkpt lat="43.34264" lon="-1.76282">
        <ele>4</ele>
        <time>2026-08-23T13:31:30.000Z</time>
      </trkpt>
      <trkpt lat="43.34263" lon="-1.76262">
        <ele>4</ele>
        <time>2026-08-23T13:31:32.000Z</time>
      </trkpt>
      <trkpt lat="43.34259" lon="-1.76237">
        <ele>4</ele>
        <time>2026-08-23T13:31:35.000Z</time>
      </trkpt>
      <trkpt lat="43.34249" lon="-1.76192">
        <ele>3</ele>
        <time>2026-08-23T13:31:42.000Z</time>
      </trkpt>
      <trkpt lat="43.34233" lon="-1.76124">
        <ele>3</ele>
        <time>2026-08-23T13:31:51.000Z</time>
      </trkpt>
      <trkpt lat="43.34233" lon="-1.76104">
        <ele>3</ele>
        <time>2026-08-23T13:31:53.000Z</time>
      </trkpt>
      <trkpt lat="43.34233" lon="-1.76098">
        <ele>3</ele>
        <time>2026-08-23T13:31:54.000Z</time>
      </trkpt>
      <trkpt lat="43.34234" lon="-1.76058">
        <ele>2</ele>
        <time>2026-08-23T13:31:59.000Z</time>
      </trkpt>
      <trkpt lat="43.34227" lon="-1.76028">
        <ele>3</ele>
        <time>2026-08-23T13:32:03.000Z</time>
      </trkpt>
      <trkpt lat="43.34223" lon="-1.76019">
        <ele>3</ele>
        <time>2026-08-23T13:32:05.000Z</time>
      </trkpt>
      <trkpt lat="43.34221" lon="-1.76009">
        <ele>3</ele>
        <time>2026-08-23T13:32:06.000Z</time>
      </trkpt>
      <trkpt lat="43.34222" lon="-1.76">
        <ele>3</ele>
        <time>2026-08-23T13:32:07.000Z</time>
      </trkpt>
      <trkpt lat="43.34224" lon="-1.75991">
        <ele>3</ele>
        <time>2026-08-23T13:32:09.000Z</time>
      </trkpt>
      <trkpt lat="43.34228" lon="-1.75983">
        <ele>3</ele>
        <time>2026-08-23T13:32:10.000Z</time>
      </trkpt>
      <trkpt lat="43.34234" lon="-1.75976">
        <ele>3</ele>
        <time>2026-08-23T13:32:11.000Z</time>
      </trkpt>
      <trkpt lat="43.34242" lon="-1.75973">
        <ele>2</ele>
        <time>2026-08-23T13:32:13.000Z</time>
      </trkpt>
      <trkpt lat="43.34248" lon="-1.75973">
        <ele>2</ele>
        <time>2026-08-23T13:32:14.000Z</time>
      </trkpt>
      <trkpt lat="43.34259" lon="-1.75978">
        <ele>2</ele>
        <time>2026-08-23T13:32:16.000Z</time>
      </trkpt>
      <trkpt lat="43.34267" lon="-1.75991">
        <ele>2</ele>
        <time>2026-08-23T13:32:18.000Z</time>
      </trkpt>
      <trkpt lat="43.34288" lon="-1.75999">
        <ele>2</ele>
        <time>2026-08-23T13:32:22.000Z</time>
      </trkpt>
      <trkpt lat="43.3429" lon="-1.76">
        <ele>2</ele>
        <time>2026-08-23T13:32:22.000Z</time>
      </trkpt>
      <trkpt lat="43.34299" lon="-1.76005">
        <ele>3</ele>
        <time>2026-08-23T13:32:24.000Z</time>
      </trkpt>
      <trkpt lat="43.34322" lon="-1.76019">
        <ele>3</ele>
        <time>2026-08-23T13:32:28.000Z</time>
      </trkpt>
      <trkpt lat="43.34343" lon="-1.76035">
        <ele>3</ele>
        <time>2026-08-23T13:32:33.000Z</time>
      </trkpt>
      <trkpt lat="43.34362" lon="-1.76052">
        <ele>3</ele>
        <time>2026-08-23T13:32:37.000Z</time>
      </trkpt>
      <trkpt lat="43.34381" lon="-1.76073">
        <ele>3</ele>
        <time>2026-08-23T13:32:41.000Z</time>
      </trkpt>
      <trkpt lat="43.34389" lon="-1.76084">
        <ele>3</ele>
        <time>2026-08-23T13:32:43.000Z</time>
      </trkpt>
      <trkpt lat="43.34391" lon="-1.76086">
        <ele>3</ele>
        <time>2026-08-23T13:32:44.000Z</time>
      </trkpt>
      <trkpt lat="43.3442" lon="-1.76118">
        <ele>2</ele>
        <time>2026-08-23T13:32:50.000Z</time>
      </trkpt>
      <trkpt lat="43.3443" lon="-1.76128">
        <ele>4</ele>
        <time>2026-08-23T13:32:52.000Z</time>
      </trkpt>
      <trkpt lat="43.34437" lon="-1.76129">
        <ele>5</ele>
        <time>2026-08-23T13:32:54.000Z</time>
      </trkpt>
      <trkpt lat="43.34443" lon="-1.76126">
        <ele>6</ele>
        <time>2026-08-23T13:32:55.000Z</time>
      </trkpt>
      <trkpt lat="43.34447" lon="-1.76123">
        <ele>7</ele>
        <time>2026-08-23T13:32:56.000Z</time>
      </trkpt>
      <trkpt lat="43.34451" lon="-1.76101">
        <ele>10</ele>
        <time>2026-08-23T13:32:58.000Z</time>
      </trkpt>
      <trkpt lat="43.34446" lon="-1.76045">
        <ele>10</ele>
        <time>2026-08-23T13:33:06.000Z</time>
      </trkpt>
      <trkpt lat="43.34445" lon="-1.76007">
        <ele>10</ele>
        <time>2026-08-23T13:33:11.000Z</time>
      </trkpt>
      <trkpt lat="43.34446" lon="-1.75986">
        <ele>12</ele>
        <time>2026-08-23T13:33:13.000Z</time>
      </trkpt>
      <trkpt lat="43.34447" lon="-1.75949">
        <ele>16</ele>
        <time>2026-08-23T13:33:18.000Z</time>
      </trkpt>
      <trkpt lat="43.3445" lon="-1.759">
        <ele>19</ele>
        <time>2026-08-23T13:33:25.000Z</time>
      </trkpt>
      <trkpt lat="43.34454" lon="-1.75867">
        <ele>19</ele>
        <time>2026-08-23T13:33:29.000Z</time>
      </trkpt>
      <trkpt lat="43.34454" lon="-1.75842">
        <ele>19</ele>
        <time>2026-08-23T13:33:32.000Z</time>
      </trkpt>
      <trkpt lat="43.34451" lon="-1.75812">
        <ele>19</ele>
        <time>2026-08-23T13:33:36.000Z</time>
      </trkpt>
      <trkpt lat="43.34445" lon="-1.75782">
        <ele>19</ele>
        <time>2026-08-23T13:33:40.000Z</time>
      </trkpt>
      <trkpt lat="43.34439" lon="-1.75764">
        <ele>18</ele>
        <time>2026-08-23T13:33:43.000Z</time>
      </trkpt>
      <trkpt lat="43.3443" lon="-1.75744">
        <ele>16</ele>
        <time>2026-08-23T13:33:46.000Z</time>
      </trkpt>
      <trkpt lat="43.3442" lon="-1.75713">
        <ele>14</ele>
        <time>2026-08-23T13:33:50.000Z</time>
      </trkpt>
      <trkpt lat="43.34403" lon="-1.75673">
        <ele>12</ele>
        <time>2026-08-23T13:33:56.000Z</time>
      </trkpt>
      <trkpt lat="43.34377" lon="-1.75627">
        <ele>14</ele>
        <time>2026-08-23T13:34:04.000Z</time>
      </trkpt>
      <trkpt lat="43.34301" lon="-1.7551">
        <ele>11</ele>
        <time>2026-08-23T13:34:24.000Z</time>
      </trkpt>
      <trkpt lat="43.34292" lon="-1.75496">
        <ele>11</ele>
        <time>2026-08-23T13:34:26.000Z</time>
      </trkpt>
      <trkpt lat="43.34191" lon="-1.7534">
        <ele>18</ele>
        <time>2026-08-23T13:34:53.000Z</time>
      </trkpt>
      <trkpt lat="43.3412" lon="-1.75258">
        <ele>13</ele>
        <time>2026-08-23T13:35:10.000Z</time>
      </trkpt>
      <trkpt lat="43.341" lon="-1.75241">
        <ele>11</ele>
        <time>2026-08-23T13:35:14.000Z</time>
      </trkpt>
      <trkpt lat="43.34064" lon="-1.75227">
        <ele>8</ele>
        <time>2026-08-23T13:35:21.000Z</time>
      </trkpt>
      <trkpt lat="43.34056" lon="-1.7523">
        <ele>7</ele>
        <time>2026-08-23T13:35:22.000Z</time>
      </trkpt>
      <trkpt lat="43.34052" lon="-1.75228">
        <ele>7</ele>
        <time>2026-08-23T13:35:23.000Z</time>
      </trkpt>
      <trkpt lat="43.34047" lon="-1.75222">
        <ele>7</ele>
        <time>2026-08-23T13:35:24.000Z</time>
      </trkpt>
      <trkpt lat="43.34046" lon="-1.75217">
        <ele>7</ele>
        <time>2026-08-23T13:35:25.000Z</time>
      </trkpt>
      <trkpt lat="43.34046" lon="-1.75209">
        <ele>8</ele>
        <time>2026-08-23T13:35:26.000Z</time>
      </trkpt>
      <trkpt lat="43.34051" lon="-1.75199">
        <ele>9</ele>
        <time>2026-08-23T13:35:27.000Z</time>
      </trkpt>
      <trkpt lat="43.34058" lon="-1.75196">
        <ele>9</ele>
        <time>2026-08-23T13:35:29.000Z</time>
      </trkpt>
      <trkpt lat="43.34065" lon="-1.75186">
        <ele>10</ele>
        <time>2026-08-23T13:35:31.000Z</time>
      </trkpt>
      <trkpt lat="43.34081" lon="-1.75143">
        <ele>12</ele>
        <time>2026-08-23T13:35:37.000Z</time>
      </trkpt>
      <trkpt lat="43.34095" lon="-1.75128">
        <ele>15</ele>
        <time>2026-08-23T13:35:40.000Z</time>
      </trkpt>
      <trkpt lat="43.34099" lon="-1.75123">
        <ele>16</ele>
        <time>2026-08-23T13:35:41.000Z</time>
      </trkpt>
      <trkpt lat="43.34105" lon="-1.75107">
        <ele>18</ele>
        <time>2026-08-23T13:35:43.000Z</time>
      </trkpt>
      <trkpt lat="43.34113" lon="-1.75081">
        <ele>21</ele>
        <time>2026-08-23T13:35:47.000Z</time>
      </trkpt>
      <trkpt lat="43.34124" lon="-1.75059">
        <ele>22</ele>
        <time>2026-08-23T13:35:50.000Z</time>
      </trkpt>
      <trkpt lat="43.34168" lon="-1.74972">
        <ele>23</ele>
        <time>2026-08-23T13:36:04.000Z</time>
      </trkpt>
      <trkpt lat="43.34196" lon="-1.7491">
        <ele>21</ele>
        <time>2026-08-23T13:36:13.000Z</time>
      </trkpt>
      <trkpt lat="43.34223" lon="-1.7487">
        <ele>23</ele>
        <time>2026-08-23T13:36:21.000Z</time>
      </trkpt>
      <trkpt lat="43.3423" lon="-1.74856">
        <ele>23</ele>
        <time>2026-08-23T13:36:23.000Z</time>
      </trkpt>
      <trkpt lat="43.34234" lon="-1.74842">
        <ele>22</ele>
        <time>2026-08-23T13:36:25.000Z</time>
      </trkpt>
      <trkpt lat="43.34235" lon="-1.74828">
        <ele>21</ele>
        <time>2026-08-23T13:36:26.000Z</time>
      </trkpt>
      <trkpt lat="43.34234" lon="-1.74817">
        <ele>20</ele>
        <time>2026-08-23T13:36:28.000Z</time>
      </trkpt>
      <trkpt lat="43.3422" lon="-1.74769">
        <ele>15</ele>
        <time>2026-08-23T13:36:35.000Z</time>
      </trkpt>
      <trkpt lat="43.3422" lon="-1.74752">
        <ele>14</ele>
        <time>2026-08-23T13:36:37.000Z</time>
      </trkpt>
      <trkpt lat="43.34224" lon="-1.74728">
        <ele>14</ele>
        <time>2026-08-23T13:36:40.000Z</time>
      </trkpt>
      <trkpt lat="43.34244" lon="-1.74668">
        <ele>15</ele>
        <time>2026-08-23T13:36:49.000Z</time>
      </trkpt>
      <trkpt lat="43.34251" lon="-1.74634">
        <ele>14</ele>
        <time>2026-08-23T13:36:53.000Z</time>
      </trkpt>
      <trkpt lat="43.34257" lon="-1.74592">
        <ele>13</ele>
        <time>2026-08-23T13:36:59.000Z</time>
      </trkpt>
      <trkpt lat="43.34256" lon="-1.74579">
        <ele>13</ele>
        <time>2026-08-23T13:37:00.000Z</time>
      </trkpt>
      <trkpt lat="43.34251" lon="-1.74564">
        <ele>13</ele>
        <time>2026-08-23T13:37:02.000Z</time>
      </trkpt>
      <trkpt lat="43.34235" lon="-1.74546">
        <ele>15</ele>
        <time>2026-08-23T13:37:06.000Z</time>
      </trkpt>
      <trkpt lat="43.3422" lon="-1.74523">
        <ele>16</ele>
        <time>2026-08-23T13:37:10.000Z</time>
      </trkpt>
      <trkpt lat="43.34194" lon="-1.74461">
        <ele>21</ele>
        <time>2026-08-23T13:37:19.000Z</time>
      </trkpt>
      <trkpt lat="43.34183" lon="-1.7442">
        <ele>24</ele>
        <time>2026-08-23T13:37:25.000Z</time>
      </trkpt>
      <trkpt lat="43.34179" lon="-1.74316">
        <ele>30</ele>
        <time>2026-08-23T13:37:39.000Z</time>
      </trkpt>
      <trkpt lat="43.34181" lon="-1.74292">
        <ele>30</ele>
        <time>2026-08-23T13:37:42.000Z</time>
      </trkpt>
      <trkpt lat="43.34194" lon="-1.7426">
        <ele>31</ele>
        <time>2026-08-23T13:37:46.000Z</time>
      </trkpt>
      <trkpt lat="43.34221" lon="-1.74203">
        <ele>32</ele>
        <time>2026-08-23T13:37:55.000Z</time>
      </trkpt>
      <trkpt lat="43.34227" lon="-1.74198">
        <ele>32</ele>
        <time>2026-08-23T13:37:56.000Z</time>
      </trkpt>
      <trkpt lat="43.34239" lon="-1.74194">
        <ele>32</ele>
        <time>2026-08-23T13:37:59.000Z</time>
      </trkpt>
      <trkpt lat="43.34249" lon="-1.74186">
        <ele>31</ele>
        <time>2026-08-23T13:38:01.000Z</time>
      </trkpt>
      <trkpt lat="43.34256" lon="-1.74174">
        <ele>31</ele>
        <time>2026-08-23T13:38:03.000Z</time>
      </trkpt>
      <trkpt lat="43.34261" lon="-1.74159">
        <ele>31</ele>
        <time>2026-08-23T13:38:05.000Z</time>
      </trkpt>
      <trkpt lat="43.34262" lon="-1.74098">
        <ele>31</ele>
        <time>2026-08-23T13:38:13.000Z</time>
      </trkpt>
      <trkpt lat="43.34262" lon="-1.74078">
        <ele>30</ele>
        <time>2026-08-23T13:38:15.000Z</time>
      </trkpt>
      <trkpt lat="43.34261" lon="-1.74065">
        <ele>29</ele>
        <time>2026-08-23T13:38:17.000Z</time>
      </trkpt>
      <trkpt lat="43.34252" lon="-1.7402">
        <ele>25</ele>
        <time>2026-08-23T13:38:23.000Z</time>
      </trkpt>
      <trkpt lat="43.34252" lon="-1.73995">
        <ele>24</ele>
        <time>2026-08-23T13:38:26.000Z</time>
      </trkpt>
      <trkpt lat="43.34256" lon="-1.73973">
        <ele>25</ele>
        <time>2026-08-23T13:38:29.000Z</time>
      </trkpt>
      <trkpt lat="43.34261" lon="-1.73953">
        <ele>26</ele>
        <time>2026-08-23T13:38:32.000Z</time>
      </trkpt>
      <trkpt lat="43.34261" lon="-1.73939">
        <ele>26</ele>
        <time>2026-08-23T13:38:34.000Z</time>
      </trkpt>
      <trkpt lat="43.34241" lon="-1.73864">
        <ele>32</ele>
        <time>2026-08-23T13:38:44.000Z</time>
      </trkpt>
      <trkpt lat="43.34238" lon="-1.73847">
        <ele>34</ele>
        <time>2026-08-23T13:38:46.000Z</time>
      </trkpt>
      <trkpt lat="43.34225" lon="-1.73696">
        <ele>50</ele>
        <time>2026-08-23T13:39:06.000Z</time>
      </trkpt>
      <trkpt lat="43.34218" lon="-1.73638">
        <ele>54</ele>
        <time>2026-08-23T13:39:14.000Z</time>
      </trkpt>
      <trkpt lat="43.34214" lon="-1.73624">
        <ele>55</ele>
        <time>2026-08-23T13:39:16.000Z</time>
      </trkpt>
      <trkpt lat="43.34209" lon="-1.7357">
        <ele>59</ele>
        <time>2026-08-23T13:39:23.000Z</time>
      </trkpt>
      <trkpt lat="43.34207" lon="-1.73529">
        <ele>63</ele>
        <time>2026-08-23T13:39:28.000Z</time>
      </trkpt>
      <trkpt lat="43.3421" lon="-1.73463">
        <ele>68</ele>
        <time>2026-08-23T13:39:37.000Z</time>
      </trkpt>
      <trkpt lat="43.34207" lon="-1.73433">
        <ele>71</ele>
        <time>2026-08-23T13:39:40.000Z</time>
      </trkpt>
      <trkpt lat="43.34202" lon="-1.73411">
        <ele>72</ele>
        <time>2026-08-23T13:39:43.000Z</time>
      </trkpt>
      <trkpt lat="43.34196" lon="-1.73397">
        <ele>73</ele>
        <time>2026-08-23T13:39:46.000Z</time>
      </trkpt>
      <trkpt lat="43.34179" lon="-1.73377">
        <ele>72</ele>
        <time>2026-08-23T13:39:50.000Z</time>
      </trkpt>
      <trkpt lat="43.34163" lon="-1.73368">
        <ele>71</ele>
        <time>2026-08-23T13:39:53.000Z</time>
      </trkpt>
      <trkpt lat="43.34154" lon="-1.73356">
        <ele>73</ele>
        <time>2026-08-23T13:39:55.000Z</time>
      </trkpt>
      <trkpt lat="43.34148" lon="-1.73337">
        <ele>75</ele>
        <time>2026-08-23T13:39:58.000Z</time>
      </trkpt>
      <trkpt lat="43.34149" lon="-1.73283">
        <ele>78</ele>
        <time>2026-08-23T13:40:04.000Z</time>
      </trkpt>
      <trkpt lat="43.34167" lon="-1.73119">
        <ele>88</ele>
        <time>2026-08-23T13:40:26.000Z</time>
      </trkpt>
      <trkpt lat="43.34184" lon="-1.73021">
        <ele>99</ele>
        <time>2026-08-23T13:40:39.000Z</time>
      </trkpt>
      <trkpt lat="43.34196" lon="-1.72984">
        <ele>103</ele>
        <time>2026-08-23T13:40:44.000Z</time>
      </trkpt>
      <trkpt lat="43.34198" lon="-1.72961">
        <ele>105</ele>
        <time>2026-08-23T13:40:47.000Z</time>
      </trkpt>
      <trkpt lat="43.34198" lon="-1.72939">
        <ele>106</ele>
        <time>2026-08-23T13:40:50.000Z</time>
      </trkpt>
      <trkpt lat="43.34191" lon="-1.72905">
        <ele>105</ele>
        <time>2026-08-23T13:40:55.000Z</time>
      </trkpt>
      <trkpt lat="43.34185" lon="-1.72889">
        <ele>104</ele>
        <time>2026-08-23T13:40:57.000Z</time>
      </trkpt>
      <trkpt lat="43.34164" lon="-1.72832">
        <ele>103</ele>
        <time>2026-08-23T13:41:05.000Z</time>
      </trkpt>
      <trkpt lat="43.34157" lon="-1.72813">
        <ele>105</ele>
        <time>2026-08-23T13:41:08.000Z</time>
      </trkpt>
      <trkpt lat="43.34152" lon="-1.72799">
        <ele>107</ele>
        <time>2026-08-23T13:41:10.000Z</time>
      </trkpt>
      <trkpt lat="43.34151" lon="-1.72785">
        <ele>108</ele>
        <time>2026-08-23T13:41:12.000Z</time>
      </trkpt>
      <trkpt lat="43.34154" lon="-1.72747">
        <ele>107</ele>
        <time>2026-08-23T13:41:17.000Z</time>
      </trkpt>
      <trkpt lat="43.34157" lon="-1.72629">
        <ele>97</ele>
        <time>2026-08-23T13:41:32.000Z</time>
      </trkpt>
      <trkpt lat="43.34155" lon="-1.7261">
        <ele>96</ele>
        <time>2026-08-23T13:41:35.000Z</time>
      </trkpt>
      <trkpt lat="43.34144" lon="-1.72581">
        <ele>96</ele>
        <time>2026-08-23T13:41:39.000Z</time>
      </trkpt>
      <trkpt lat="43.34146" lon="-1.72574">
        <ele>96</ele>
        <time>2026-08-23T13:41:40.000Z</time>
      </trkpt>
      <trkpt lat="43.34153" lon="-1.72573">
        <ele>94</ele>
        <time>2026-08-23T13:41:41.000Z</time>
      </trkpt>
      <trkpt lat="43.34167" lon="-1.72577">
        <ele>91</ele>
        <time>2026-08-23T13:41:44.000Z</time>
      </trkpt>
      <trkpt lat="43.34177" lon="-1.72576">
        <ele>91</ele>
        <time>2026-08-23T13:41:45.000Z</time>
      </trkpt>
      <trkpt lat="43.34187" lon="-1.72572">
        <ele>90</ele>
        <time>2026-08-23T13:41:47.000Z</time>
      </trkpt>
      <trkpt lat="43.342" lon="-1.72557">
        <ele>89</ele>
        <time>2026-08-23T13:41:50.000Z</time>
      </trkpt>
      <trkpt lat="43.34242" lon="-1.72477">
        <ele>80</ele>
        <time>2026-08-23T13:42:03.000Z</time>
      </trkpt>
      <trkpt lat="43.3428" lon="-1.72413">
        <ele>76</ele>
        <time>2026-08-23T13:42:14.000Z</time>
      </trkpt>
      <trkpt lat="43.34293" lon="-1.72386">
        <ele>75</ele>
        <time>2026-08-23T13:42:18.000Z</time>
      </trkpt>
      <trkpt lat="43.34322" lon="-1.72307">
        <ele>68</ele>
        <time>2026-08-23T13:42:29.000Z</time>
      </trkpt>
      <trkpt lat="43.34339" lon="-1.72272">
        <ele>64</ele>
        <time>2026-08-23T13:42:35.000Z</time>
      </trkpt>
      <trkpt lat="43.34359" lon="-1.72246">
        <ele>64</ele>
        <time>2026-08-23T13:42:40.000Z</time>
      </trkpt>
      <trkpt lat="43.34372" lon="-1.72232">
        <ele>65</ele>
        <time>2026-08-23T13:42:43.000Z</time>
      </trkpt>
      <trkpt lat="43.34383" lon="-1.72217">
        <ele>65</ele>
        <time>2026-08-23T13:42:45.000Z</time>
      </trkpt>
      <trkpt lat="43.34396" lon="-1.72191">
        <ele>64</ele>
        <time>2026-08-23T13:42:49.000Z</time>
      </trkpt>
      <trkpt lat="43.34405" lon="-1.7216">
        <ele>63</ele>
        <time>2026-08-23T13:42:54.000Z</time>
      </trkpt>
      <trkpt lat="43.34409" lon="-1.72143">
        <ele>62</ele>
        <time>2026-08-23T13:42:56.000Z</time>
      </trkpt>
      <trkpt lat="43.34414" lon="-1.72112">
        <ele>61</ele>
        <time>2026-08-23T13:43:00.000Z</time>
      </trkpt>
      <trkpt lat="43.34419" lon="-1.72097">
        <ele>60</ele>
        <time>2026-08-23T13:43:02.000Z</time>
      </trkpt>
      <trkpt lat="43.34427" lon="-1.72071">
        <ele>58</ele>
        <time>2026-08-23T13:43:06.000Z</time>
      </trkpt>
      <trkpt lat="43.34447" lon="-1.72025">
        <ele>55</ele>
        <time>2026-08-23T13:43:13.000Z</time>
      </trkpt>
      <trkpt lat="43.34478" lon="-1.71967">
        <ele>53</ele>
        <time>2026-08-23T13:43:22.000Z</time>
      </trkpt>
      <trkpt lat="43.34523" lon="-1.71871">
        <ele>50</ele>
        <time>2026-08-23T13:43:37.000Z</time>
      </trkpt>
      <trkpt lat="43.34538" lon="-1.7183">
        <ele>49</ele>
        <time>2026-08-23T13:43:43.000Z</time>
      </trkpt>
      <trkpt lat="43.34546" lon="-1.71807">
        <ele>48</ele>
        <time>2026-08-23T13:43:46.000Z</time>
      </trkpt>
      <trkpt lat="43.34554" lon="-1.71785">
        <ele>48</ele>
        <time>2026-08-23T13:43:49.000Z</time>
      </trkpt>
      <trkpt lat="43.34564" lon="-1.71768">
        <ele>48</ele>
        <time>2026-08-23T13:43:52.000Z</time>
      </trkpt>
      <trkpt lat="43.34609" lon="-1.71741">
        <ele>47</ele>
        <time>2026-08-23T13:44:01.000Z</time>
      </trkpt>
      <trkpt lat="43.34674" lon="-1.7171">
        <ele>46</ele>
        <time>2026-08-23T13:44:13.000Z</time>
      </trkpt>
      <trkpt lat="43.34711" lon="-1.71682">
        <ele>42</ele>
        <time>2026-08-23T13:44:21.000Z</time>
      </trkpt>
      <trkpt lat="43.34741" lon="-1.71667">
        <ele>40</ele>
        <time>2026-08-23T13:44:26.000Z</time>
      </trkpt>
      <trkpt lat="43.34754" lon="-1.71659">
        <ele>39</ele>
        <time>2026-08-23T13:44:29.000Z</time>
      </trkpt>
      <trkpt lat="43.34784" lon="-1.7162">
        <ele>37</ele>
        <time>2026-08-23T13:44:36.000Z</time>
      </trkpt>
      <trkpt lat="43.34794" lon="-1.71596">
        <ele>37</ele>
        <time>2026-08-23T13:44:40.000Z</time>
      </trkpt>
      <trkpt lat="43.34795" lon="-1.71587">
        <ele>37</ele>
        <time>2026-08-23T13:44:41.000Z</time>
      </trkpt>
      <trkpt lat="43.34793" lon="-1.71541">
        <ele>38</ele>
        <time>2026-08-23T13:44:47.000Z</time>
      </trkpt>
      <trkpt lat="43.34784" lon="-1.71486">
        <ele>41</ele>
        <time>2026-08-23T13:44:54.000Z</time>
      </trkpt>
      <trkpt lat="43.34783" lon="-1.71461">
        <ele>44</ele>
        <time>2026-08-23T13:44:58.000Z</time>
      </trkpt>
      <trkpt lat="43.34791" lon="-1.71447">
        <ele>47</ele>
        <time>2026-08-23T13:45:00.000Z</time>
      </trkpt>
      <trkpt lat="43.34874" lon="-1.71409">
        <ele>57</ele>
        <time>2026-08-23T13:45:15.000Z</time>
      </trkpt>
      <trkpt lat="43.34894" lon="-1.71418">
        <ele>58</ele>
        <time>2026-08-23T13:45:19.000Z</time>
      </trkpt>
      <trkpt lat="43.34917" lon="-1.71412">
        <ele>59</ele>
        <time>2026-08-23T13:45:23.000Z</time>
      </trkpt>
      <trkpt lat="43.34931" lon="-1.71404">
        <ele>60</ele>
        <time>2026-08-23T13:45:26.000Z</time>
      </trkpt>
      <trkpt lat="43.34939" lon="-1.7139">
        <ele>62</ele>
        <time>2026-08-23T13:45:28.000Z</time>
      </trkpt>
      <trkpt lat="43.34955" lon="-1.71332">
        <ele>68</ele>
        <time>2026-08-23T13:45:36.000Z</time>
      </trkpt>
      <trkpt lat="43.34964" lon="-1.71307">
        <ele>69</ele>
        <time>2026-08-23T13:45:40.000Z</time>
      </trkpt>
      <trkpt lat="43.34985" lon="-1.71254">
        <ele>72</ele>
        <time>2026-08-23T13:45:48.000Z</time>
      </trkpt>
      <trkpt lat="43.35" lon="-1.71239">
        <ele>73</ele>
        <time>2026-08-23T13:45:51.000Z</time>
      </trkpt>
      <trkpt lat="43.35021" lon="-1.71224">
        <ele>73</ele>
        <time>2026-08-23T13:45:55.000Z</time>
      </trkpt>
      <trkpt lat="43.35027" lon="-1.7122">
        <ele>73</ele>
        <time>2026-08-23T13:45:56.000Z</time>
      </trkpt>
      <trkpt lat="43.35037" lon="-1.71207">
        <ele>73</ele>
        <time>2026-08-23T13:45:59.000Z</time>
      </trkpt>
      <trkpt lat="43.35045" lon="-1.7119">
        <ele>74</ele>
        <time>2026-08-23T13:46:02.000Z</time>
      </trkpt>
      <trkpt lat="43.35059" lon="-1.71161">
        <ele>75</ele>
        <time>2026-08-23T13:46:06.000Z</time>
      </trkpt>
      <trkpt lat="43.35074" lon="-1.71132">
        <ele>77</ele>
        <time>2026-08-23T13:46:11.000Z</time>
      </trkpt>
      <trkpt lat="43.35075" lon="-1.7112">
        <ele>77</ele>
        <time>2026-08-23T13:46:12.000Z</time>
      </trkpt>
      <trkpt lat="43.35072" lon="-1.711">
        <ele>78</ele>
        <time>2026-08-23T13:46:15.000Z</time>
      </trkpt>
      <trkpt lat="43.3504" lon="-1.70956">
        <ele>78</ele>
        <time>2026-08-23T13:46:34.000Z</time>
      </trkpt>
      <trkpt lat="43.35028" lon="-1.70916">
        <ele>78</ele>
        <time>2026-08-23T13:46:40.000Z</time>
      </trkpt>
      <trkpt lat="43.35021" lon="-1.70872">
        <ele>79</ele>
        <time>2026-08-23T13:46:46.000Z</time>
      </trkpt>
      <trkpt lat="43.3502" lon="-1.70839">
        <ele>79</ele>
        <time>2026-08-23T13:46:50.000Z</time>
      </trkpt>
      <trkpt lat="43.35025" lon="-1.70821">
        <ele>79</ele>
        <time>2026-08-23T13:46:53.000Z</time>
      </trkpt>
      <trkpt lat="43.35032" lon="-1.70806">
        <ele>80</ele>
        <time>2026-08-23T13:46:55.000Z</time>
      </trkpt>
      <trkpt lat="43.35049" lon="-1.7078">
        <ele>80</ele>
        <time>2026-08-23T13:46:59.000Z</time>
      </trkpt>
      <trkpt lat="43.35063" lon="-1.70764">
        <ele>79</ele>
        <time>2026-08-23T13:47:03.000Z</time>
      </trkpt>
      <trkpt lat="43.35103" lon="-1.70738">
        <ele>77</ele>
        <time>2026-08-23T13:47:10.000Z</time>
      </trkpt>
      <trkpt lat="43.35112" lon="-1.70729">
        <ele>76</ele>
        <time>2026-08-23T13:47:12.000Z</time>
      </trkpt>
      <trkpt lat="43.35128" lon="-1.70704">
        <ele>75</ele>
        <time>2026-08-23T13:47:17.000Z</time>
      </trkpt>
      <trkpt lat="43.35143" lon="-1.70684">
        <ele>75</ele>
        <time>2026-08-23T13:47:20.000Z</time>
      </trkpt>
      <trkpt lat="43.35152" lon="-1.70665">
        <ele>76</ele>
        <time>2026-08-23T13:47:23.000Z</time>
      </trkpt>
      <trkpt lat="43.35159" lon="-1.70634">
        <ele>76</ele>
        <time>2026-08-23T13:47:28.000Z</time>
      </trkpt>
      <trkpt lat="43.35175" lon="-1.70535">
        <ele>76</ele>
        <time>2026-08-23T13:47:41.000Z</time>
      </trkpt>
      <trkpt lat="43.3521" lon="-1.70309">
        <ele>76</ele>
        <time>2026-08-23T13:48:11.000Z</time>
      </trkpt>
      <trkpt lat="43.35217" lon="-1.70283">
        <ele>77</ele>
        <time>2026-08-23T13:48:14.000Z</time>
      </trkpt>
      <trkpt lat="43.35251" lon="-1.70167">
        <ele>72</ele>
        <time>2026-08-23T13:48:30.000Z</time>
      </trkpt>
      <trkpt lat="43.35257" lon="-1.70153">
        <ele>70</ele>
        <time>2026-08-23T13:48:32.000Z</time>
      </trkpt>
      <trkpt lat="43.35264" lon="-1.70146">
        <ele>69</ele>
        <time>2026-08-23T13:48:34.000Z</time>
      </trkpt>
      <trkpt lat="43.35273" lon="-1.70141">
        <ele>68</ele>
        <time>2026-08-23T13:48:36.000Z</time>
      </trkpt>
      <trkpt lat="43.35316" lon="-1.70127">
        <ele>63</ele>
        <time>2026-08-23T13:48:44.000Z</time>
      </trkpt>
      <trkpt lat="43.35401" lon="-1.69986">
        <ele>59</ele>
        <time>2026-08-23T13:49:07.000Z</time>
      </trkpt>
      <trkpt lat="43.35468" lon="-1.69916">
        <ele>59</ele>
        <time>2026-08-23T13:49:22.000Z</time>
      </trkpt>
      <trkpt lat="43.35486" lon="-1.69893">
        <ele>57</ele>
        <time>2026-08-23T13:49:27.000Z</time>
      </trkpt>
      <trkpt lat="43.355" lon="-1.69849">
        <ele>57</ele>
        <time>2026-08-23T13:49:33.000Z</time>
      </trkpt>
      <trkpt lat="43.35541" lon="-1.69732">
        <ele>50</ele>
        <time>2026-08-23T13:49:50.000Z</time>
      </trkpt>
      <trkpt lat="43.35552" lon="-1.69717">
        <ele>49</ele>
        <time>2026-08-23T13:49:52.000Z</time>
      </trkpt>
      <trkpt lat="43.35567" lon="-1.69708">
        <ele>49</ele>
        <time>2026-08-23T13:49:55.000Z</time>
      </trkpt>
      <trkpt lat="43.35585" lon="-1.69704">
        <ele>49</ele>
        <time>2026-08-23T13:49:59.000Z</time>
      </trkpt>
      <trkpt lat="43.35602" lon="-1.69712">
        <ele>48</ele>
        <time>2026-08-23T13:50:02.000Z</time>
      </trkpt>
      <trkpt lat="43.35615" lon="-1.69721">
        <ele>48</ele>
        <time>2026-08-23T13:50:04.000Z</time>
      </trkpt>
      <trkpt lat="43.35631" lon="-1.69718">
        <ele>47</ele>
        <time>2026-08-23T13:50:07.000Z</time>
      </trkpt>
      <trkpt lat="43.35643" lon="-1.69709">
        <ele>47</ele>
        <time>2026-08-23T13:50:10.000Z</time>
      </trkpt>
      <trkpt lat="43.35613" lon="-1.6969">
        <ele>48</ele>
        <time>2026-08-23T13:50:16.000Z</time>
      </trkpt>
      <trkpt lat="43.35524" lon="-1.69586">
        <ele>43</ele>
        <time>2026-08-23T13:50:36.000Z</time>
      </trkpt>
      <trkpt lat="43.35518" lon="-1.69572">
        <ele>42</ele>
        <time>2026-08-23T13:50:38.000Z</time>
      </trkpt>
      <trkpt lat="43.3545" lon="-1.69318">
        <ele>32</ele>
        <time>2026-08-23T13:51:13.000Z</time>
      </trkpt>
      <trkpt lat="43.35419" lon="-1.69211">
        <ele>25</ele>
        <time>2026-08-23T13:51:28.000Z</time>
      </trkpt>
      <trkpt lat="43.35411" lon="-1.69158">
        <ele>23</ele>
        <time>2026-08-23T13:51:35.000Z</time>
      </trkpt>
      <trkpt lat="43.35408" lon="-1.69132">
        <ele>22</ele>
        <time>2026-08-23T13:51:39.000Z</time>
      </trkpt>
      <trkpt lat="43.35404" lon="-1.6908">
        <ele>22</ele>
        <time>2026-08-23T13:51:46.000Z</time>
      </trkpt>
      <trkpt lat="43.35407" lon="-1.69058">
        <ele>22</ele>
        <time>2026-08-23T13:51:48.000Z</time>
      </trkpt>
      <trkpt lat="43.35374" lon="-1.69029">
        <ele>23</ele>
        <time>2026-08-23T13:51:55.000Z</time>
      </trkpt>
      <trkpt lat="43.3537" lon="-1.69028">
        <ele>23</ele>
        <time>2026-08-23T13:51:56.000Z</time>
      </trkpt>
      <trkpt lat="43.35343" lon="-1.69014">
        <ele>24</ele>
        <time>2026-08-23T13:52:01.000Z</time>
      </trkpt>
      <trkpt lat="43.353" lon="-1.68987">
        <ele>26</ele>
        <time>2026-08-23T13:52:10.000Z</time>
      </trkpt>
      <trkpt lat="43.35237" lon="-1.68949">
        <ele>28</ele>
        <time>2026-08-23T13:52:22.000Z</time>
      </trkpt>
      <trkpt lat="43.35223" lon="-1.68936">
        <ele>29</ele>
        <time>2026-08-23T13:52:25.000Z</time>
      </trkpt>
      <trkpt lat="43.35194" lon="-1.68922">
        <ele>30</ele>
        <time>2026-08-23T13:52:30.000Z</time>
      </trkpt>
      <trkpt lat="43.35102" lon="-1.68886">
        <ele>34</ele>
        <time>2026-08-23T13:52:47.000Z</time>
      </trkpt>
      <trkpt lat="43.35027" lon="-1.68868">
        <ele>34</ele>
        <time>2026-08-23T13:53:01.000Z</time>
      </trkpt>
      <trkpt lat="43.34983" lon="-1.68863">
        <ele>34</ele>
        <time>2026-08-23T13:53:09.000Z</time>
      </trkpt>
      <trkpt lat="43.34945" lon="-1.68861">
        <ele>34</ele>
        <time>2026-08-23T13:53:16.000Z</time>
      </trkpt>
      <trkpt lat="43.34932" lon="-1.68864">
        <ele>34</ele>
        <time>2026-08-23T13:53:18.000Z</time>
      </trkpt>
      <trkpt lat="43.34918" lon="-1.68878">
        <ele>35</ele>
        <time>2026-08-23T13:53:21.000Z</time>
      </trkpt>
      <trkpt lat="43.34906" lon="-1.68898">
        <ele>35</ele>
        <time>2026-08-23T13:53:24.000Z</time>
      </trkpt>
      <trkpt lat="43.34903" lon="-1.68908">
        <ele>35</ele>
        <time>2026-08-23T13:53:26.000Z</time>
      </trkpt>
      <trkpt lat="43.34896" lon="-1.68916">
        <ele>35</ele>
        <time>2026-08-23T13:53:27.000Z</time>
      </trkpt>
      <trkpt lat="43.34888" lon="-1.68921">
        <ele>35</ele>
        <time>2026-08-23T13:53:29.000Z</time>
      </trkpt>
      <trkpt lat="43.34879" lon="-1.6892">
        <ele>36</ele>
        <time>2026-08-23T13:53:31.000Z</time>
      </trkpt>
      <trkpt lat="43.34872" lon="-1.68915">
        <ele>36</ele>
        <time>2026-08-23T13:53:32.000Z</time>
      </trkpt>
      <trkpt lat="43.34865" lon="-1.68902">
        <ele>35</ele>
        <time>2026-08-23T13:53:34.000Z</time>
      </trkpt>
      <trkpt lat="43.34863" lon="-1.68891">
        <ele>35</ele>
        <time>2026-08-23T13:53:36.000Z</time>
      </trkpt>
      <trkpt lat="43.3485" lon="-1.68877">
        <ele>35</ele>
        <time>2026-08-23T13:53:38.000Z</time>
      </trkpt>
      <trkpt lat="43.34834" lon="-1.68866">
        <ele>35</ele>
        <time>2026-08-23T13:53:42.000Z</time>
      </trkpt>
      <trkpt lat="43.348" lon="-1.68865">
        <ele>36</ele>
        <time>2026-08-23T13:53:48.000Z</time>
      </trkpt>
      <trkpt lat="43.34767" lon="-1.68873">
        <ele>37</ele>
        <time>2026-08-23T13:53:54.000Z</time>
      </trkpt>
      <trkpt lat="43.34744" lon="-1.68882">
        <ele>37</ele>
        <time>2026-08-23T13:53:58.000Z</time>
      </trkpt>
      <trkpt lat="43.34705" lon="-1.68905">
        <ele>39</ele>
        <time>2026-08-23T13:54:05.000Z</time>
      </trkpt>
      <trkpt lat="43.34674" lon="-1.68928">
        <ele>40</ele>
        <time>2026-08-23T13:54:12.000Z</time>
      </trkpt>
      <trkpt lat="43.34638" lon="-1.68963">
        <ele>41</ele>
        <time>2026-08-23T13:54:20.000Z</time>
      </trkpt>
      <trkpt lat="43.34585" lon="-1.68988">
        <ele>42</ele>
        <time>2026-08-23T13:54:30.000Z</time>
      </trkpt>
      <trkpt lat="43.34565" lon="-1.68992">
        <ele>42</ele>
        <time>2026-08-23T13:54:33.000Z</time>
      </trkpt>
      <trkpt lat="43.34527" lon="-1.6899">
        <ele>43</ele>
        <time>2026-08-23T13:54:40.000Z</time>
      </trkpt>
      <trkpt lat="43.34491" lon="-1.68991">
        <ele>44</ele>
        <time>2026-08-23T13:54:46.000Z</time>
      </trkpt>
      <trkpt lat="43.34479" lon="-1.68993">
        <ele>44</ele>
        <time>2026-08-23T13:54:48.000Z</time>
      </trkpt>
      <trkpt lat="43.34262" lon="-1.69036">
        <ele>48</ele>
        <time>2026-08-23T13:55:27.000Z</time>
      </trkpt>
      <trkpt lat="43.34152" lon="-1.69057">
        <ele>57</ele>
        <time>2026-08-23T13:55:47.000Z</time>
      </trkpt>
      <trkpt lat="43.3413" lon="-1.69063">
        <ele>58</ele>
        <time>2026-08-23T13:55:51.000Z</time>
      </trkpt>
      <trkpt lat="43.34049" lon="-1.69085">
        <ele>61</ele>
        <time>2026-08-23T13:56:06.000Z</time>
      </trkpt>
      <trkpt lat="43.34031" lon="-1.69088">
        <ele>62</ele>
        <time>2026-08-23T13:56:09.000Z</time>
      </trkpt>
      <trkpt lat="43.33982" lon="-1.69086">
        <ele>63</ele>
        <time>2026-08-23T13:56:18.000Z</time>
      </trkpt>
      <trkpt lat="43.33936" lon="-1.69081">
        <ele>61</ele>
        <time>2026-08-23T13:56:26.000Z</time>
      </trkpt>
      <trkpt lat="43.33869" lon="-1.69059">
        <ele>64</ele>
        <time>2026-08-23T13:56:38.000Z</time>
      </trkpt>
      <trkpt lat="43.33851" lon="-1.69056">
        <ele>65</ele>
        <time>2026-08-23T13:56:42.000Z</time>
      </trkpt>
      <trkpt lat="43.33836" lon="-1.69057">
        <ele>66</ele>
        <time>2026-08-23T13:56:44.000Z</time>
      </trkpt>
      <trkpt lat="43.33819" lon="-1.69062">
        <ele>66</ele>
        <time>2026-08-23T13:56:47.000Z</time>
      </trkpt>
      <trkpt lat="43.3378" lon="-1.69084">
        <ele>65</ele>
        <time>2026-08-23T13:56:55.000Z</time>
      </trkpt>
      <trkpt lat="43.33771" lon="-1.69089">
        <ele>65</ele>
        <time>2026-08-23T13:56:57.000Z</time>
      </trkpt>
      <trkpt lat="43.33746" lon="-1.69098">
        <ele>66</ele>
        <time>2026-08-23T13:57:01.000Z</time>
      </trkpt>
      <trkpt lat="43.33723" lon="-1.691">
        <ele>68</ele>
        <time>2026-08-23T13:57:05.000Z</time>
      </trkpt>
      <trkpt lat="43.33677" lon="-1.691">
        <ele>72</ele>
        <time>2026-08-23T13:57:13.000Z</time>
      </trkpt>
      <trkpt lat="43.33661" lon="-1.69097">
        <ele>73</ele>
        <time>2026-08-23T13:57:16.000Z</time>
      </trkpt>
      <trkpt lat="43.33644" lon="-1.69089">
        <ele>73</ele>
        <time>2026-08-23T13:57:19.000Z</time>
      </trkpt>
      <trkpt lat="43.33629" lon="-1.69075">
        <ele>74</ele>
        <time>2026-08-23T13:57:23.000Z</time>
      </trkpt>
      <trkpt lat="43.33615" lon="-1.69056">
        <ele>76</ele>
        <time>2026-08-23T13:57:26.000Z</time>
      </trkpt>
      <trkpt lat="43.336" lon="-1.69022">
        <ele>81</ele>
        <time>2026-08-23T13:57:31.000Z</time>
      </trkpt>
      <trkpt lat="43.33591" lon="-1.69009">
        <ele>83</ele>
        <time>2026-08-23T13:57:34.000Z</time>
      </trkpt>
      <trkpt lat="43.3358" lon="-1.69005">
        <ele>83</ele>
        <time>2026-08-23T13:57:36.000Z</time>
      </trkpt>
      <trkpt lat="43.33556" lon="-1.69002">
        <ele>82</ele>
        <time>2026-08-23T13:57:40.000Z</time>
      </trkpt>
      <trkpt lat="43.33537" lon="-1.68997">
        <ele>82</ele>
        <time>2026-08-23T13:57:43.000Z</time>
      </trkpt>
      <trkpt lat="43.33517" lon="-1.68989">
        <ele>82</ele>
        <time>2026-08-23T13:57:47.000Z</time>
      </trkpt>
      <trkpt lat="43.335" lon="-1.68976">
        <ele>84</ele>
        <time>2026-08-23T13:57:51.000Z</time>
      </trkpt>
      <trkpt lat="43.33451" lon="-1.68907">
        <ele>91</ele>
        <time>2026-08-23T13:58:03.000Z</time>
      </trkpt>
      <trkpt lat="43.33435" lon="-1.68877">
        <ele>93</ele>
        <time>2026-08-23T13:58:08.000Z</time>
      </trkpt>
      <trkpt lat="43.33426" lon="-1.68841">
        <ele>96</ele>
        <time>2026-08-23T13:58:13.000Z</time>
      </trkpt>
      <trkpt lat="43.33424" lon="-1.68818">
        <ele>98</ele>
        <time>2026-08-23T13:58:16.000Z</time>
      </trkpt>
      <trkpt lat="43.33419" lon="-1.68795">
        <ele>98</ele>
        <time>2026-08-23T13:58:19.000Z</time>
      </trkpt>
      <trkpt lat="43.33404" lon="-1.68755">
        <ele>99</ele>
        <time>2026-08-23T13:58:25.000Z</time>
      </trkpt>
      <trkpt lat="43.33394" lon="-1.68738">
        <ele>98</ele>
        <time>2026-08-23T13:58:28.000Z</time>
      </trkpt>
      <trkpt lat="43.33391" lon="-1.68727">
        <ele>97</ele>
        <time>2026-08-23T13:58:29.000Z</time>
      </trkpt>
      <trkpt lat="43.33392" lon="-1.68671">
        <ele>95</ele>
        <time>2026-08-23T13:58:36.000Z</time>
      </trkpt>
      <trkpt lat="43.33399" lon="-1.68547">
        <ele>91</ele>
        <time>2026-08-23T13:58:52.000Z</time>
      </trkpt>
      <trkpt lat="43.33402" lon="-1.68459">
        <ele>86</ele>
        <time>2026-08-23T13:59:04.000Z</time>
      </trkpt>
      <trkpt lat="43.33408" lon="-1.68325">
        <ele>83</ele>
        <time>2026-08-23T13:59:21.000Z</time>
      </trkpt>
      <trkpt lat="43.33417" lon="-1.68082">
        <ele>75</ele>
        <time>2026-08-23T13:59:53.000Z</time>
      </trkpt>
      <trkpt lat="43.33424" lon="-1.67866">
        <ele>69</ele>
        <time>2026-08-23T14:00:21.000Z</time>
      </trkpt>
      <trkpt lat="43.33429" lon="-1.67776">
        <ele>66</ele>
        <time>2026-08-23T14:00:32.000Z</time>
      </trkpt>
      <trkpt lat="43.33431" lon="-1.67754">
        <ele>66</ele>
        <time>2026-08-23T14:00:35.000Z</time>
      </trkpt>
      <trkpt lat="43.33458" lon="-1.67596">
        <ele>62</ele>
        <time>2026-08-23T14:00:56.000Z</time>
      </trkpt>
      <trkpt lat="43.33465" lon="-1.67543">
        <ele>60</ele>
        <time>2026-08-23T14:01:03.000Z</time>
      </trkpt>
      <trkpt lat="43.33471" lon="-1.67453">
        <ele>58</ele>
        <time>2026-08-23T14:01:15.000Z</time>
      </trkpt>
      <trkpt lat="43.33472" lon="-1.67396">
        <ele>57</ele>
        <time>2026-08-23T14:01:22.000Z</time>
      </trkpt>
      <trkpt lat="43.3347" lon="-1.67366">
        <ele>56</ele>
        <time>2026-08-23T14:01:26.000Z</time>
      </trkpt>
      <trkpt lat="43.33465" lon="-1.67337">
        <ele>55</ele>
        <time>2026-08-23T14:01:30.000Z</time>
      </trkpt>
      <trkpt lat="43.33438" lon="-1.67201">
        <ele>52</ele>
        <time>2026-08-23T14:01:48.000Z</time>
      </trkpt>
      <trkpt lat="43.33438" lon="-1.6714">
        <ele>51</ele>
        <time>2026-08-23T14:01:56.000Z</time>
      </trkpt>
      <trkpt lat="43.33449" lon="-1.66967">
        <ele>52</ele>
        <time>2026-08-23T14:02:19.000Z</time>
      </trkpt>
      <trkpt lat="43.33452" lon="-1.6695">
        <ele>53</ele>
        <time>2026-08-23T14:02:21.000Z</time>
      </trkpt>
      <trkpt lat="43.33461" lon="-1.66923">
        <ele>52</ele>
        <time>2026-08-23T14:02:25.000Z</time>
      </trkpt>
      <trkpt lat="43.33472" lon="-1.669">
        <ele>51</ele>
        <time>2026-08-23T14:02:28.000Z</time>
      </trkpt>
      <trkpt lat="43.33527" lon="-1.66826">
        <ele>46</ele>
        <time>2026-08-23T14:02:42.000Z</time>
      </trkpt>
      <trkpt lat="43.3354" lon="-1.66811">
        <ele>45</ele>
        <time>2026-08-23T14:02:45.000Z</time>
      </trkpt>
      <trkpt lat="43.33551" lon="-1.66806">
        <ele>45</ele>
        <time>2026-08-23T14:02:47.000Z</time>
      </trkpt>
      <trkpt lat="43.3358" lon="-1.668">
        <ele>45</ele>
        <time>2026-08-23T14:02:52.000Z</time>
      </trkpt>
      <trkpt lat="43.33596" lon="-1.66791">
        <ele>45</ele>
        <time>2026-08-23T14:02:55.000Z</time>
      </trkpt>
      <trkpt lat="43.33597" lon="-1.66783">
        <ele>45</ele>
        <time>2026-08-23T14:02:56.000Z</time>
      </trkpt>
      <trkpt lat="43.33602" lon="-1.66779">
        <ele>45</ele>
        <time>2026-08-23T14:02:57.000Z</time>
      </trkpt>
      <trkpt lat="43.33606" lon="-1.66779">
        <ele>45</ele>
        <time>2026-08-23T14:02:58.000Z</time>
      </trkpt>
      <trkpt lat="43.33611" lon="-1.66782">
        <ele>45</ele>
        <time>2026-08-23T14:02:59.000Z</time>
      </trkpt>
      <trkpt lat="43.33621" lon="-1.66781">
        <ele>45</ele>
        <time>2026-08-23T14:03:01.000Z</time>
      </trkpt>
      <trkpt lat="43.33629" lon="-1.66778">
        <ele>45</ele>
        <time>2026-08-23T14:03:02.000Z</time>
      </trkpt>
      <trkpt lat="43.33633" lon="-1.66772">
        <ele>45</ele>
        <time>2026-08-23T14:03:03.000Z</time>
      </trkpt>
      <trkpt lat="43.33641" lon="-1.66759">
        <ele>45</ele>
        <time>2026-08-23T14:03:06.000Z</time>
      </trkpt>
      <trkpt lat="43.33655" lon="-1.66718">
        <ele>47</ele>
        <time>2026-08-23T14:03:12.000Z</time>
      </trkpt>
      <trkpt lat="43.33666" lon="-1.66662">
        <ele>48</ele>
        <time>2026-08-23T14:03:19.000Z</time>
      </trkpt>
      <trkpt lat="43.33672" lon="-1.66622">
        <ele>50</ele>
        <time>2026-08-23T14:03:24.000Z</time>
      </trkpt>
      <trkpt lat="43.33671" lon="-1.66597">
        <ele>50</ele>
        <time>2026-08-23T14:03:28.000Z</time>
      </trkpt>
      <trkpt lat="43.33666" lon="-1.66563">
        <ele>52</ele>
        <time>2026-08-23T14:03:32.000Z</time>
      </trkpt>
      <trkpt lat="43.33661" lon="-1.6654">
        <ele>53</ele>
        <time>2026-08-23T14:03:35.000Z</time>
      </trkpt>
      <trkpt lat="43.33625" lon="-1.66444">
        <ele>59</ele>
        <time>2026-08-23T14:03:49.000Z</time>
      </trkpt>
      <trkpt lat="43.33615" lon="-1.66412">
        <ele>62</ele>
        <time>2026-08-23T14:03:54.000Z</time>
      </trkpt>
      <trkpt lat="43.33608" lon="-1.66377">
        <ele>64</ele>
        <time>2026-08-23T14:03:58.000Z</time>
      </trkpt>
      <trkpt lat="43.33608" lon="-1.66359">
        <ele>65</ele>
        <time>2026-08-23T14:04:01.000Z</time>
      </trkpt>
      <trkpt lat="43.33607" lon="-1.66344">
        <ele>65</ele>
        <time>2026-08-23T14:04:03.000Z</time>
      </trkpt>
      <trkpt lat="43.33615" lon="-1.66263">
        <ele>67</ele>
        <time>2026-08-23T14:04:13.000Z</time>
      </trkpt>
      <trkpt lat="43.33622" lon="-1.6624">
        <ele>67</ele>
        <time>2026-08-23T14:04:16.000Z</time>
      </trkpt>
      <trkpt lat="43.33645" lon="-1.66182">
        <ele>65</ele>
        <time>2026-08-23T14:04:25.000Z</time>
      </trkpt>
      <trkpt lat="43.3365" lon="-1.66164">
        <ele>65</ele>
        <time>2026-08-23T14:04:27.000Z</time>
      </trkpt>
      <trkpt lat="43.33653" lon="-1.66149">
        <ele>66</ele>
        <time>2026-08-23T14:04:29.000Z</time>
      </trkpt>
      <trkpt lat="43.33677" lon="-1.66023">
        <ele>69</ele>
        <time>2026-08-23T14:04:46.000Z</time>
      </trkpt>
      <trkpt lat="43.33678" lon="-1.6602">
        <ele>69</ele>
        <time>2026-08-23T14:04:47.000Z</time>
      </trkpt>
      <trkpt lat="43.33682" lon="-1.65994">
        <ele>69</ele>
        <time>2026-08-23T14:04:50.000Z</time>
      </trkpt>
      <trkpt lat="43.33695" lon="-1.6592">
        <ele>68</ele>
        <time>2026-08-23T14:05:00.000Z</time>
      </trkpt>
      <trkpt lat="43.33716" lon="-1.65754">
        <ele>66</ele>
        <time>2026-08-23T14:05:22.000Z</time>
      </trkpt>
      <trkpt lat="43.3373" lon="-1.65677">
        <ele>64</ele>
        <time>2026-08-23T14:05:32.000Z</time>
      </trkpt>
      <trkpt lat="43.33774" lon="-1.65464">
        <ele>65</ele>
        <time>2026-08-23T14:06:01.000Z</time>
      </trkpt>
      <trkpt lat="43.33776" lon="-1.65454">
        <ele>65</ele>
        <time>2026-08-23T14:06:02.000Z</time>
      </trkpt>
      <trkpt lat="43.33796" lon="-1.65362">
        <ele>62</ele>
        <time>2026-08-23T14:06:15.000Z</time>
      </trkpt>
      <trkpt lat="43.33797" lon="-1.65356">
        <ele>61</ele>
        <time>2026-08-23T14:06:15.000Z</time>
      </trkpt>
      <trkpt lat="43.33832" lon="-1.65197">
        <ele>57</ele>
        <time>2026-08-23T14:06:37.000Z</time>
      </trkpt>
      <trkpt lat="43.33868" lon="-1.65026">
        <ele>50</ele>
        <time>2026-08-23T14:07:00.000Z</time>
      </trkpt>
      <trkpt lat="43.3393" lon="-1.64735">
        <ele>44</ele>
        <time>2026-08-23T14:07:39.000Z</time>
      </trkpt>
      <trkpt lat="43.33943" lon="-1.64674">
        <ele>41</ele>
        <time>2026-08-23T14:07:47.000Z</time>
      </trkpt>
      <trkpt lat="43.33986" lon="-1.64473">
        <ele>37</ele>
        <time>2026-08-23T14:08:14.000Z</time>
      </trkpt>
      <trkpt lat="43.34019" lon="-1.64309">
        <ele>35</ele>
        <time>2026-08-23T14:08:36.000Z</time>
      </trkpt>
      <trkpt lat="43.34023" lon="-1.64283">
        <ele>35</ele>
        <time>2026-08-23T14:08:40.000Z</time>
      </trkpt>
      <trkpt lat="43.34024" lon="-1.64261">
        <ele>35</ele>
        <time>2026-08-23T14:08:43.000Z</time>
      </trkpt>
      <trkpt lat="43.34022" lon="-1.64205">
        <ele>35</ele>
        <time>2026-08-23T14:08:50.000Z</time>
      </trkpt>
      <trkpt lat="43.34024" lon="-1.64173">
        <ele>35</ele>
        <time>2026-08-23T14:08:54.000Z</time>
      </trkpt>
      <trkpt lat="43.3403" lon="-1.64148">
        <ele>35</ele>
        <time>2026-08-23T14:08:58.000Z</time>
      </trkpt>
      <trkpt lat="43.34039" lon="-1.64126">
        <ele>36</ele>
        <time>2026-08-23T14:09:01.000Z</time>
      </trkpt>
      <trkpt lat="43.34062" lon="-1.64097">
        <ele>37</ele>
        <time>2026-08-23T14:09:06.000Z</time>
      </trkpt>
      <trkpt lat="43.34096" lon="-1.64075">
        <ele>39</ele>
        <time>2026-08-23T14:09:13.000Z</time>
      </trkpt>
      <trkpt lat="43.34139" lon="-1.64055">
        <ele>43</ele>
        <time>2026-08-23T14:09:21.000Z</time>
      </trkpt>
      <trkpt lat="43.34156" lon="-1.6404">
        <ele>45</ele>
        <time>2026-08-23T14:09:25.000Z</time>
      </trkpt>
      <trkpt lat="43.34177" lon="-1.64013">
        <ele>47</ele>
        <time>2026-08-23T14:09:30.000Z</time>
      </trkpt>
      <trkpt lat="43.34187" lon="-1.63993">
        <ele>48</ele>
        <time>2026-08-23T14:09:33.000Z</time>
      </trkpt>
      <trkpt lat="43.34205" lon="-1.63948">
        <ele>48</ele>
        <time>2026-08-23T14:09:40.000Z</time>
      </trkpt>
      <trkpt lat="43.34219" lon="-1.63911">
        <ele>48</ele>
        <time>2026-08-23T14:09:45.000Z</time>
      </trkpt>
      <trkpt lat="43.34226" lon="-1.63883">
        <ele>49</ele>
        <time>2026-08-23T14:09:49.000Z</time>
      </trkpt>
      <trkpt lat="43.34229" lon="-1.63858">
        <ele>49</ele>
        <time>2026-08-23T14:09:52.000Z</time>
      </trkpt>
      <trkpt lat="43.34228" lon="-1.63827">
        <ele>50</ele>
        <time>2026-08-23T14:09:56.000Z</time>
      </trkpt>
      <trkpt lat="43.34223" lon="-1.63792">
        <ele>51</ele>
        <time>2026-08-23T14:10:01.000Z</time>
      </trkpt>
      <trkpt lat="43.34214" lon="-1.63753">
        <ele>51</ele>
        <time>2026-08-23T14:10:06.000Z</time>
      </trkpt>
      <trkpt lat="43.34211" lon="-1.63746">
        <ele>51</ele>
        <time>2026-08-23T14:10:07.000Z</time>
      </trkpt>
      <trkpt lat="43.34207" lon="-1.63727">
        <ele>50</ele>
        <time>2026-08-23T14:10:10.000Z</time>
      </trkpt>
      <trkpt lat="43.34206" lon="-1.63713">
        <ele>50</ele>
        <time>2026-08-23T14:10:12.000Z</time>
      </trkpt>
      <trkpt lat="43.34207" lon="-1.63691">
        <ele>49</ele>
        <time>2026-08-23T14:10:14.000Z</time>
      </trkpt>
      <trkpt lat="43.34214" lon="-1.63668">
        <ele>49</ele>
        <time>2026-08-23T14:10:18.000Z</time>
      </trkpt>
      <trkpt lat="43.34216" lon="-1.6366">
        <ele>48</ele>
        <time>2026-08-23T14:10:19.000Z</time>
      </trkpt>
      <trkpt lat="43.34246" lon="-1.63597">
        <ele>46</ele>
        <time>2026-08-23T14:10:28.000Z</time>
      </trkpt>
      <trkpt lat="43.34258" lon="-1.63562">
        <ele>44</ele>
        <time>2026-08-23T14:10:33.000Z</time>
      </trkpt>
      <trkpt lat="43.34262" lon="-1.63522">
        <ele>42</ele>
        <time>2026-08-23T14:10:39.000Z</time>
      </trkpt>
      <trkpt lat="43.3426" lon="-1.63493">
        <ele>40</ele>
        <time>2026-08-23T14:10:42.000Z</time>
      </trkpt>
      <trkpt lat="43.34257" lon="-1.63481">
        <ele>40</ele>
        <time>2026-08-23T14:10:44.000Z</time>
      </trkpt>
      <trkpt lat="43.34245" lon="-1.63447">
        <ele>39</ele>
        <time>2026-08-23T14:10:49.000Z</time>
      </trkpt>
      <trkpt lat="43.34224" lon="-1.63385">
        <ele>37</ele>
        <time>2026-08-23T14:10:58.000Z</time>
      </trkpt>
      <trkpt lat="43.34222" lon="-1.63363">
        <ele>36</ele>
        <time>2026-08-23T14:11:01.000Z</time>
      </trkpt>
      <trkpt lat="43.34227" lon="-1.63343">
        <ele>36</ele>
        <time>2026-08-23T14:11:03.000Z</time>
      </trkpt>
      <trkpt lat="43.34276" lon="-1.63237">
        <ele>35</ele>
        <time>2026-08-23T14:11:20.000Z</time>
      </trkpt>
      <trkpt lat="43.34285" lon="-1.63212">
        <ele>33</ele>
        <time>2026-08-23T14:11:23.000Z</time>
      </trkpt>
      <trkpt lat="43.34294" lon="-1.63188">
        <ele>32</ele>
        <time>2026-08-23T14:11:27.000Z</time>
      </trkpt>
      <trkpt lat="43.34322" lon="-1.63071">
        <ele>27</ele>
        <time>2026-08-23T14:11:43.000Z</time>
      </trkpt>
      <trkpt lat="43.34325" lon="-1.63063">
        <ele>26</ele>
        <time>2026-08-23T14:11:44.000Z</time>
      </trkpt>
      <trkpt lat="43.34333" lon="-1.63028">
        <ele>22</ele>
        <time>2026-08-23T14:11:49.000Z</time>
      </trkpt>
      <trkpt lat="43.34344" lon="-1.62964">
        <ele>17</ele>
        <time>2026-08-23T14:11:57.000Z</time>
      </trkpt>
      <trkpt lat="43.34355" lon="-1.62855">
        <ele>12</ele>
        <time>2026-08-23T14:12:11.000Z</time>
      </trkpt>
      <trkpt lat="43.34362" lon="-1.62749">
        <ele>13</ele>
        <time>2026-08-23T14:12:25.000Z</time>
      </trkpt>
      <trkpt lat="43.34361" lon="-1.6265">
        <ele>16</ele>
        <time>2026-08-23T14:12:38.000Z</time>
      </trkpt>
      <trkpt lat="43.3436" lon="-1.62626">
        <ele>17</ele>
        <time>2026-08-23T14:12:41.000Z</time>
      </trkpt>
      <trkpt lat="43.34362" lon="-1.62606">
        <ele>18</ele>
        <time>2026-08-23T14:12:44.000Z</time>
      </trkpt>
      <trkpt lat="43.34366" lon="-1.6258">
        <ele>19</ele>
        <time>2026-08-23T14:12:47.000Z</time>
      </trkpt>
      <trkpt lat="43.34385" lon="-1.62513">
        <ele>22</ele>
        <time>2026-08-23T14:12:56.000Z</time>
      </trkpt>
      <trkpt lat="43.3441" lon="-1.62438">
        <ele>24</ele>
        <time>2026-08-23T14:13:07.000Z</time>
      </trkpt>
      <trkpt lat="43.34413" lon="-1.62431">
        <ele>24</ele>
        <time>2026-08-23T14:13:08.000Z</time>
      </trkpt>
      <trkpt lat="43.34437" lon="-1.624">
        <ele>24</ele>
        <time>2026-08-23T14:13:14.000Z</time>
      </trkpt>
      <trkpt lat="43.34446" lon="-1.62381">
        <ele>23</ele>
        <time>2026-08-23T14:13:17.000Z</time>
      </trkpt>
      <trkpt lat="43.34448" lon="-1.62357">
        <ele>22</ele>
        <time>2026-08-23T14:13:20.000Z</time>
      </trkpt>
      <trkpt lat="43.34444" lon="-1.62311">
        <ele>21</ele>
        <time>2026-08-23T14:13:26.000Z</time>
      </trkpt>
      <trkpt lat="43.34409" lon="-1.62295">
        <ele>22</ele>
        <time>2026-08-23T14:13:33.000Z</time>
      </trkpt>
      <trkpt lat="43.34311" lon="-1.62244">
        <ele>27</ele>
        <time>2026-08-23T14:13:51.000Z</time>
      </trkpt>
      <trkpt lat="43.34293" lon="-1.62237">
        <ele>28</ele>
        <time>2026-08-23T14:13:55.000Z</time>
      </trkpt>
      <trkpt lat="43.34238" lon="-1.62228">
        <ele>32</ele>
        <time>2026-08-23T14:14:04.000Z</time>
      </trkpt>
      <trkpt lat="43.34212" lon="-1.62216">
        <ele>35</ele>
        <time>2026-08-23T14:14:09.000Z</time>
      </trkpt>
      <trkpt lat="43.34201" lon="-1.62208">
        <ele>36</ele>
        <time>2026-08-23T14:14:12.000Z</time>
      </trkpt>
      <trkpt lat="43.34188" lon="-1.62166">
        <ele>39</ele>
        <time>2026-08-23T14:14:17.000Z</time>
      </trkpt>
      <trkpt lat="43.34168" lon="-1.62131">
        <ele>41</ele>
        <time>2026-08-23T14:14:23.000Z</time>
      </trkpt>
      <trkpt lat="43.34148" lon="-1.62061">
        <ele>42</ele>
        <time>2026-08-23T14:14:33.000Z</time>
      </trkpt>
      <trkpt lat="43.34119" lon="-1.62014">
        <ele>44</ele>
        <time>2026-08-23T14:14:41.000Z</time>
      </trkpt>
      <trkpt lat="43.3412" lon="-1.62004">
        <ele>44</ele>
        <time>2026-08-23T14:14:42.000Z</time>
      </trkpt>
      <trkpt lat="43.34122" lon="-1.61995">
        <ele>44</ele>
        <time>2026-08-23T14:14:43.000Z</time>
      </trkpt>
      <trkpt lat="43.34128" lon="-1.61988">
        <ele>43</ele>
        <time>2026-08-23T14:14:45.000Z</time>
      </trkpt>
      <trkpt lat="43.34166" lon="-1.61977">
        <ele>41</ele>
        <time>2026-08-23T14:14:52.000Z</time>
      </trkpt>
      <trkpt lat="43.34179" lon="-1.61974">
        <ele>41</ele>
        <time>2026-08-23T14:14:54.000Z</time>
      </trkpt>
      <trkpt lat="43.34209" lon="-1.61969">
        <ele>39</ele>
        <time>2026-08-23T14:15:00.000Z</time>
      </trkpt>
      <trkpt lat="43.34263" lon="-1.61955">
        <ele>36</ele>
        <time>2026-08-23T14:15:09.000Z</time>
      </trkpt>
      <trkpt lat="43.34346" lon="-1.61937">
        <ele>30</ele>
        <time>2026-08-23T14:15:24.000Z</time>
      </trkpt>
      <trkpt lat="43.34367" lon="-1.61934">
        <ele>28</ele>
        <time>2026-08-23T14:15:28.000Z</time>
      </trkpt>
      <trkpt lat="43.34385" lon="-1.61931">
        <ele>26</ele>
        <time>2026-08-23T14:15:31.000Z</time>
      </trkpt>
      <trkpt lat="43.34381" lon="-1.61901">
        <ele>25</ele>
        <time>2026-08-23T14:15:35.000Z</time>
      </trkpt>
      <trkpt lat="43.3438" lon="-1.61879">
        <ele>24</ele>
        <time>2026-08-23T14:15:38.000Z</time>
      </trkpt>
      <trkpt lat="43.34379" lon="-1.61719">
        <ele>24</ele>
        <time>2026-08-23T14:15:59.000Z</time>
      </trkpt>
      <trkpt lat="43.34378" lon="-1.61699">
        <ele>25</ele>
        <time>2026-08-23T14:16:01.000Z</time>
      </trkpt>
      <trkpt lat="43.34377" lon="-1.61689">
        <ele>26</ele>
        <time>2026-08-23T14:16:03.000Z</time>
      </trkpt>
      <trkpt lat="43.34364" lon="-1.61649">
        <ele>29</ele>
        <time>2026-08-23T14:16:08.000Z</time>
      </trkpt>
      <trkpt lat="43.34356" lon="-1.61637">
        <ele>30</ele>
        <time>2026-08-23T14:16:10.000Z</time>
      </trkpt>
      <trkpt lat="43.34345" lon="-1.61629">
        <ele>32</ele>
        <time>2026-08-23T14:16:13.000Z</time>
      </trkpt>
      <trkpt lat="43.34319" lon="-1.61627">
        <ele>34</ele>
        <time>2026-08-23T14:16:17.000Z</time>
      </trkpt>
      <trkpt lat="43.34233" lon="-1.61618">
        <ele>42</ele>
        <time>2026-08-23T14:16:33.000Z</time>
      </trkpt>
      <trkpt lat="43.34147" lon="-1.61609">
        <ele>45</ele>
        <time>2026-08-23T14:16:48.000Z</time>
      </trkpt>
      <trkpt lat="43.34092" lon="-1.61623">
        <ele>46</ele>
        <time>2026-08-23T14:16:58.000Z</time>
      </trkpt>
      <trkpt lat="43.34077" lon="-1.61621">
        <ele>46</ele>
        <time>2026-08-23T14:17:01.000Z</time>
      </trkpt>
      <trkpt lat="43.3406" lon="-1.61609">
        <ele>48</ele>
        <time>2026-08-23T14:17:04.000Z</time>
      </trkpt>
      <trkpt lat="43.34025" lon="-1.61572">
        <ele>55</ele>
        <time>2026-08-23T14:17:12.000Z</time>
      </trkpt>
      <trkpt lat="43.34008" lon="-1.61565">
        <ele>57</ele>
        <time>2026-08-23T14:17:15.000Z</time>
      </trkpt>
      <trkpt lat="43.33962" lon="-1.61557">
        <ele>59</ele>
        <time>2026-08-23T14:17:23.000Z</time>
      </trkpt>
      <trkpt lat="43.33942" lon="-1.61559">
        <ele>58</ele>
        <time>2026-08-23T14:17:27.000Z</time>
      </trkpt>
      <trkpt lat="43.3392" lon="-1.61564">
        <ele>56</ele>
        <time>2026-08-23T14:17:31.000Z</time>
      </trkpt>
      <trkpt lat="43.33892" lon="-1.61563">
        <ele>58</ele>
        <time>2026-08-23T14:17:36.000Z</time>
      </trkpt>
      <trkpt lat="43.33868" lon="-1.61571">
        <ele>57</ele>
        <time>2026-08-23T14:17:40.000Z</time>
      </trkpt>
      <trkpt lat="43.33835" lon="-1.61567">
        <ele>61</ele>
        <time>2026-08-23T14:17:46.000Z</time>
      </trkpt>
      <trkpt lat="43.33807" lon="-1.61573">
        <ele>62</ele>
        <time>2026-08-23T14:17:51.000Z</time>
      </trkpt>
      <trkpt lat="43.33788" lon="-1.61574">
        <ele>63</ele>
        <time>2026-08-23T14:17:54.000Z</time>
      </trkpt>
      <trkpt lat="43.33722" lon="-1.61552">
        <ele>71</ele>
        <time>2026-08-23T14:18:07.000Z</time>
      </trkpt>
      <trkpt lat="43.33696" lon="-1.61543">
        <ele>73</ele>
        <time>2026-08-23T14:18:11.000Z</time>
      </trkpt>
      <trkpt lat="43.33654" lon="-1.61499">
        <ele>80</ele>
        <time>2026-08-23T14:18:21.000Z</time>
      </trkpt>
      <trkpt lat="43.33615" lon="-1.61479">
        <ele>79</ele>
        <time>2026-08-23T14:18:28.000Z</time>
      </trkpt>
      <trkpt lat="43.33602" lon="-1.61468">
        <ele>79</ele>
        <time>2026-08-23T14:18:31.000Z</time>
      </trkpt>
      <trkpt lat="43.3359" lon="-1.6145">
        <ele>81</ele>
        <time>2026-08-23T14:18:34.000Z</time>
      </trkpt>
      <trkpt lat="43.33576" lon="-1.6142">
        <ele>85</ele>
        <time>2026-08-23T14:18:39.000Z</time>
      </trkpt>
      <trkpt lat="43.33566" lon="-1.61407">
        <ele>85</ele>
        <time>2026-08-23T14:18:41.000Z</time>
      </trkpt>
      <trkpt lat="43.33546" lon="-1.61387">
        <ele>84</ele>
        <time>2026-08-23T14:18:45.000Z</time>
      </trkpt>
      <trkpt lat="43.33539" lon="-1.61369">
        <ele>86</ele>
        <time>2026-08-23T14:18:48.000Z</time>
      </trkpt>
      <trkpt lat="43.33538" lon="-1.61319">
        <ele>95</ele>
        <time>2026-08-23T14:18:55.000Z</time>
      </trkpt>
      <trkpt lat="43.33531" lon="-1.61302">
        <ele>97</ele>
        <time>2026-08-23T14:18:57.000Z</time>
      </trkpt>
      <trkpt lat="43.33501" lon="-1.61281">
        <ele>95</ele>
        <time>2026-08-23T14:19:03.000Z</time>
      </trkpt>
      <trkpt lat="43.3348" lon="-1.61233">
        <ele>101</ele>
        <time>2026-08-23T14:19:10.000Z</time>
      </trkpt>
      <trkpt lat="43.33471" lon="-1.61223">
        <ele>101</ele>
        <time>2026-08-23T14:19:12.000Z</time>
      </trkpt>
      <trkpt lat="43.33457" lon="-1.61218">
        <ele>98</ele>
        <time>2026-08-23T14:19:15.000Z</time>
      </trkpt>
      <trkpt lat="43.33448" lon="-1.61219">
        <ele>95</ele>
        <time>2026-08-23T14:19:17.000Z</time>
      </trkpt>
      <trkpt lat="43.3344" lon="-1.61214">
        <ele>94</ele>
        <time>2026-08-23T14:19:18.000Z</time>
      </trkpt>
      <trkpt lat="43.33431" lon="-1.612">
        <ele>94</ele>
        <time>2026-08-23T14:19:21.000Z</time>
      </trkpt>
      <trkpt lat="43.33423" lon="-1.6117">
        <ele>97</ele>
        <time>2026-08-23T14:19:25.000Z</time>
      </trkpt>
      <trkpt lat="43.33421" lon="-1.61125">
        <ele>100</ele>
        <time>2026-08-23T14:19:31.000Z</time>
      </trkpt>
      <trkpt lat="43.33423" lon="-1.61102">
        <ele>103</ele>
        <time>2026-08-23T14:19:34.000Z</time>
      </trkpt>
      <trkpt lat="43.33427" lon="-1.61087">
        <ele>107</ele>
        <time>2026-08-23T14:19:36.000Z</time>
      </trkpt>
      <trkpt lat="43.33429" lon="-1.61078">
        <ele>108</ele>
        <time>2026-08-23T14:19:37.000Z</time>
      </trkpt>
      <trkpt lat="43.3343" lon="-1.61045">
        <ele>108</ele>
        <time>2026-08-23T14:19:41.000Z</time>
      </trkpt>
      <trkpt lat="43.33439" lon="-1.61015">
        <ele>112</ele>
        <time>2026-08-23T14:19:45.000Z</time>
      </trkpt>
      <trkpt lat="43.33458" lon="-1.61001">
        <ele>119</ele>
        <time>2026-08-23T14:19:49.000Z</time>
      </trkpt>
      <trkpt lat="43.33461" lon="-1.60989">
        <ele>121</ele>
        <time>2026-08-23T14:19:51.000Z</time>
      </trkpt>
      <trkpt lat="43.33457" lon="-1.60973">
        <ele>121</ele>
        <time>2026-08-23T14:19:53.000Z</time>
      </trkpt>
      <trkpt lat="43.33441" lon="-1.60956">
        <ele>116</ele>
        <time>2026-08-23T14:19:57.000Z</time>
      </trkpt>
      <trkpt lat="43.33435" lon="-1.60941">
        <ele>115</ele>
        <time>2026-08-23T14:19:59.000Z</time>
      </trkpt>
      <trkpt lat="43.33434" lon="-1.60918">
        <ele>117</ele>
        <time>2026-08-23T14:20:02.000Z</time>
      </trkpt>
      <trkpt lat="43.33442" lon="-1.60876">
        <ele>127</ele>
        <time>2026-08-23T14:20:07.000Z</time>
      </trkpt>
      <trkpt lat="43.33441" lon="-1.60858">
        <ele>130</ele>
        <time>2026-08-23T14:20:10.000Z</time>
      </trkpt>
      <trkpt lat="43.33434" lon="-1.60846">
        <ele>130</ele>
        <time>2026-08-23T14:20:12.000Z</time>
      </trkpt>
      <trkpt lat="43.33424" lon="-1.60845">
        <ele>127</ele>
        <time>2026-08-23T14:20:13.000Z</time>
      </trkpt>
      <trkpt lat="43.33401" lon="-1.60853">
        <ele>121</ele>
        <time>2026-08-23T14:20:18.000Z</time>
      </trkpt>
      <trkpt lat="43.3339" lon="-1.60852">
        <ele>119</ele>
        <time>2026-08-23T14:20:20.000Z</time>
      </trkpt>
      <trkpt lat="43.33373" lon="-1.60836">
        <ele>120</ele>
        <time>2026-08-23T14:20:23.000Z</time>
      </trkpt>
      <trkpt lat="43.33359" lon="-1.60813">
        <ele>122</ele>
        <time>2026-08-23T14:20:27.000Z</time>
      </trkpt>
      <trkpt lat="43.33353" lon="-1.60788">
        <ele>125</ele>
        <time>2026-08-23T14:20:31.000Z</time>
      </trkpt>
      <trkpt lat="43.33353" lon="-1.60767">
        <ele>129</ele>
        <time>2026-08-23T14:20:33.000Z</time>
      </trkpt>
      <trkpt lat="43.33344" lon="-1.60746">
        <ele>131</ele>
        <time>2026-08-23T14:20:37.000Z</time>
      </trkpt>
      <trkpt lat="43.33331" lon="-1.60735">
        <ele>131</ele>
        <time>2026-08-23T14:20:39.000Z</time>
      </trkpt>
      <trkpt lat="43.33317" lon="-1.60728">
        <ele>129</ele>
        <time>2026-08-23T14:20:42.000Z</time>
      </trkpt>
      <trkpt lat="43.33268" lon="-1.60651">
        <ele>132</ele>
        <time>2026-08-23T14:20:55.000Z</time>
      </trkpt>
      <trkpt lat="43.33249" lon="-1.60601">
        <ele>136</ele>
        <time>2026-08-23T14:21:02.000Z</time>
      </trkpt>
      <trkpt lat="43.33243" lon="-1.6057">
        <ele>140</ele>
        <time>2026-08-23T14:21:07.000Z</time>
      </trkpt>
      <trkpt lat="43.33247" lon="-1.60524">
        <ele>147</ele>
        <time>2026-08-23T14:21:13.000Z</time>
      </trkpt>
      <trkpt lat="43.33244" lon="-1.60513">
        <ele>148</ele>
        <time>2026-08-23T14:21:14.000Z</time>
      </trkpt>
      <trkpt lat="43.33234" lon="-1.60504">
        <ele>146</ele>
        <time>2026-08-23T14:21:16.000Z</time>
      </trkpt>
      <trkpt lat="43.33212" lon="-1.60497">
        <ele>141</ele>
        <time>2026-08-23T14:21:20.000Z</time>
      </trkpt>
      <trkpt lat="43.33199" lon="-1.60488">
        <ele>139</ele>
        <time>2026-08-23T14:21:23.000Z</time>
      </trkpt>
      <trkpt lat="43.33185" lon="-1.60466">
        <ele>139</ele>
        <time>2026-08-23T14:21:27.000Z</time>
      </trkpt>
      <trkpt lat="43.33178" lon="-1.60436">
        <ele>142</ele>
        <time>2026-08-23T14:21:31.000Z</time>
      </trkpt>
      <trkpt lat="43.33174" lon="-1.60406">
        <ele>145</ele>
        <time>2026-08-23T14:21:35.000Z</time>
      </trkpt>
      <trkpt lat="43.33156" lon="-1.60359">
        <ele>148</ele>
        <time>2026-08-23T14:21:42.000Z</time>
      </trkpt>
      <trkpt lat="43.33143" lon="-1.60316">
        <ele>150</ele>
        <time>2026-08-23T14:21:48.000Z</time>
      </trkpt>
      <trkpt lat="43.33132" lon="-1.60297">
        <ele>150</ele>
        <time>2026-08-23T14:21:51.000Z</time>
      </trkpt>
      <trkpt lat="43.3311" lon="-1.60273">
        <ele>151</ele>
        <time>2026-08-23T14:21:56.000Z</time>
      </trkpt>
      <trkpt lat="43.33094" lon="-1.60262">
        <ele>152</ele>
        <time>2026-08-23T14:21:59.000Z</time>
      </trkpt>
      <trkpt lat="43.33071" lon="-1.60251">
        <ele>152</ele>
        <time>2026-08-23T14:22:03.000Z</time>
      </trkpt>
      <trkpt lat="43.33019" lon="-1.60227">
        <ele>155</ele>
        <time>2026-08-23T14:22:13.000Z</time>
      </trkpt>
      <trkpt lat="43.32981" lon="-1.60215">
        <ele>158</ele>
        <time>2026-08-23T14:22:20.000Z</time>
      </trkpt>
      <trkpt lat="43.32831" lon="-1.60196">
        <ele>163</ele>
        <time>2026-08-23T14:22:47.000Z</time>
      </trkpt>
      <trkpt lat="43.32792" lon="-1.60191">
        <ele>164</ele>
        <time>2026-08-23T14:22:54.000Z</time>
      </trkpt>
      <trkpt lat="43.32772" lon="-1.60187">
        <ele>164</ele>
        <time>2026-08-23T14:22:57.000Z</time>
      </trkpt>
      <trkpt lat="43.32751" lon="-1.60178">
        <ele>166</ele>
        <time>2026-08-23T14:23:01.000Z</time>
      </trkpt>
      <trkpt lat="43.32714" lon="-1.60151">
        <ele>168</ele>
        <time>2026-08-23T14:23:09.000Z</time>
      </trkpt>
      <trkpt lat="43.32685" lon="-1.60134">
        <ele>169</ele>
        <time>2026-08-23T14:23:14.000Z</time>
      </trkpt>
      <trkpt lat="43.32605" lon="-1.60107">
        <ele>169</ele>
        <time>2026-08-23T14:23:29.000Z</time>
      </trkpt>
      <trkpt lat="43.32596" lon="-1.60104">
        <ele>168</ele>
        <time>2026-08-23T14:23:31.000Z</time>
      </trkpt>
      <trkpt lat="43.32578" lon="-1.60097">
        <ele>168</ele>
        <time>2026-08-23T14:23:34.000Z</time>
      </trkpt>
      <trkpt lat="43.32561" lon="-1.60087">
        <ele>170</ele>
        <time>2026-08-23T14:23:37.000Z</time>
      </trkpt>
      <trkpt lat="43.32529" lon="-1.60061">
        <ele>173</ele>
        <time>2026-08-23T14:23:44.000Z</time>
      </trkpt>
      <trkpt lat="43.32517" lon="-1.60054">
        <ele>174</ele>
        <time>2026-08-23T14:23:46.000Z</time>
      </trkpt>
      <trkpt lat="43.32507" lon="-1.60054">
        <ele>173</ele>
        <time>2026-08-23T14:23:48.000Z</time>
      </trkpt>
      <trkpt lat="43.32498" lon="-1.60056">
        <ele>173</ele>
        <time>2026-08-23T14:23:49.000Z</time>
      </trkpt>
      <trkpt lat="43.3249" lon="-1.60061">
        <ele>173</ele>
        <time>2026-08-23T14:23:51.000Z</time>
      </trkpt>
      <trkpt lat="43.32467" lon="-1.60081">
        <ele>173</ele>
        <time>2026-08-23T14:23:56.000Z</time>
      </trkpt>
      <trkpt lat="43.32452" lon="-1.60094">
        <ele>176</ele>
        <time>2026-08-23T14:23:59.000Z</time>
      </trkpt>
      <trkpt lat="43.32447" lon="-1.60099">
        <ele>177</ele>
        <time>2026-08-23T14:24:00.000Z</time>
      </trkpt>
      <trkpt lat="43.32438" lon="-1.60104">
        <ele>179</ele>
        <time>2026-08-23T14:24:02.000Z</time>
      </trkpt>
      <trkpt lat="43.32431" lon="-1.60103">
        <ele>180</ele>
        <time>2026-08-23T14:24:03.000Z</time>
      </trkpt>
      <trkpt lat="43.32424" lon="-1.60098">
        <ele>179</ele>
        <time>2026-08-23T14:24:05.000Z</time>
      </trkpt>
      <trkpt lat="43.32388" lon="-1.60045">
        <ele>180</ele>
        <time>2026-08-23T14:24:14.000Z</time>
      </trkpt>
      <trkpt lat="43.32378" lon="-1.60034">
        <ele>180</ele>
        <time>2026-08-23T14:24:16.000Z</time>
      </trkpt>
      <trkpt lat="43.32367" lon="-1.60027">
        <ele>181</ele>
        <time>2026-08-23T14:24:18.000Z</time>
      </trkpt>
      <trkpt lat="43.32329" lon="-1.60012">
        <ele>184</ele>
        <time>2026-08-23T14:24:25.000Z</time>
      </trkpt>
      <trkpt lat="43.32306" lon="-1.59999">
        <ele>184</ele>
        <time>2026-08-23T14:24:30.000Z</time>
      </trkpt>
      <trkpt lat="43.32286" lon="-1.59984">
        <ele>184</ele>
        <time>2026-08-23T14:24:34.000Z</time>
      </trkpt>
      <trkpt lat="43.32265" lon="-1.59959">
        <ele>181</ele>
        <time>2026-08-23T14:24:39.000Z</time>
      </trkpt>
      <trkpt lat="43.32252" lon="-1.59949">
        <ele>180</ele>
        <time>2026-08-23T14:24:41.000Z</time>
      </trkpt>
      <trkpt lat="43.32242" lon="-1.59947">
        <ele>181</ele>
        <time>2026-08-23T14:24:43.000Z</time>
      </trkpt>
      <trkpt lat="43.3223" lon="-1.59953">
        <ele>183</ele>
        <time>2026-08-23T14:24:46.000Z</time>
      </trkpt>
      <trkpt lat="43.32203" lon="-1.5999">
        <ele>191</ele>
        <time>2026-08-23T14:24:52.000Z</time>
      </trkpt>
      <trkpt lat="43.32191" lon="-1.59993">
        <ele>192</ele>
        <time>2026-08-23T14:24:54.000Z</time>
      </trkpt>
      <trkpt lat="43.32187" lon="-1.5999">
        <ele>192</ele>
        <time>2026-08-23T14:24:55.000Z</time>
      </trkpt>
      <trkpt lat="43.32183" lon="-1.59986">
        <ele>191</ele>
        <time>2026-08-23T14:24:56.000Z</time>
      </trkpt>
      <trkpt lat="43.32181" lon="-1.59981">
        <ele>191</ele>
        <time>2026-08-23T14:24:57.000Z</time>
      </trkpt>
      <trkpt lat="43.32182" lon="-1.59969">
        <ele>189</ele>
        <time>2026-08-23T14:24:58.000Z</time>
      </trkpt>
      <trkpt lat="43.32189" lon="-1.59943">
        <ele>184</ele>
        <time>2026-08-23T14:25:02.000Z</time>
      </trkpt>
      <trkpt lat="43.3219" lon="-1.59928">
        <ele>182</ele>
        <time>2026-08-23T14:25:04.000Z</time>
      </trkpt>
      <trkpt lat="43.32187" lon="-1.59887">
        <ele>178</ele>
        <time>2026-08-23T14:25:09.000Z</time>
      </trkpt>
      <trkpt lat="43.32184" lon="-1.59866">
        <ele>177</ele>
        <time>2026-08-23T14:25:12.000Z</time>
      </trkpt>
      <trkpt lat="43.32172" lon="-1.59841">
        <ele>177</ele>
        <time>2026-08-23T14:25:16.000Z</time>
      </trkpt>
      <trkpt lat="43.32155" lon="-1.5982">
        <ele>175</ele>
        <time>2026-08-23T14:25:20.000Z</time>
      </trkpt>
      <trkpt lat="43.32138" lon="-1.59812">
        <ele>174</ele>
        <time>2026-08-23T14:25:23.000Z</time>
      </trkpt>
      <trkpt lat="43.32103" lon="-1.59803">
        <ele>175</ele>
        <time>2026-08-23T14:25:30.000Z</time>
      </trkpt>
      <trkpt lat="43.3206" lon="-1.59781">
        <ele>169</ele>
        <time>2026-08-23T14:25:38.000Z</time>
      </trkpt>
      <trkpt lat="43.32052" lon="-1.59779">
        <ele>167</ele>
        <time>2026-08-23T14:25:39.000Z</time>
      </trkpt>
      <trkpt lat="43.32042" lon="-1.59788">
        <ele>168</ele>
        <time>2026-08-23T14:25:41.000Z</time>
      </trkpt>
      <trkpt lat="43.32027" lon="-1.59816">
        <ele>173</ele>
        <time>2026-08-23T14:25:46.000Z</time>
      </trkpt>
      <trkpt lat="43.32021" lon="-1.59824">
        <ele>174</ele>
        <time>2026-08-23T14:25:47.000Z</time>
      </trkpt>
      <trkpt lat="43.32" lon="-1.59835">
        <ele>173</ele>
        <time>2026-08-23T14:25:51.000Z</time>
      </trkpt>
      <trkpt lat="43.31976" lon="-1.59855">
        <ele>178</ele>
        <time>2026-08-23T14:25:56.000Z</time>
      </trkpt>
      <trkpt lat="43.3197" lon="-1.59856">
        <ele>178</ele>
        <time>2026-08-23T14:25:57.000Z</time>
      </trkpt>
      <trkpt lat="43.31957" lon="-1.5985">
        <ele>177</ele>
        <time>2026-08-23T14:26:00.000Z</time>
      </trkpt>
      <trkpt lat="43.31932" lon="-1.5983">
        <ele>171</ele>
        <time>2026-08-23T14:26:05.000Z</time>
      </trkpt>
      <trkpt lat="43.3192" lon="-1.59822">
        <ele>170</ele>
        <time>2026-08-23T14:26:07.000Z</time>
      </trkpt>
      <trkpt lat="43.31893" lon="-1.59824">
        <ele>172</ele>
        <time>2026-08-23T14:26:12.000Z</time>
      </trkpt>
      <trkpt lat="43.31884" lon="-1.59819">
        <ele>172</ele>
        <time>2026-08-23T14:26:14.000Z</time>
      </trkpt>
      <trkpt lat="43.31879" lon="-1.59813">
        <ele>171</ele>
        <time>2026-08-23T14:26:15.000Z</time>
      </trkpt>
      <trkpt lat="43.31875" lon="-1.59804">
        <ele>170</ele>
        <time>2026-08-23T14:26:16.000Z</time>
      </trkpt>
      <trkpt lat="43.31874" lon="-1.59797">
        <ele>169</ele>
        <time>2026-08-23T14:26:17.000Z</time>
      </trkpt>
      <trkpt lat="43.31871" lon="-1.59792">
        <ele>168</ele>
        <time>2026-08-23T14:26:18.000Z</time>
      </trkpt>
      <trkpt lat="43.31864" lon="-1.59784">
        <ele>167</ele>
        <time>2026-08-23T14:26:20.000Z</time>
      </trkpt>
      <trkpt lat="43.31825" lon="-1.59764">
        <ele>167</ele>
        <time>2026-08-23T14:26:27.000Z</time>
      </trkpt>
      <trkpt lat="43.31813" lon="-1.59751">
        <ele>167</ele>
        <time>2026-08-23T14:26:30.000Z</time>
      </trkpt>
      <trkpt lat="43.31793" lon="-1.59726">
        <ele>166</ele>
        <time>2026-08-23T14:26:35.000Z</time>
      </trkpt>
      <trkpt lat="43.31782" lon="-1.59722">
        <ele>167</ele>
        <time>2026-08-23T14:26:37.000Z</time>
      </trkpt>
      <trkpt lat="43.31769" lon="-1.59722">
        <ele>169</ele>
        <time>2026-08-23T14:26:39.000Z</time>
      </trkpt>
      <trkpt lat="43.31763" lon="-1.59722">
        <ele>170</ele>
        <time>2026-08-23T14:26:40.000Z</time>
      </trkpt>
      <trkpt lat="43.31758" lon="-1.59719">
        <ele>170</ele>
        <time>2026-08-23T14:26:41.000Z</time>
      </trkpt>
      <trkpt lat="43.31744" lon="-1.59691">
        <ele>167</ele>
        <time>2026-08-23T14:26:46.000Z</time>
      </trkpt>
      <trkpt lat="43.31737" lon="-1.59684">
        <ele>168</ele>
        <time>2026-08-23T14:26:47.000Z</time>
      </trkpt>
      <trkpt lat="43.31725" lon="-1.59675">
        <ele>170</ele>
        <time>2026-08-23T14:26:49.000Z</time>
      </trkpt>
      <trkpt lat="43.31723" lon="-1.59668">
        <ele>170</ele>
        <time>2026-08-23T14:26:50.000Z</time>
      </trkpt>
      <trkpt lat="43.31724" lon="-1.59658">
        <ele>168</ele>
        <time>2026-08-23T14:26:52.000Z</time>
      </trkpt>
      <trkpt lat="43.31737" lon="-1.59623">
        <ele>160</ele>
        <time>2026-08-23T14:26:57.000Z</time>
      </trkpt>
      <trkpt lat="43.31739" lon="-1.59609">
        <ele>158</ele>
        <time>2026-08-23T14:26:59.000Z</time>
      </trkpt>
      <trkpt lat="43.31739" lon="-1.59594">
        <ele>156</ele>
        <time>2026-08-23T14:27:01.000Z</time>
      </trkpt>
      <trkpt lat="43.31737" lon="-1.59582">
        <ele>156</ele>
        <time>2026-08-23T14:27:02.000Z</time>
      </trkpt>
      <trkpt lat="43.31732" lon="-1.5957">
        <ele>155</ele>
        <time>2026-08-23T14:27:04.000Z</time>
      </trkpt>
      <trkpt lat="43.31723" lon="-1.59555">
        <ele>155</ele>
        <time>2026-08-23T14:27:07.000Z</time>
      </trkpt>
      <trkpt lat="43.31705" lon="-1.59529">
        <ele>155</ele>
        <time>2026-08-23T14:27:11.000Z</time>
      </trkpt>
      <trkpt lat="43.31682" lon="-1.59515">
        <ele>157</ele>
        <time>2026-08-23T14:27:16.000Z</time>
      </trkpt>
      <trkpt lat="43.31658" lon="-1.59487">
        <ele>155</ele>
        <time>2026-08-23T14:27:21.000Z</time>
      </trkpt>
      <trkpt lat="43.31651" lon="-1.59482">
        <ele>155</ele>
        <time>2026-08-23T14:27:23.000Z</time>
      </trkpt>
      <trkpt lat="43.31631" lon="-1.59475">
        <ele>157</ele>
        <time>2026-08-23T14:27:26.000Z</time>
      </trkpt>
      <trkpt lat="43.31621" lon="-1.59469">
        <ele>157</ele>
        <time>2026-08-23T14:27:28.000Z</time>
      </trkpt>
      <trkpt lat="43.316" lon="-1.59428">
        <ele>151</ele>
        <time>2026-08-23T14:27:35.000Z</time>
      </trkpt>
      <trkpt lat="43.31594" lon="-1.59422">
        <ele>151</ele>
        <time>2026-08-23T14:27:36.000Z</time>
      </trkpt>
      <trkpt lat="43.31587" lon="-1.59417">
        <ele>151</ele>
        <time>2026-08-23T14:27:38.000Z</time>
      </trkpt>
      <trkpt lat="43.31561" lon="-1.59412">
        <ele>155</ele>
        <time>2026-08-23T14:27:42.000Z</time>
      </trkpt>
      <trkpt lat="43.31554" lon="-1.59408">
        <ele>156</ele>
        <time>2026-08-23T14:27:44.000Z</time>
      </trkpt>
      <trkpt lat="43.3155" lon="-1.59401">
        <ele>156</ele>
        <time>2026-08-23T14:27:45.000Z</time>
      </trkpt>
      <trkpt lat="43.31544" lon="-1.59381">
        <ele>155</ele>
        <time>2026-08-23T14:27:47.000Z</time>
      </trkpt>
      <trkpt lat="43.31537" lon="-1.59366">
        <ele>154</ele>
        <time>2026-08-23T14:27:50.000Z</time>
      </trkpt>
      <trkpt lat="43.31529" lon="-1.59359">
        <ele>156</ele>
        <time>2026-08-23T14:27:51.000Z</time>
      </trkpt>
      <trkpt lat="43.31517" lon="-1.59352">
        <ele>158</ele>
        <time>2026-08-23T14:27:54.000Z</time>
      </trkpt>
      <trkpt lat="43.31514" lon="-1.59348">
        <ele>158</ele>
        <time>2026-08-23T14:27:55.000Z</time>
      </trkpt>
      <trkpt lat="43.31513" lon="-1.5934">
        <ele>157</ele>
        <time>2026-08-23T14:27:56.000Z</time>
      </trkpt>
      <trkpt lat="43.31542" lon="-1.59296">
        <ele>148</ele>
        <time>2026-08-23T14:28:03.000Z</time>
      </trkpt>
      <trkpt lat="43.3156" lon="-1.59243">
        <ele>142</ele>
        <time>2026-08-23T14:28:11.000Z</time>
      </trkpt>
      <trkpt lat="43.31586" lon="-1.59178">
        <ele>136</ele>
        <time>2026-08-23T14:28:20.000Z</time>
      </trkpt>
      <trkpt lat="43.31593" lon="-1.59156">
        <ele>136</ele>
        <time>2026-08-23T14:28:24.000Z</time>
      </trkpt>
      <trkpt lat="43.31597" lon="-1.59124">
        <ele>137</ele>
        <time>2026-08-23T14:28:28.000Z</time>
      </trkpt>
      <trkpt lat="43.31602" lon="-1.59114">
        <ele>137</ele>
        <time>2026-08-23T14:28:29.000Z</time>
      </trkpt>
      <trkpt lat="43.31611" lon="-1.59107">
        <ele>136</ele>
        <time>2026-08-23T14:28:31.000Z</time>
      </trkpt>
      <trkpt lat="43.31644" lon="-1.59099">
        <ele>132</ele>
        <time>2026-08-23T14:28:37.000Z</time>
      </trkpt>
      <trkpt lat="43.31654" lon="-1.59094">
        <ele>131</ele>
        <time>2026-08-23T14:28:39.000Z</time>
      </trkpt>
      <trkpt lat="43.31671" lon="-1.59078">
        <ele>131</ele>
        <time>2026-08-23T14:28:43.000Z</time>
      </trkpt>
      <trkpt lat="43.31689" lon="-1.59049">
        <ele>132</ele>
        <time>2026-08-23T14:28:48.000Z</time>
      </trkpt>
      <trkpt lat="43.31697" lon="-1.59041">
        <ele>132</ele>
        <time>2026-08-23T14:28:49.000Z</time>
      </trkpt>
      <trkpt lat="43.31709" lon="-1.59033">
        <ele>132</ele>
        <time>2026-08-23T14:28:52.000Z</time>
      </trkpt>
      <trkpt lat="43.31722" lon="-1.5903">
        <ele>131</ele>
        <time>2026-08-23T14:28:54.000Z</time>
      </trkpt>
      <trkpt lat="43.31737" lon="-1.5903">
        <ele>129</ele>
        <time>2026-08-23T14:28:57.000Z</time>
      </trkpt>
      <trkpt lat="43.31767" lon="-1.59037">
        <ele>125</ele>
        <time>2026-08-23T14:29:02.000Z</time>
      </trkpt>
      <trkpt lat="43.31774" lon="-1.59036">
        <ele>125</ele>
        <time>2026-08-23T14:29:03.000Z</time>
      </trkpt>
      <trkpt lat="43.31781" lon="-1.59031">
        <ele>125</ele>
        <time>2026-08-23T14:29:05.000Z</time>
      </trkpt>
      <trkpt lat="43.31789" lon="-1.59021">
        <ele>126</ele>
        <time>2026-08-23T14:29:07.000Z</time>
      </trkpt>
      <trkpt lat="43.31813" lon="-1.58977">
        <ele>128</ele>
        <time>2026-08-23T14:29:14.000Z</time>
      </trkpt>
      <trkpt lat="43.31814" lon="-1.5897">
        <ele>128</ele>
        <time>2026-08-23T14:29:15.000Z</time>
      </trkpt>
      <trkpt lat="43.31814" lon="-1.58961">
        <ele>128</ele>
        <time>2026-08-23T14:29:16.000Z</time>
      </trkpt>
      <trkpt lat="43.31812" lon="-1.58952">
        <ele>128</ele>
        <time>2026-08-23T14:29:17.000Z</time>
      </trkpt>
      <trkpt lat="43.31806" lon="-1.58942">
        <ele>128</ele>
        <time>2026-08-23T14:29:19.000Z</time>
      </trkpt>
      <trkpt lat="43.318" lon="-1.58937">
        <ele>128</ele>
        <time>2026-08-23T14:29:20.000Z</time>
      </trkpt>
      <trkpt lat="43.31792" lon="-1.58933">
        <ele>128</ele>
        <time>2026-08-23T14:29:22.000Z</time>
      </trkpt>
      <trkpt lat="43.31763" lon="-1.5893">
        <ele>128</ele>
        <time>2026-08-23T14:29:27.000Z</time>
      </trkpt>
      <trkpt lat="43.31748" lon="-1.58922">
        <ele>127</ele>
        <time>2026-08-23T14:29:30.000Z</time>
      </trkpt>
      <trkpt lat="43.31705" lon="-1.58876">
        <ele>123</ele>
        <time>2026-08-23T14:29:39.000Z</time>
      </trkpt>
      <trkpt lat="43.31695" lon="-1.58873">
        <ele>123</ele>
        <time>2026-08-23T14:29:41.000Z</time>
      </trkpt>
      <trkpt lat="43.31651" lon="-1.58868">
        <ele>122</ele>
        <time>2026-08-23T14:29:49.000Z</time>
      </trkpt>
      <trkpt lat="43.3163" lon="-1.58861">
        <ele>120</ele>
        <time>2026-08-23T14:29:53.000Z</time>
      </trkpt>
      <trkpt lat="43.31597" lon="-1.58856">
        <ele>119</ele>
        <time>2026-08-23T14:29:59.000Z</time>
      </trkpt>
      <trkpt lat="43.31553" lon="-1.58858">
        <ele>117</ele>
        <time>2026-08-23T14:30:07.000Z</time>
      </trkpt>
      <trkpt lat="43.31529" lon="-1.58853">
        <ele>114</ele>
        <time>2026-08-23T14:30:11.000Z</time>
      </trkpt>
      <trkpt lat="43.31515" lon="-1.58856">
        <ele>114</ele>
        <time>2026-08-23T14:30:13.000Z</time>
      </trkpt>
      <trkpt lat="43.31503" lon="-1.58861">
        <ele>114</ele>
        <time>2026-08-23T14:30:16.000Z</time>
      </trkpt>
      <trkpt lat="43.31496" lon="-1.58861">
        <ele>114</ele>
        <time>2026-08-23T14:30:17.000Z</time>
      </trkpt>
      <trkpt lat="43.31491" lon="-1.58857">
        <ele>112</ele>
        <time>2026-08-23T14:30:18.000Z</time>
      </trkpt>
      <trkpt lat="43.31489" lon="-1.58852">
        <ele>111</ele>
        <time>2026-08-23T14:30:19.000Z</time>
      </trkpt>
      <trkpt lat="43.31489" lon="-1.58843">
        <ele>108</ele>
        <time>2026-08-23T14:30:20.000Z</time>
      </trkpt>
      <trkpt lat="43.31494" lon="-1.58837">
        <ele>107</ele>
        <time>2026-08-23T14:30:21.000Z</time>
      </trkpt>
      <trkpt lat="43.31501" lon="-1.58834">
        <ele>107</ele>
        <time>2026-08-23T14:30:22.000Z</time>
      </trkpt>
      <trkpt lat="43.3155" lon="-1.58832">
        <ele>111</ele>
        <time>2026-08-23T14:30:31.000Z</time>
      </trkpt>
      <trkpt lat="43.31585" lon="-1.58822">
        <ele>111</ele>
        <time>2026-08-23T14:30:37.000Z</time>
      </trkpt>
      <trkpt lat="43.31617" lon="-1.58807">
        <ele>107</ele>
        <time>2026-08-23T14:30:43.000Z</time>
      </trkpt>
      <trkpt lat="43.31655" lon="-1.58801">
        <ele>107</ele>
        <time>2026-08-23T14:30:50.000Z</time>
      </trkpt>
      <trkpt lat="43.31716" lon="-1.58797">
        <ele>109</ele>
        <time>2026-08-23T14:31:01.000Z</time>
      </trkpt>
      <trkpt lat="43.31721" lon="-1.5879">
        <ele>108</ele>
        <time>2026-08-23T14:31:02.000Z</time>
      </trkpt>
      <trkpt lat="43.3172" lon="-1.58782">
        <ele>107</ele>
        <time>2026-08-23T14:31:03.000Z</time>
      </trkpt>
      <trkpt lat="43.31696" lon="-1.58753">
        <ele>100</ele>
        <time>2026-08-23T14:31:09.000Z</time>
      </trkpt>
      <trkpt lat="43.31666" lon="-1.5873">
        <ele>95</ele>
        <time>2026-08-23T14:31:15.000Z</time>
      </trkpt>
      <trkpt lat="43.31648" lon="-1.58716">
        <ele>92</ele>
        <time>2026-08-23T14:31:19.000Z</time>
      </trkpt>
      <trkpt lat="43.31633" lon="-1.58693">
        <ele>88</ele>
        <time>2026-08-23T14:31:23.000Z</time>
      </trkpt>
      <trkpt lat="43.31622" lon="-1.58668">
        <ele>85</ele>
        <time>2026-08-23T14:31:27.000Z</time>
      </trkpt>
      <trkpt lat="43.31582" lon="-1.58483">
        <ele>72</ele>
        <time>2026-08-23T14:31:52.000Z</time>
      </trkpt>
      <trkpt lat="43.3157" lon="-1.58443">
        <ele>70</ele>
        <time>2026-08-23T14:31:57.000Z</time>
      </trkpt>
      <trkpt lat="43.31559" lon="-1.58416">
        <ele>69</ele>
        <time>2026-08-23T14:32:01.000Z</time>
      </trkpt>
      <trkpt lat="43.31542" lon="-1.5839">
        <ele>67</ele>
        <time>2026-08-23T14:32:06.000Z</time>
      </trkpt>
      <trkpt lat="43.31482" lon="-1.58323">
        <ele>63</ele>
        <time>2026-08-23T14:32:20.000Z</time>
      </trkpt>
      <trkpt lat="43.31472" lon="-1.58315">
        <ele>62</ele>
        <time>2026-08-23T14:32:22.000Z</time>
      </trkpt>
      <trkpt lat="43.31464" lon="-1.58313">
        <ele>62</ele>
        <time>2026-08-23T14:32:23.000Z</time>
      </trkpt>
      <trkpt lat="43.31455" lon="-1.58311">
        <ele>61</ele>
        <time>2026-08-23T14:32:25.000Z</time>
      </trkpt>
      <trkpt lat="43.31448" lon="-1.58301">
        <ele>61</ele>
        <time>2026-08-23T14:32:27.000Z</time>
      </trkpt>
      <trkpt lat="43.31446" lon="-1.5829">
        <ele>61</ele>
        <time>2026-08-23T14:32:28.000Z</time>
      </trkpt>
      <trkpt lat="43.31447" lon="-1.58284">
        <ele>61</ele>
        <time>2026-08-23T14:32:29.000Z</time>
      </trkpt>
      <trkpt lat="43.31452" lon="-1.58275">
        <ele>61</ele>
        <time>2026-08-23T14:32:30.000Z</time>
      </trkpt>
      <trkpt lat="43.31455" lon="-1.58265">
        <ele>60</ele>
        <time>2026-08-23T14:32:32.000Z</time>
      </trkpt>
      <trkpt lat="43.31458" lon="-1.5825">
        <ele>60</ele>
        <time>2026-08-23T14:32:34.000Z</time>
      </trkpt>
      <trkpt lat="43.31456" lon="-1.58226">
        <ele>60</ele>
        <time>2026-08-23T14:32:37.000Z</time>
      </trkpt>
      <trkpt lat="43.31456" lon="-1.58207">
        <ele>59</ele>
        <time>2026-08-23T14:32:39.000Z</time>
      </trkpt>
      <trkpt lat="43.31457" lon="-1.58188">
        <ele>59</ele>
        <time>2026-08-23T14:32:42.000Z</time>
      </trkpt>
      <trkpt lat="43.31462" lon="-1.58164">
        <ele>59</ele>
        <time>2026-08-23T14:32:45.000Z</time>
      </trkpt>
      <trkpt lat="43.31492" lon="-1.58083">
        <ele>57</ele>
        <time>2026-08-23T14:32:57.000Z</time>
      </trkpt>
      <trkpt lat="43.315" lon="-1.58057">
        <ele>56</ele>
        <time>2026-08-23T14:33:00.000Z</time>
      </trkpt>
      <trkpt lat="43.31503" lon="-1.58036">
        <ele>56</ele>
        <time>2026-08-23T14:33:03.000Z</time>
      </trkpt>
      <trkpt lat="43.31502" lon="-1.58012">
        <ele>55</ele>
        <time>2026-08-23T14:33:06.000Z</time>
      </trkpt>
      <trkpt lat="43.31496" lon="-1.5798">
        <ele>55</ele>
        <time>2026-08-23T14:33:11.000Z</time>
      </trkpt>
      <trkpt lat="43.31474" lon="-1.57899">
        <ele>58</ele>
        <time>2026-08-23T14:33:22.000Z</time>
      </trkpt>
      <trkpt lat="43.31469" lon="-1.5788">
        <ele>60</ele>
        <time>2026-08-23T14:33:24.000Z</time>
      </trkpt>
      <trkpt lat="43.31462" lon="-1.57854">
        <ele>62</ele>
        <time>2026-08-23T14:33:28.000Z</time>
      </trkpt>
      <trkpt lat="43.31454" lon="-1.57824">
        <ele>63</ele>
        <time>2026-08-23T14:33:32.000Z</time>
      </trkpt>
      <trkpt lat="43.3144" lon="-1.57773">
        <ele>61</ele>
        <time>2026-08-23T14:33:39.000Z</time>
      </trkpt>
      <trkpt lat="43.31382" lon="-1.57567">
        <ele>56</ele>
        <time>2026-08-23T14:34:08.000Z</time>
      </trkpt>
      <trkpt lat="43.31369" lon="-1.57529">
        <ele>55</ele>
        <time>2026-08-23T14:34:13.000Z</time>
      </trkpt>
      <trkpt lat="43.31359" lon="-1.57506">
        <ele>54</ele>
        <time>2026-08-23T14:34:17.000Z</time>
      </trkpt>
      <trkpt lat="43.31351" lon="-1.57496">
        <ele>53</ele>
        <time>2026-08-23T14:34:19.000Z</time>
      </trkpt>
      <trkpt lat="43.31333" lon="-1.57478">
        <ele>53</ele>
        <time>2026-08-23T14:34:23.000Z</time>
      </trkpt>
      <trkpt lat="43.31276" lon="-1.57437">
        <ele>52</ele>
        <time>2026-08-23T14:34:34.000Z</time>
      </trkpt>
      <trkpt lat="43.31256" lon="-1.57422">
        <ele>51</ele>
        <time>2026-08-23T14:34:38.000Z</time>
      </trkpt>
      <trkpt lat="43.31221" lon="-1.57392">
        <ele>51</ele>
        <time>2026-08-23T14:34:45.000Z</time>
      </trkpt>
      <trkpt lat="43.31158" lon="-1.57334">
        <ele>49</ele>
        <time>2026-08-23T14:34:59.000Z</time>
      </trkpt>
      <trkpt lat="43.31095" lon="-1.57271">
        <ele>45</ele>
        <time>2026-08-23T14:35:13.000Z</time>
      </trkpt>
      <trkpt lat="43.31078" lon="-1.57256">
        <ele>44</ele>
        <time>2026-08-23T14:35:16.000Z</time>
      </trkpt>
      <trkpt lat="43.31051" lon="-1.57243">
        <ele>46</ele>
        <time>2026-08-23T14:35:21.000Z</time>
      </trkpt>
      <trkpt lat="43.31007" lon="-1.57234">
        <ele>48</ele>
        <time>2026-08-23T14:35:29.000Z</time>
      </trkpt>
      <trkpt lat="43.30976" lon="-1.5723">
        <ele>48</ele>
        <time>2026-08-23T14:35:35.000Z</time>
      </trkpt>
      <trkpt lat="43.30966" lon="-1.57231">
        <ele>47</ele>
        <time>2026-08-23T14:35:37.000Z</time>
      </trkpt>
      <trkpt lat="43.30959" lon="-1.57235">
        <ele>47</ele>
        <time>2026-08-23T14:35:38.000Z</time>
      </trkpt>
      <trkpt lat="43.30956" lon="-1.57234">
        <ele>47</ele>
        <time>2026-08-23T14:35:39.000Z</time>
      </trkpt>
      <trkpt lat="43.30953" lon="-1.5723">
        <ele>47</ele>
        <time>2026-08-23T14:35:39.000Z</time>
      </trkpt>
      <trkpt lat="43.30952" lon="-1.57225">
        <ele>47</ele>
        <time>2026-08-23T14:35:40.000Z</time>
      </trkpt>
      <trkpt lat="43.30953" lon="-1.57219">
        <ele>47</ele>
        <time>2026-08-23T14:35:41.000Z</time>
      </trkpt>
      <trkpt lat="43.30959" lon="-1.57213">
        <ele>47</ele>
        <time>2026-08-23T14:35:42.000Z</time>
      </trkpt>
      <trkpt lat="43.30968" lon="-1.57201">
        <ele>47</ele>
        <time>2026-08-23T14:35:44.000Z</time>
      </trkpt>
      <trkpt lat="43.3098" lon="-1.57165">
        <ele>47</ele>
        <time>2026-08-23T14:35:49.000Z</time>
      </trkpt>
      <trkpt lat="43.30987" lon="-1.57138">
        <ele>48</ele>
        <time>2026-08-23T14:35:53.000Z</time>
      </trkpt>
      <trkpt lat="43.30989" lon="-1.57111">
        <ele>49</ele>
        <time>2026-08-23T14:35:57.000Z</time>
      </trkpt>
      <trkpt lat="43.30988" lon="-1.57086">
        <ele>49</ele>
        <time>2026-08-23T14:36:00.000Z</time>
      </trkpt>
      <trkpt lat="43.30984" lon="-1.57075">
        <ele>50</ele>
        <time>2026-08-23T14:36:01.000Z</time>
      </trkpt>
      <trkpt lat="43.30978" lon="-1.57064">
        <ele>50</ele>
        <time>2026-08-23T14:36:03.000Z</time>
      </trkpt>
      <trkpt lat="43.30952" lon="-1.57024">
        <ele>50</ele>
        <time>2026-08-23T14:36:10.000Z</time>
      </trkpt>
      <trkpt lat="43.30933" lon="-1.56976">
        <ele>50</ele>
        <time>2026-08-23T14:36:17.000Z</time>
      </trkpt>
      <trkpt lat="43.30921" lon="-1.56933">
        <ele>51</ele>
        <time>2026-08-23T14:36:23.000Z</time>
      </trkpt>
      <trkpt lat="43.30918" lon="-1.56908">
        <ele>51</ele>
        <time>2026-08-23T14:36:27.000Z</time>
      </trkpt>
      <trkpt lat="43.30918" lon="-1.56887">
        <ele>50</ele>
        <time>2026-08-23T14:36:29.000Z</time>
      </trkpt>
      <trkpt lat="43.3094" lon="-1.56798">
        <ele>49</ele>
        <time>2026-08-23T14:36:41.000Z</time>
      </trkpt>
      <trkpt lat="43.30947" lon="-1.56775">
        <ele>49</ele>
        <time>2026-08-23T14:36:45.000Z</time>
      </trkpt>
      <trkpt lat="43.30953" lon="-1.56764">
        <ele>49</ele>
        <time>2026-08-23T14:36:46.000Z</time>
      </trkpt>
      <trkpt lat="43.30981" lon="-1.5672">
        <ele>50</ele>
        <time>2026-08-23T14:36:54.000Z</time>
      </trkpt>
      <trkpt lat="43.31033" lon="-1.56626">
        <ele>48</ele>
        <time>2026-08-23T14:37:09.000Z</time>
      </trkpt>
      <trkpt lat="43.31059" lon="-1.56599">
        <ele>47</ele>
        <time>2026-08-23T14:37:15.000Z</time>
      </trkpt>
      <trkpt lat="43.31081" lon="-1.56585">
        <ele>47</ele>
        <time>2026-08-23T14:37:19.000Z</time>
      </trkpt>
      <trkpt lat="43.31226" lon="-1.56498">
        <ele>47</ele>
        <time>2026-08-23T14:37:48.000Z</time>
      </trkpt>
      <trkpt lat="43.31245" lon="-1.56484">
        <ele>47</ele>
        <time>2026-08-23T14:37:51.000Z</time>
      </trkpt>
      <trkpt lat="43.31252" lon="-1.56476">
        <ele>47</ele>
        <time>2026-08-23T14:37:53.000Z</time>
      </trkpt>
      <trkpt lat="43.31264" lon="-1.56459">
        <ele>47</ele>
        <time>2026-08-23T14:37:56.000Z</time>
      </trkpt>
      <trkpt lat="43.31305" lon="-1.56386">
        <ele>46</ele>
        <time>2026-08-23T14:38:08.000Z</time>
      </trkpt>
      <trkpt lat="43.31316" lon="-1.56371">
        <ele>45</ele>
        <time>2026-08-23T14:38:11.000Z</time>
      </trkpt>
      <trkpt lat="43.31331" lon="-1.56357">
        <ele>44</ele>
        <time>2026-08-23T14:38:14.000Z</time>
      </trkpt>
      <trkpt lat="43.31391" lon="-1.56308">
        <ele>44</ele>
        <time>2026-08-23T14:38:26.000Z</time>
      </trkpt>
      <trkpt lat="43.31401" lon="-1.56299">
        <ele>44</ele>
        <time>2026-08-23T14:38:29.000Z</time>
      </trkpt>
      <trkpt lat="43.31417" lon="-1.56278">
        <ele>44</ele>
        <time>2026-08-23T14:38:32.000Z</time>
      </trkpt>
      <trkpt lat="43.31424" lon="-1.56264">
        <ele>44</ele>
        <time>2026-08-23T14:38:35.000Z</time>
      </trkpt>
      <trkpt lat="43.31439" lon="-1.56228">
        <ele>45</ele>
        <time>2026-08-23T14:38:40.000Z</time>
      </trkpt>
      <trkpt lat="43.31448" lon="-1.56194">
        <ele>46</ele>
        <time>2026-08-23T14:38:45.000Z</time>
      </trkpt>
      <trkpt lat="43.31458" lon="-1.56134">
        <ele>46</ele>
        <time>2026-08-23T14:38:53.000Z</time>
      </trkpt>
      <trkpt lat="43.31461" lon="-1.56126">
        <ele>46</ele>
        <time>2026-08-23T14:38:54.000Z</time>
      </trkpt>
      <trkpt lat="43.31468" lon="-1.56113">
        <ele>46</ele>
        <time>2026-08-23T14:38:56.000Z</time>
      </trkpt>
      <trkpt lat="43.31477" lon="-1.56106">
        <ele>47</ele>
        <time>2026-08-23T14:38:58.000Z</time>
      </trkpt>
      <trkpt lat="43.31485" lon="-1.56107">
        <ele>48</ele>
        <time>2026-08-23T14:38:59.000Z</time>
      </trkpt>
      <trkpt lat="43.31492" lon="-1.56109">
        <ele>48</ele>
        <time>2026-08-23T14:39:00.000Z</time>
      </trkpt>
      <trkpt lat="43.31552" lon="-1.56152">
        <ele>52</ele>
        <time>2026-08-23T14:39:13.000Z</time>
      </trkpt>
      <trkpt lat="43.3156" lon="-1.56155">
        <ele>53</ele>
        <time>2026-08-23T14:39:14.000Z</time>
      </trkpt>
      <trkpt lat="43.31574" lon="-1.56157">
        <ele>53</ele>
        <time>2026-08-23T14:39:16.000Z</time>
      </trkpt>
      <trkpt lat="43.3159" lon="-1.56152">
        <ele>53</ele>
        <time>2026-08-23T14:39:19.000Z</time>
      </trkpt>
      <trkpt lat="43.31616" lon="-1.5613">
        <ele>55</ele>
        <time>2026-08-23T14:39:25.000Z</time>
      </trkpt>
      <trkpt lat="43.31661" lon="-1.5608">
        <ele>57</ele>
        <time>2026-08-23T14:39:35.000Z</time>
      </trkpt>
      <trkpt lat="43.31698" lon="-1.5604">
        <ele>55</ele>
        <time>2026-08-23T14:39:44.000Z</time>
      </trkpt>
      <trkpt lat="43.31735" lon="-1.56002">
        <ele>53</ele>
        <time>2026-08-23T14:39:52.000Z</time>
      </trkpt>
      <trkpt lat="43.31748" lon="-1.55985">
        <ele>52</ele>
        <time>2026-08-23T14:39:55.000Z</time>
      </trkpt>
      <trkpt lat="43.31756" lon="-1.55967">
        <ele>52</ele>
        <time>2026-08-23T14:39:58.000Z</time>
      </trkpt>
      <trkpt lat="43.31763" lon="-1.55933">
        <ele>51</ele>
        <time>2026-08-23T14:40:02.000Z</time>
      </trkpt>
      <trkpt lat="43.31766" lon="-1.55923">
        <ele>50</ele>
        <time>2026-08-23T14:40:04.000Z</time>
      </trkpt>
      <trkpt lat="43.31774" lon="-1.55909">
        <ele>50</ele>
        <time>2026-08-23T14:40:06.000Z</time>
      </trkpt>
      <trkpt lat="43.31795" lon="-1.5588">
        <ele>50</ele>
        <time>2026-08-23T14:40:11.000Z</time>
      </trkpt>
      <trkpt lat="43.3181" lon="-1.55859">
        <ele>48</ele>
        <time>2026-08-23T14:40:15.000Z</time>
      </trkpt>
      <trkpt lat="43.31836" lon="-1.5581">
        <ele>46</ele>
        <time>2026-08-23T14:40:23.000Z</time>
      </trkpt>
      <trkpt lat="43.31864" lon="-1.55764">
        <ele>46</ele>
        <time>2026-08-23T14:40:31.000Z</time>
      </trkpt>
      <trkpt lat="43.3188" lon="-1.5574">
        <ele>45</ele>
        <time>2026-08-23T14:40:35.000Z</time>
      </trkpt>
      <trkpt lat="43.3192" lon="-1.55689">
        <ele>43</ele>
        <time>2026-08-23T14:40:45.000Z</time>
      </trkpt>
      <trkpt lat="43.31935" lon="-1.55665">
        <ele>41</ele>
        <time>2026-08-23T14:40:49.000Z</time>
      </trkpt>
      <trkpt lat="43.31941" lon="-1.55652">
        <ele>41</ele>
        <time>2026-08-23T14:40:51.000Z</time>
      </trkpt>
      <trkpt lat="43.31946" lon="-1.55635">
        <ele>40</ele>
        <time>2026-08-23T14:40:53.000Z</time>
      </trkpt>
      <trkpt lat="43.31976" lon="-1.5551">
        <ele>36</ele>
        <time>2026-08-23T14:41:10.000Z</time>
      </trkpt>
      <trkpt lat="43.3199" lon="-1.55439">
        <ele>35</ele>
        <time>2026-08-23T14:41:20.000Z</time>
      </trkpt>
      <trkpt lat="43.31996" lon="-1.55417">
        <ele>35</ele>
        <time>2026-08-23T14:41:23.000Z</time>
      </trkpt>
      <trkpt lat="43.32003" lon="-1.55401">
        <ele>35</ele>
        <time>2026-08-23T14:41:25.000Z</time>
      </trkpt>
      <trkpt lat="43.32007" lon="-1.55395">
        <ele>35</ele>
        <time>2026-08-23T14:41:26.000Z</time>
      </trkpt>
      <trkpt lat="43.32032" lon="-1.55371">
        <ele>34</ele>
        <time>2026-08-23T14:41:32.000Z</time>
      </trkpt>
      <trkpt lat="43.32054" lon="-1.5535">
        <ele>34</ele>
        <time>2026-08-23T14:41:36.000Z</time>
      </trkpt>
      <trkpt lat="43.32064" lon="-1.55338">
        <ele>34</ele>
        <time>2026-08-23T14:41:39.000Z</time>
      </trkpt>
      <trkpt lat="43.32078" lon="-1.55312">
        <ele>33</ele>
        <time>2026-08-23T14:41:43.000Z</time>
      </trkpt>
      <trkpt lat="43.32091" lon="-1.55274">
        <ele>33</ele>
        <time>2026-08-23T14:41:48.000Z</time>
      </trkpt>
      <trkpt lat="43.32111" lon="-1.55193">
        <ele>31</ele>
        <time>2026-08-23T14:41:59.000Z</time>
      </trkpt>
      <trkpt lat="43.32143" lon="-1.55056">
        <ele>31</ele>
        <time>2026-08-23T14:42:18.000Z</time>
      </trkpt>
      <trkpt lat="43.32138" lon="-1.55052">
        <ele>31</ele>
        <time>2026-08-23T14:42:19.000Z</time>
      </trkpt>
      <trkpt lat="43.32136" lon="-1.55044">
        <ele>31</ele>
        <time>2026-08-23T14:42:20.000Z</time>
      </trkpt>
      <trkpt lat="43.32138" lon="-1.55036">
        <ele>31</ele>
        <time>2026-08-23T14:42:21.000Z</time>
      </trkpt>
      <trkpt lat="43.32144" lon="-1.55033">
        <ele>31</ele>
        <time>2026-08-23T14:42:22.000Z</time>
      </trkpt>
      <trkpt lat="43.32149" lon="-1.55034">
        <ele>31</ele>
        <time>2026-08-23T14:42:23.000Z</time>
      </trkpt>
      <trkpt lat="43.32152" lon="-1.55039">
        <ele>31</ele>
        <time>2026-08-23T14:42:24.000Z</time>
      </trkpt>
      <trkpt lat="43.32153" lon="-1.55042">
        <ele>31</ele>
        <time>2026-08-23T14:42:25.000Z</time>
      </trkpt>
      <trkpt lat="43.32183" lon="-1.55023">
        <ele>30</ele>
        <time>2026-08-23T14:42:30.000Z</time>
      </trkpt>
      <trkpt lat="43.32245" lon="-1.54992">
        <ele>30</ele>
        <time>2026-08-23T14:42:42.000Z</time>
      </trkpt>
      <trkpt lat="43.32378" lon="-1.54933">
        <ele>32</ele>
        <time>2026-08-23T14:43:07.000Z</time>
      </trkpt>
      <trkpt lat="43.32445" lon="-1.54904">
        <ele>34</ele>
        <time>2026-08-23T14:43:19.000Z</time>
      </trkpt>
      <trkpt lat="43.32463" lon="-1.54893">
        <ele>34</ele>
        <time>2026-08-23T14:43:23.000Z</time>
      </trkpt>
      <trkpt lat="43.32564" lon="-1.54806">
        <ele>36</ele>
        <time>2026-08-23T14:43:44.000Z</time>
      </trkpt>
      <trkpt lat="43.32637" lon="-1.54734">
        <ele>35</ele>
        <time>2026-08-23T14:44:00.000Z</time>
      </trkpt>
      <trkpt lat="43.3271" lon="-1.54661">
        <ele>41</ele>
        <time>2026-08-23T14:44:16.000Z</time>
      </trkpt>
      <trkpt lat="43.32846" lon="-1.54527">
        <ele>37</ele>
        <time>2026-08-23T14:44:46.000Z</time>
      </trkpt>
      <trkpt lat="43.32876" lon="-1.54504">
        <ele>34</ele>
        <time>2026-08-23T14:44:52.000Z</time>
      </trkpt>
      <trkpt lat="43.32897" lon="-1.54492">
        <ele>33</ele>
        <time>2026-08-23T14:44:56.000Z</time>
      </trkpt>
      <trkpt lat="43.32935" lon="-1.54467">
        <ele>32</ele>
        <time>2026-08-23T14:45:04.000Z</time>
      </trkpt>
      <trkpt lat="43.32973" lon="-1.54445">
        <ele>31</ele>
        <time>2026-08-23T14:45:11.000Z</time>
      </trkpt>
      <trkpt lat="43.32992" lon="-1.54437">
        <ele>31</ele>
        <time>2026-08-23T14:45:15.000Z</time>
      </trkpt>
      <trkpt lat="43.33014" lon="-1.54435">
        <ele>31</ele>
        <time>2026-08-23T14:45:18.000Z</time>
      </trkpt>
      <trkpt lat="43.33034" lon="-1.54441">
        <ele>31</ele>
        <time>2026-08-23T14:45:22.000Z</time>
      </trkpt>
      <trkpt lat="43.33056" lon="-1.54454">
        <ele>32</ele>
        <time>2026-08-23T14:45:26.000Z</time>
      </trkpt>
      <trkpt lat="43.3308" lon="-1.54478">
        <ele>32</ele>
        <time>2026-08-23T14:45:32.000Z</time>
      </trkpt>
      <trkpt lat="43.33131" lon="-1.54538">
        <ele>34</ele>
        <time>2026-08-23T14:45:44.000Z</time>
      </trkpt>
      <trkpt lat="43.33146" lon="-1.54555">
        <ele>34</ele>
        <time>2026-08-23T14:45:47.000Z</time>
      </trkpt>
      <trkpt lat="43.3317" lon="-1.54594">
        <ele>35</ele>
        <time>2026-08-23T14:45:54.000Z</time>
      </trkpt>
      <trkpt lat="43.332" lon="-1.54673">
        <ele>38</ele>
        <time>2026-08-23T14:46:05.000Z</time>
      </trkpt>
      <trkpt lat="43.3321" lon="-1.54694">
        <ele>39</ele>
        <time>2026-08-23T14:46:08.000Z</time>
      </trkpt>
      <trkpt lat="43.33226" lon="-1.54715">
        <ele>40</ele>
        <time>2026-08-23T14:46:12.000Z</time>
      </trkpt>
      <trkpt lat="43.33317" lon="-1.54798">
        <ele>42</ele>
        <time>2026-08-23T14:46:32.000Z</time>
      </trkpt>
      <trkpt lat="43.33342" lon="-1.5481">
        <ele>40</ele>
        <time>2026-08-23T14:46:37.000Z</time>
      </trkpt>
      <trkpt lat="43.33397" lon="-1.54823">
        <ele>36</ele>
        <time>2026-08-23T14:46:46.000Z</time>
      </trkpt>
      <trkpt lat="43.33451" lon="-1.54835">
        <ele>35</ele>
        <time>2026-08-23T14:46:56.000Z</time>
      </trkpt>
      <trkpt lat="43.33477" lon="-1.54844">
        <ele>35</ele>
        <time>2026-08-23T14:47:01.000Z</time>
      </trkpt>
      <trkpt lat="43.33499" lon="-1.54853">
        <ele>35</ele>
        <time>2026-08-23T14:47:05.000Z</time>
      </trkpt>
      <trkpt lat="43.33531" lon="-1.54866">
        <ele>36</ele>
        <time>2026-08-23T14:47:11.000Z</time>
      </trkpt>
      <trkpt lat="43.33544" lon="-1.54872">
        <ele>36</ele>
        <time>2026-08-23T14:47:13.000Z</time>
      </trkpt>
      <trkpt lat="43.33558" lon="-1.54878">
        <ele>37</ele>
        <time>2026-08-23T14:47:16.000Z</time>
      </trkpt>
      <trkpt lat="43.33606" lon="-1.54902">
        <ele>38</ele>
        <time>2026-08-23T14:47:25.000Z</time>
      </trkpt>
      <trkpt lat="43.33612" lon="-1.54904">
        <ele>37</ele>
        <time>2026-08-23T14:47:26.000Z</time>
      </trkpt>
      <trkpt lat="43.33689" lon="-1.54934">
        <ele>34</ele>
        <time>2026-08-23T14:47:40.000Z</time>
      </trkpt>
      <trkpt lat="43.33749" lon="-1.54969">
        <ele>33</ele>
        <time>2026-08-23T14:47:52.000Z</time>
      </trkpt>
      <trkpt lat="43.33759" lon="-1.54975">
        <ele>34</ele>
        <time>2026-08-23T14:47:54.000Z</time>
      </trkpt>
      <trkpt lat="43.3383" lon="-1.55018">
        <ele>37</ele>
        <time>2026-08-23T14:48:08.000Z</time>
      </trkpt>
      <trkpt lat="43.33864" lon="-1.55037">
        <ele>40</ele>
        <time>2026-08-23T14:48:14.000Z</time>
      </trkpt>
      <trkpt lat="43.33883" lon="-1.55045">
        <ele>42</ele>
        <time>2026-08-23T14:48:18.000Z</time>
      </trkpt>
      <trkpt lat="43.33903" lon="-1.55043">
        <ele>44</ele>
        <time>2026-08-23T14:48:21.000Z</time>
      </trkpt>
      <trkpt lat="43.33917" lon="-1.55038">
        <ele>45</ele>
        <time>2026-08-23T14:48:24.000Z</time>
      </trkpt>
      <trkpt lat="43.33953" lon="-1.55016">
        <ele>43</ele>
        <time>2026-08-23T14:48:31.000Z</time>
      </trkpt>
      <trkpt lat="43.34068" lon="-1.54946">
        <ele>39</ele>
        <time>2026-08-23T14:48:53.000Z</time>
      </trkpt>
      <trkpt lat="43.34099" lon="-1.54928">
        <ele>38</ele>
        <time>2026-08-23T14:48:59.000Z</time>
      </trkpt>
      <trkpt lat="43.34136" lon="-1.54905">
        <ele>37</ele>
        <time>2026-08-23T14:49:07.000Z</time>
      </trkpt>
      <trkpt lat="43.34185" lon="-1.54874">
        <ele>35</ele>
        <time>2026-08-23T14:49:16.000Z</time>
      </trkpt>
      <trkpt lat="43.34189" lon="-1.54871">
        <ele>34</ele>
        <time>2026-08-23T14:49:17.000Z</time>
      </trkpt>
      <trkpt lat="43.34212" lon="-1.54863">
        <ele>33</ele>
        <time>2026-08-23T14:49:21.000Z</time>
      </trkpt>
      <trkpt lat="43.34239" lon="-1.54859">
        <ele>32</ele>
        <time>2026-08-23T14:49:26.000Z</time>
      </trkpt>
      <trkpt lat="43.34268" lon="-1.54861">
        <ele>31</ele>
        <time>2026-08-23T14:49:31.000Z</time>
      </trkpt>
      <trkpt lat="43.34293" lon="-1.54871">
        <ele>30</ele>
        <time>2026-08-23T14:49:36.000Z</time>
      </trkpt>
      <trkpt lat="43.34316" lon="-1.54886">
        <ele>30</ele>
        <time>2026-08-23T14:49:40.000Z</time>
      </trkpt>
      <trkpt lat="43.3434" lon="-1.5491">
        <ele>30</ele>
        <time>2026-08-23T14:49:46.000Z</time>
      </trkpt>
      <trkpt lat="43.34391" lon="-1.54981">
        <ele>24</ele>
        <time>2026-08-23T14:49:59.000Z</time>
      </trkpt>
      <trkpt lat="43.34419" lon="-1.55018">
        <ele>22</ele>
        <time>2026-08-23T14:50:06.000Z</time>
      </trkpt>
      <trkpt lat="43.34427" lon="-1.55029">
        <ele>23</ele>
        <time>2026-08-23T14:50:08.000Z</time>
      </trkpt>
      <trkpt lat="43.3449" lon="-1.55114">
        <ele>22</ele>
        <time>2026-08-23T14:50:23.000Z</time>
      </trkpt>
      <trkpt lat="43.34548" lon="-1.55189">
        <ele>20</ele>
        <time>2026-08-23T14:50:37.000Z</time>
      </trkpt>
      <trkpt lat="43.34561" lon="-1.55198">
        <ele>20</ele>
        <time>2026-08-23T14:50:40.000Z</time>
      </trkpt>
      <trkpt lat="43.34571" lon="-1.55205">
        <ele>19</ele>
        <time>2026-08-23T14:50:42.000Z</time>
      </trkpt>
      <trkpt lat="43.34597" lon="-1.55214">
        <ele>19</ele>
        <time>2026-08-23T14:50:47.000Z</time>
      </trkpt>
      <trkpt lat="43.3463" lon="-1.55218">
        <ele>19</ele>
        <time>2026-08-23T14:50:53.000Z</time>
      </trkpt>
      <trkpt lat="43.34801" lon="-1.55235">
        <ele>19</ele>
        <time>2026-08-23T14:51:23.000Z</time>
      </trkpt>
      <trkpt lat="43.34821" lon="-1.55247">
        <ele>18</ele>
        <time>2026-08-23T14:51:27.000Z</time>
      </trkpt>
      <trkpt lat="43.34831" lon="-1.55248">
        <ele>18</ele>
        <time>2026-08-23T14:51:29.000Z</time>
      </trkpt>
      <trkpt lat="43.34847" lon="-1.55243">
        <ele>18</ele>
        <time>2026-08-23T14:51:32.000Z</time>
      </trkpt>
      <trkpt lat="43.34857" lon="-1.5523">
        <ele>19</ele>
        <time>2026-08-23T14:51:34.000Z</time>
      </trkpt>
      <trkpt lat="43.34859" lon="-1.55222">
        <ele>19</ele>
        <time>2026-08-23T14:51:35.000Z</time>
      </trkpt>
      <trkpt lat="43.34865" lon="-1.55186">
        <ele>20</ele>
        <time>2026-08-23T14:51:40.000Z</time>
      </trkpt>
      <trkpt lat="43.34869" lon="-1.55177">
        <ele>20</ele>
        <time>2026-08-23T14:51:41.000Z</time>
      </trkpt>
      <trkpt lat="43.34874" lon="-1.55162">
        <ele>21</ele>
        <time>2026-08-23T14:51:44.000Z</time>
      </trkpt>
      <trkpt lat="43.35004" lon="-1.55055">
        <ele>22</ele>
        <time>2026-08-23T14:52:11.000Z</time>
      </trkpt>
      <trkpt lat="43.35056" lon="-1.55009">
        <ele>20</ele>
        <time>2026-08-23T14:52:22.000Z</time>
      </trkpt>
      <trkpt lat="43.35078" lon="-1.54991">
        <ele>19</ele>
        <time>2026-08-23T14:52:26.000Z</time>
      </trkpt>
      <trkpt lat="43.3509" lon="-1.54968">
        <ele>19</ele>
        <time>2026-08-23T14:52:30.000Z</time>
      </trkpt>
      <trkpt lat="43.3509" lon="-1.54959">
        <ele>19</ele>
        <time>2026-08-23T14:52:31.000Z</time>
      </trkpt>
      <trkpt lat="43.35092" lon="-1.54951">
        <ele>19</ele>
        <time>2026-08-23T14:52:32.000Z</time>
      </trkpt>
      <trkpt lat="43.35095" lon="-1.54944">
        <ele>19</ele>
        <time>2026-08-23T14:52:33.000Z</time>
      </trkpt>
      <trkpt lat="43.35106" lon="-1.54935">
        <ele>19</ele>
        <time>2026-08-23T14:52:35.000Z</time>
      </trkpt>
      <trkpt lat="43.35113" lon="-1.54934">
        <ele>19</ele>
        <time>2026-08-23T14:52:37.000Z</time>
      </trkpt>
      <trkpt lat="43.3512" lon="-1.54937">
        <ele>19</ele>
        <time>2026-08-23T14:52:38.000Z</time>
      </trkpt>
      <trkpt lat="43.35126" lon="-1.54942">
        <ele>19</ele>
        <time>2026-08-23T14:52:39.000Z</time>
      </trkpt>
      <trkpt lat="43.35132" lon="-1.54956">
        <ele>18</ele>
        <time>2026-08-23T14:52:41.000Z</time>
      </trkpt>
      <trkpt lat="43.35133" lon="-1.54964">
        <ele>18</ele>
        <time>2026-08-23T14:52:42.000Z</time>
      </trkpt>
      <trkpt lat="43.35132" lon="-1.54974">
        <ele>18</ele>
        <time>2026-08-23T14:52:44.000Z</time>
      </trkpt>
      <trkpt lat="43.35128" lon="-1.54983">
        <ele>18</ele>
        <time>2026-08-23T14:52:45.000Z</time>
      </trkpt>
      <trkpt lat="43.35123" lon="-1.5499">
        <ele>18</ele>
        <time>2026-08-23T14:52:46.000Z</time>
      </trkpt>
      <trkpt lat="43.35174" lon="-1.55105">
        <ele>16</ele>
        <time>2026-08-23T14:53:04.000Z</time>
      </trkpt>
      <trkpt lat="43.35209" lon="-1.55187">
        <ele>16</ele>
        <time>2026-08-23T14:53:16.000Z</time>
      </trkpt>
      <trkpt lat="43.3524" lon="-1.55257">
        <ele>17</ele>
        <time>2026-08-23T14:53:27.000Z</time>
      </trkpt>
      <trkpt lat="43.35274" lon="-1.55324">
        <ele>18</ele>
        <time>2026-08-23T14:53:37.000Z</time>
      </trkpt>
      <trkpt lat="43.35293" lon="-1.55347">
        <ele>17</ele>
        <time>2026-08-23T14:53:42.000Z</time>
      </trkpt>
      <trkpt lat="43.35313" lon="-1.55363">
        <ele>17</ele>
        <time>2026-08-23T14:53:46.000Z</time>
      </trkpt>
      <trkpt lat="43.35338" lon="-1.55377">
        <ele>16</ele>
        <time>2026-08-23T14:53:51.000Z</time>
      </trkpt>
      <trkpt lat="43.35369" lon="-1.55382">
        <ele>16</ele>
        <time>2026-08-23T14:53:56.000Z</time>
      </trkpt>
      <trkpt lat="43.35398" lon="-1.5538">
        <ele>16</ele>
        <time>2026-08-23T14:54:01.000Z</time>
      </trkpt>
      <trkpt lat="43.35456" lon="-1.55371">
        <ele>16</ele>
        <time>2026-08-23T14:54:12.000Z</time>
      </trkpt>
      <trkpt lat="43.35483" lon="-1.5537">
        <ele>16</ele>
        <time>2026-08-23T14:54:16.000Z</time>
      </trkpt>
      <trkpt lat="43.35509" lon="-1.55378">
        <ele>16</ele>
        <time>2026-08-23T14:54:21.000Z</time>
      </trkpt>
      <trkpt lat="43.35523" lon="-1.55388">
        <ele>16</ele>
        <time>2026-08-23T14:54:24.000Z</time>
      </trkpt>
      <trkpt lat="43.35548" lon="-1.55396">
        <ele>16</ele>
        <time>2026-08-23T14:54:29.000Z</time>
      </trkpt>
      <trkpt lat="43.35551" lon="-1.55396">
        <ele>16</ele>
        <time>2026-08-23T14:54:29.000Z</time>
      </trkpt>
      <trkpt lat="43.35554" lon="-1.55395">
        <ele>16</ele>
        <time>2026-08-23T14:54:30.000Z</time>
      </trkpt>
      <trkpt lat="43.35561" lon="-1.554">
        <ele>16</ele>
        <time>2026-08-23T14:54:31.000Z</time>
      </trkpt>
      <trkpt lat="43.35565" lon="-1.55409">
        <ele>16</ele>
        <time>2026-08-23T14:54:32.000Z</time>
      </trkpt>
      <trkpt lat="43.35565" lon="-1.55416">
        <ele>16</ele>
        <time>2026-08-23T14:54:33.000Z</time>
      </trkpt>
      <trkpt lat="43.35564" lon="-1.55422">
        <ele>16</ele>
        <time>2026-08-23T14:54:34.000Z</time>
      </trkpt>
      <trkpt lat="43.35575" lon="-1.55466">
        <ele>14</ele>
        <time>2026-08-23T14:54:40.000Z</time>
      </trkpt>
      <trkpt lat="43.35579" lon="-1.55487">
        <ele>14</ele>
        <time>2026-08-23T14:54:43.000Z</time>
      </trkpt>
      <trkpt lat="43.35581" lon="-1.55514">
        <ele>13</ele>
        <time>2026-08-23T14:54:46.000Z</time>
      </trkpt>
      <trkpt lat="43.35585" lon="-1.55731">
        <ele>16</ele>
        <time>2026-08-23T14:55:15.000Z</time>
      </trkpt>
      <trkpt lat="43.35588" lon="-1.55791">
        <ele>16</ele>
        <time>2026-08-23T14:55:22.000Z</time>
      </trkpt>
      <trkpt lat="43.35592" lon="-1.55814">
        <ele>15</ele>
        <time>2026-08-23T14:55:25.000Z</time>
      </trkpt>
      <trkpt lat="43.35606" lon="-1.55857">
        <ele>15</ele>
        <time>2026-08-23T14:55:31.000Z</time>
      </trkpt>
      <trkpt lat="43.35632" lon="-1.55899">
        <ele>15</ele>
        <time>2026-08-23T14:55:39.000Z</time>
      </trkpt>
      <trkpt lat="43.35646" lon="-1.55913">
        <ele>16</ele>
        <time>2026-08-23T14:55:42.000Z</time>
      </trkpt>
      <trkpt lat="43.35682" lon="-1.55941">
        <ele>16</ele>
        <time>2026-08-23T14:55:49.000Z</time>
      </trkpt>
      <trkpt lat="43.35718" lon="-1.5597">
        <ele>16</ele>
        <time>2026-08-23T14:55:56.000Z</time>
      </trkpt>
      <trkpt lat="43.35741" lon="-1.55983">
        <ele>17</ele>
        <time>2026-08-23T14:56:01.000Z</time>
      </trkpt>
      <trkpt lat="43.35745" lon="-1.55978">
        <ele>17</ele>
        <time>2026-08-23T14:56:02.000Z</time>
      </trkpt>
      <trkpt lat="43.35751" lon="-1.55976">
        <ele>17</ele>
        <time>2026-08-23T14:56:03.000Z</time>
      </trkpt>
      <trkpt lat="43.35756" lon="-1.55977">
        <ele>17</ele>
        <time>2026-08-23T14:56:04.000Z</time>
      </trkpt>
      <trkpt lat="43.35762" lon="-1.55982">
        <ele>18</ele>
        <time>2026-08-23T14:56:05.000Z</time>
      </trkpt>
      <trkpt lat="43.35766" lon="-1.55989">
        <ele>18</ele>
        <time>2026-08-23T14:56:06.000Z</time>
      </trkpt>
      <trkpt lat="43.35767" lon="-1.55997">
        <ele>18</ele>
        <time>2026-08-23T14:56:07.000Z</time>
      </trkpt>
      <trkpt lat="43.35764" lon="-1.56008">
        <ele>19</ele>
        <time>2026-08-23T14:56:09.000Z</time>
      </trkpt>
      <trkpt lat="43.3576" lon="-1.56015">
        <ele>19</ele>
        <time>2026-08-23T14:56:10.000Z</time>
      </trkpt>
      <trkpt lat="43.35753" lon="-1.56017">
        <ele>19</ele>
        <time>2026-08-23T14:56:11.000Z</time>
      </trkpt>
      <trkpt lat="43.35747" lon="-1.56016">
        <ele>19</ele>
        <time>2026-08-23T14:56:12.000Z</time>
      </trkpt>
      <trkpt lat="43.3573" lon="-1.56032">
        <ele>19</ele>
        <time>2026-08-23T14:56:16.000Z</time>
      </trkpt>
      <trkpt lat="43.35721" lon="-1.56041">
        <ele>19</ele>
        <time>2026-08-23T14:56:18.000Z</time>
      </trkpt>
      <trkpt lat="43.35697" lon="-1.56057">
        <ele>18</ele>
        <time>2026-08-23T14:56:23.000Z</time>
      </trkpt>
      <trkpt lat="43.35652" lon="-1.56087">
        <ele>18</ele>
        <time>2026-08-23T14:56:32.000Z</time>
      </trkpt>
      <trkpt lat="43.35648" lon="-1.5608">
        <ele>17</ele>
        <time>2026-08-23T14:56:33.000Z</time>
      </trkpt>
      <trkpt lat="43.35642" lon="-1.56085">
        <ele>17</ele>
        <time>2026-08-23T14:56:34.000Z</time>
      </trkpt>
      <trkpt lat="43.35635" lon="-1.56094">
        <ele>18</ele>
        <time>2026-08-23T14:56:36.000Z</time>
      </trkpt>
      <trkpt lat="43.35618" lon="-1.56125">
        <ele>18</ele>
        <time>2026-08-23T14:56:41.000Z</time>
      </trkpt>
      <trkpt lat="43.35614" lon="-1.56149">
        <ele>19</ele>
        <time>2026-08-23T14:56:44.000Z</time>
      </trkpt>
      <trkpt lat="43.35609" lon="-1.56223">
        <ele>18</ele>
        <time>2026-08-23T14:56:54.000Z</time>
      </trkpt>
      <trkpt lat="43.3561" lon="-1.56297">
        <ele>18</ele>
        <time>2026-08-23T14:57:03.000Z</time>
      </trkpt>
      <trkpt lat="43.35612" lon="-1.56369">
        <ele>18</ele>
        <time>2026-08-23T14:57:12.000Z</time>
      </trkpt>
      <trkpt lat="43.35616" lon="-1.56498">
        <ele>18</ele>
        <time>2026-08-23T14:57:29.000Z</time>
      </trkpt>
      <trkpt lat="43.35622" lon="-1.56509">
        <ele>19</ele>
        <time>2026-08-23T14:57:31.000Z</time>
      </trkpt>
      <trkpt lat="43.35622" lon="-1.56558">
        <ele>19</ele>
        <time>2026-08-23T14:57:37.000Z</time>
      </trkpt>
      <trkpt lat="43.35624" lon="-1.56576">
        <ele>19</ele>
        <time>2026-08-23T14:57:40.000Z</time>
      </trkpt>
      <trkpt lat="43.35624" lon="-1.56587">
        <ele>19</ele>
        <time>2026-08-23T14:57:41.000Z</time>
      </trkpt>
      <trkpt lat="43.3563" lon="-1.56589">
        <ele>19</ele>
        <time>2026-08-23T14:57:42.000Z</time>
      </trkpt>
      <trkpt lat="43.35634" lon="-1.56595">
        <ele>19</ele>
        <time>2026-08-23T14:57:43.000Z</time>
      </trkpt>
      <trkpt lat="43.35635" lon="-1.56599">
        <ele>19</ele>
        <time>2026-08-23T14:57:44.000Z</time>
      </trkpt>
      <trkpt lat="43.35632" lon="-1.56611">
        <ele>19</ele>
        <time>2026-08-23T14:57:45.000Z</time>
      </trkpt>
      <trkpt lat="43.35627" lon="-1.56615">
        <ele>19</ele>
        <time>2026-08-23T14:57:46.000Z</time>
      </trkpt>
      <trkpt lat="43.35624" lon="-1.56615">
        <ele>19</ele>
        <time>2026-08-23T14:57:47.000Z</time>
      </trkpt>
      <trkpt lat="43.35625" lon="-1.56626">
        <ele>19</ele>
        <time>2026-08-23T14:57:48.000Z</time>
      </trkpt>
      <trkpt lat="43.35625" lon="-1.56642">
        <ele>19</ele>
        <time>2026-08-23T14:57:50.000Z</time>
      </trkpt>
      <trkpt lat="43.35619" lon="-1.56681">
        <ele>19</ele>
        <time>2026-08-23T14:57:56.000Z</time>
      </trkpt>
      <trkpt lat="43.35617" lon="-1.56692">
        <ele>19</ele>
        <time>2026-08-23T14:57:57.000Z</time>
      </trkpt>
      <trkpt lat="43.35608" lon="-1.56729">
        <ele>18</ele>
        <time>2026-08-23T14:58:02.000Z</time>
      </trkpt>
      <trkpt lat="43.35589" lon="-1.56787">
        <ele>17</ele>
        <time>2026-08-23T14:58:10.000Z</time>
      </trkpt>
      <trkpt lat="43.35585" lon="-1.56813">
        <ele>17</ele>
        <time>2026-08-23T14:58:14.000Z</time>
      </trkpt>
      <trkpt lat="43.35586" lon="-1.56839">
        <ele>17</ele>
        <time>2026-08-23T14:58:17.000Z</time>
      </trkpt>
      <trkpt lat="43.35588" lon="-1.56851">
        <ele>17</ele>
        <time>2026-08-23T14:58:19.000Z</time>
      </trkpt>
      <trkpt lat="43.35597" lon="-1.56872">
        <ele>17</ele>
        <time>2026-08-23T14:58:22.000Z</time>
      </trkpt>
      <trkpt lat="43.35617" lon="-1.5691">
        <ele>17</ele>
        <time>2026-08-23T14:58:28.000Z</time>
      </trkpt>
      <trkpt lat="43.35625" lon="-1.56922">
        <ele>17</ele>
        <time>2026-08-23T14:58:30.000Z</time>
      </trkpt>
      <trkpt lat="43.35664" lon="-1.57006">
        <ele>15</ele>
        <time>2026-08-23T14:58:43.000Z</time>
      </trkpt>
      <trkpt lat="43.35681" lon="-1.57042">
        <ele>15</ele>
        <time>2026-08-23T14:58:49.000Z</time>
      </trkpt>
      <trkpt lat="43.35723" lon="-1.57132">
        <ele>15</ele>
        <time>2026-08-23T14:59:02.000Z</time>
      </trkpt>
      <trkpt lat="43.35733" lon="-1.5716">
        <ele>15</ele>
        <time>2026-08-23T14:59:06.000Z</time>
      </trkpt>
      <trkpt lat="43.3574" lon="-1.57189">
        <ele>15</ele>
        <time>2026-08-23T14:59:10.000Z</time>
      </trkpt>
      <trkpt lat="43.35745" lon="-1.57225">
        <ele>14</ele>
        <time>2026-08-23T14:59:15.000Z</time>
      </trkpt>
      <trkpt lat="43.35751" lon="-1.57286">
        <ele>14</ele>
        <time>2026-08-23T14:59:23.000Z</time>
      </trkpt>
      <trkpt lat="43.35754" lon="-1.57323">
        <ele>13</ele>
        <time>2026-08-23T14:59:28.000Z</time>
      </trkpt>
      <trkpt lat="43.35756" lon="-1.57342">
        <ele>13</ele>
        <time>2026-08-23T14:59:30.000Z</time>
      </trkpt>
      <trkpt lat="43.35758" lon="-1.57366">
        <ele>13</ele>
        <time>2026-08-23T14:59:33.000Z</time>
      </trkpt>
      <trkpt lat="43.35763" lon="-1.57418">
        <ele>13</ele>
        <time>2026-08-23T14:59:40.000Z</time>
      </trkpt>
      <trkpt lat="43.35767" lon="-1.57433">
        <ele>13</ele>
        <time>2026-08-23T14:59:42.000Z</time>
      </trkpt>
      <trkpt lat="43.35781" lon="-1.57454">
        <ele>13</ele>
        <time>2026-08-23T14:59:46.000Z</time>
      </trkpt>
      <trkpt lat="43.35787" lon="-1.57459">
        <ele>13</ele>
        <time>2026-08-23T14:59:47.000Z</time>
      </trkpt>
      <trkpt lat="43.35789" lon="-1.57464">
        <ele>13</ele>
        <time>2026-08-23T14:59:48.000Z</time>
      </trkpt>
      <trkpt lat="43.35789" lon="-1.5747">
        <ele>13</ele>
        <time>2026-08-23T14:59:49.000Z</time>
      </trkpt>
      <trkpt lat="43.35785" lon="-1.5748">
        <ele>13</ele>
        <time>2026-08-23T14:59:50.000Z</time>
      </trkpt>
      <trkpt lat="43.35781" lon="-1.57496">
        <ele>13</ele>
        <time>2026-08-23T14:59:52.000Z</time>
      </trkpt>
      <trkpt lat="43.35779" lon="-1.57526">
        <ele>13</ele>
        <time>2026-08-23T14:59:56.000Z</time>
      </trkpt>
      <trkpt lat="43.35779" lon="-1.57552">
        <ele>13</ele>
        <time>2026-08-23T15:00:00.000Z</time>
      </trkpt>
      <trkpt lat="43.35783" lon="-1.57586">
        <ele>13</ele>
        <time>2026-08-23T15:00:04.000Z</time>
      </trkpt>
      <trkpt lat="43.35807" lon="-1.5772">
        <ele>12</ele>
        <time>2026-08-23T15:00:22.000Z</time>
      </trkpt>
      <trkpt lat="43.35838" lon="-1.57869">
        <ele>11</ele>
        <time>2026-08-23T15:00:42.000Z</time>
      </trkpt>
      <trkpt lat="43.35852" lon="-1.57913">
        <ele>12</ele>
        <time>2026-08-23T15:00:48.000Z</time>
      </trkpt>
      <trkpt lat="43.35882" lon="-1.57972">
        <ele>11</ele>
        <time>2026-08-23T15:00:58.000Z</time>
      </trkpt>
      <trkpt lat="43.35894" lon="-1.57993">
        <ele>11</ele>
        <time>2026-08-23T15:01:01.000Z</time>
      </trkpt>
      <trkpt lat="43.35991" lon="-1.58131">
        <ele>11</ele>
        <time>2026-08-23T15:01:26.000Z</time>
      </trkpt>
      <trkpt lat="43.36003" lon="-1.58148">
        <ele>11</ele>
        <time>2026-08-23T15:01:29.000Z</time>
      </trkpt>
      <trkpt lat="43.36109" lon="-1.58303">
        <ele>12</ele>
        <time>2026-08-23T15:01:56.000Z</time>
      </trkpt>
      <trkpt lat="43.36129" lon="-1.58341">
        <ele>12</ele>
        <time>2026-08-23T15:02:03.000Z</time>
      </trkpt>
      <trkpt lat="43.36139" lon="-1.58363">
        <ele>12</ele>
        <time>2026-08-23T15:02:06.000Z</time>
      </trkpt>
      <trkpt lat="43.36164" lon="-1.58429">
        <ele>12</ele>
        <time>2026-08-23T15:02:16.000Z</time>
      </trkpt>
      <trkpt lat="43.36232" lon="-1.58645">
        <ele>11</ele>
        <time>2026-08-23T15:02:46.000Z</time>
      </trkpt>
      <trkpt lat="43.36257" lon="-1.58723">
        <ele>14</ele>
        <time>2026-08-23T15:02:57.000Z</time>
      </trkpt>
      <trkpt lat="43.3628" lon="-1.58766">
        <ele>18</ele>
        <time>2026-08-23T15:03:04.000Z</time>
      </trkpt>
      <trkpt lat="43.36308" lon="-1.58801">
        <ele>19</ele>
        <time>2026-08-23T15:03:11.000Z</time>
      </trkpt>
      <trkpt lat="43.36402" lon="-1.58885">
        <ele>17</ele>
        <time>2026-08-23T15:03:31.000Z</time>
      </trkpt>
      <trkpt lat="43.36427" lon="-1.58913">
        <ele>13</ele>
        <time>2026-08-23T15:03:36.000Z</time>
      </trkpt>
      <trkpt lat="43.36444" lon="-1.58941">
        <ele>12</ele>
        <time>2026-08-23T15:03:41.000Z</time>
      </trkpt>
      <trkpt lat="43.3646" lon="-1.58976">
        <ele>11</ele>
        <time>2026-08-23T15:03:46.000Z</time>
      </trkpt>
      <trkpt lat="43.36482" lon="-1.59044">
        <ele>9</ele>
        <time>2026-08-23T15:03:56.000Z</time>
      </trkpt>
      <trkpt lat="43.36538" lon="-1.59228">
        <ele>10</ele>
        <time>2026-08-23T15:04:22.000Z</time>
      </trkpt>
      <trkpt lat="43.36581" lon="-1.59376">
        <ele>9</ele>
        <time>2026-08-23T15:04:42.000Z</time>
      </trkpt>
      <trkpt lat="43.36589" lon="-1.5943">
        <ele>9</ele>
        <time>2026-08-23T15:04:50.000Z</time>
      </trkpt>
      <trkpt lat="43.36592" lon="-1.59482">
        <ele>9</ele>
        <time>2026-08-23T15:04:56.000Z</time>
      </trkpt>
      <trkpt lat="43.36588" lon="-1.59546">
        <ele>11</ele>
        <time>2026-08-23T15:05:05.000Z</time>
      </trkpt>
      <trkpt lat="43.36567" lon="-1.59809">
        <ele>18</ele>
        <time>2026-08-23T15:05:39.000Z</time>
      </trkpt>
      <trkpt lat="43.36562" lon="-1.59843">
        <ele>18</ele>
        <time>2026-08-23T15:05:43.000Z</time>
      </trkpt>
      <trkpt lat="43.36549" lon="-1.59873">
        <ele>17</ele>
        <time>2026-08-23T15:05:48.000Z</time>
      </trkpt>
      <trkpt lat="43.36533" lon="-1.59897">
        <ele>16</ele>
        <time>2026-08-23T15:05:52.000Z</time>
      </trkpt>
      <trkpt lat="43.36504" lon="-1.59919">
        <ele>13</ele>
        <time>2026-08-23T15:05:58.000Z</time>
      </trkpt>
      <trkpt lat="43.36476" lon="-1.5994">
        <ele>14</ele>
        <time>2026-08-23T15:06:04.000Z</time>
      </trkpt>
      <trkpt lat="43.36447" lon="-1.59965">
        <ele>14</ele>
        <time>2026-08-23T15:06:10.000Z</time>
      </trkpt>
      <trkpt lat="43.36418" lon="-1.59996">
        <ele>13</ele>
        <time>2026-08-23T15:06:16.000Z</time>
      </trkpt>
      <trkpt lat="43.36387" lon="-1.60042">
        <ele>15</ele>
        <time>2026-08-23T15:06:24.000Z</time>
      </trkpt>
      <trkpt lat="43.36371" lon="-1.60073">
        <ele>15</ele>
        <time>2026-08-23T15:06:29.000Z</time>
      </trkpt>
      <trkpt lat="43.3636" lon="-1.60104">
        <ele>16</ele>
        <time>2026-08-23T15:06:34.000Z</time>
      </trkpt>
      <trkpt lat="43.36336" lon="-1.60166">
        <ele>16</ele>
        <time>2026-08-23T15:06:43.000Z</time>
      </trkpt>
      <trkpt lat="43.36316" lon="-1.60201">
        <ele>20</ele>
        <time>2026-08-23T15:06:49.000Z</time>
      </trkpt>
      <trkpt lat="43.36299" lon="-1.60225">
        <ele>21</ele>
        <time>2026-08-23T15:06:53.000Z</time>
      </trkpt>
      <trkpt lat="43.36264" lon="-1.60257">
        <ele>19</ele>
        <time>2026-08-23T15:07:00.000Z</time>
      </trkpt>
      <trkpt lat="43.36211" lon="-1.60302">
        <ele>16</ele>
        <time>2026-08-23T15:07:11.000Z</time>
      </trkpt>
      <trkpt lat="43.36173" lon="-1.60338">
        <ele>13</ele>
        <time>2026-08-23T15:07:20.000Z</time>
      </trkpt>
      <trkpt lat="43.36153" lon="-1.60362">
        <ele>14</ele>
        <time>2026-08-23T15:07:24.000Z</time>
      </trkpt>
      <trkpt lat="43.36138" lon="-1.60384">
        <ele>15</ele>
        <time>2026-08-23T15:07:28.000Z</time>
      </trkpt>
      <trkpt lat="43.36126" lon="-1.60409">
        <ele>15</ele>
        <time>2026-08-23T15:07:32.000Z</time>
      </trkpt>
      <trkpt lat="43.36116" lon="-1.60439">
        <ele>16</ele>
        <time>2026-08-23T15:07:36.000Z</time>
      </trkpt>
      <trkpt lat="43.36109" lon="-1.60462">
        <ele>16</ele>
        <time>2026-08-23T15:07:40.000Z</time>
      </trkpt>
      <trkpt lat="43.36103" lon="-1.60494">
        <ele>17</ele>
        <time>2026-08-23T15:07:44.000Z</time>
      </trkpt>
      <trkpt lat="43.36102" lon="-1.60519">
        <ele>17</ele>
        <time>2026-08-23T15:07:47.000Z</time>
      </trkpt>
      <trkpt lat="43.36102" lon="-1.60551">
        <ele>17</ele>
        <time>2026-08-23T15:07:51.000Z</time>
      </trkpt>
      <trkpt lat="43.36104" lon="-1.60585">
        <ele>18</ele>
        <time>2026-08-23T15:07:56.000Z</time>
      </trkpt>
      <trkpt lat="43.36107" lon="-1.60616">
        <ele>18</ele>
        <time>2026-08-23T15:08:00.000Z</time>
      </trkpt>
      <trkpt lat="43.36118" lon="-1.60724">
        <ele>18</ele>
        <time>2026-08-23T15:08:14.000Z</time>
      </trkpt>
      <trkpt lat="43.36119" lon="-1.6075">
        <ele>18</ele>
        <time>2026-08-23T15:08:17.000Z</time>
      </trkpt>
      <trkpt lat="43.36114" lon="-1.60831">
        <ele>16</ele>
        <time>2026-08-23T15:08:28.000Z</time>
      </trkpt>
      <trkpt lat="43.36113" lon="-1.60838">
        <ele>16</ele>
        <time>2026-08-23T15:08:29.000Z</time>
      </trkpt>
      <trkpt lat="43.36105" lon="-1.61018">
        <ele>17</ele>
        <time>2026-08-23T15:08:52.000Z</time>
      </trkpt>
      <trkpt lat="43.36101" lon="-1.61078">
        <ele>15</ele>
        <time>2026-08-23T15:09:00.000Z</time>
      </trkpt>
      <trkpt lat="43.36091" lon="-1.61139">
        <ele>13</ele>
        <time>2026-08-23T15:09:08.000Z</time>
      </trkpt>
      <trkpt lat="43.36075" lon="-1.61188">
        <ele>12</ele>
        <time>2026-08-23T15:09:15.000Z</time>
      </trkpt>
      <trkpt lat="43.36058" lon="-1.61226">
        <ele>11</ele>
        <time>2026-08-23T15:09:21.000Z</time>
      </trkpt>
      <trkpt lat="43.36051" lon="-1.61238">
        <ele>11</ele>
        <time>2026-08-23T15:09:23.000Z</time>
      </trkpt>
      <trkpt lat="43.36033" lon="-1.61268">
        <ele>11</ele>
        <time>2026-08-23T15:09:28.000Z</time>
      </trkpt>
      <trkpt lat="43.35992" lon="-1.61321">
        <ele>11</ele>
        <time>2026-08-23T15:09:38.000Z</time>
      </trkpt>
      <trkpt lat="43.35934" lon="-1.61396">
        <ele>16</ele>
        <time>2026-08-23T15:09:52.000Z</time>
      </trkpt>
      <trkpt lat="43.35913" lon="-1.61419">
        <ele>16</ele>
        <time>2026-08-23T15:09:57.000Z</time>
      </trkpt>
      <trkpt lat="43.35815" lon="-1.61503">
        <ele>12</ele>
        <time>2026-08-23T15:10:17.000Z</time>
      </trkpt>
      <trkpt lat="43.35787" lon="-1.61535">
        <ele>14</ele>
        <time>2026-08-23T15:10:24.000Z</time>
      </trkpt>
      <trkpt lat="43.35609" lon="-1.61816">
        <ele>13</ele>
        <time>2026-08-23T15:11:12.000Z</time>
      </trkpt>
      <trkpt lat="43.35593" lon="-1.6184">
        <ele>12</ele>
        <time>2026-08-23T15:11:16.000Z</time>
      </trkpt>
      <trkpt lat="43.35515" lon="-1.61963">
        <ele>18</ele>
        <time>2026-08-23T15:11:37.000Z</time>
      </trkpt>
      <trkpt lat="43.35486" lon="-1.62001">
        <ele>18</ele>
        <time>2026-08-23T15:11:44.000Z</time>
      </trkpt>
      <trkpt lat="43.35432" lon="-1.62045">
        <ele>21</ele>
        <time>2026-08-23T15:11:55.000Z</time>
      </trkpt>
      <trkpt lat="43.35407" lon="-1.6206">
        <ele>21</ele>
        <time>2026-08-23T15:12:00.000Z</time>
      </trkpt>
      <trkpt lat="43.35384" lon="-1.6207">
        <ele>21</ele>
        <time>2026-08-23T15:12:05.000Z</time>
      </trkpt>
      <trkpt lat="43.3524" lon="-1.62126">
        <ele>14</ele>
        <time>2026-08-23T15:12:31.000Z</time>
      </trkpt>
      <trkpt lat="43.35214" lon="-1.62143">
        <ele>12</ele>
        <time>2026-08-23T15:12:36.000Z</time>
      </trkpt>
      <trkpt lat="43.35201" lon="-1.62157">
        <ele>12</ele>
        <time>2026-08-23T15:12:39.000Z</time>
      </trkpt>
      <trkpt lat="43.35181" lon="-1.62185">
        <ele>11</ele>
        <time>2026-08-23T15:12:44.000Z</time>
      </trkpt>
      <trkpt lat="43.35127" lon="-1.62289">
        <ele>11</ele>
        <time>2026-08-23T15:13:01.000Z</time>
      </trkpt>
      <trkpt lat="43.35113" lon="-1.62319">
        <ele>10</ele>
        <time>2026-08-23T15:13:06.000Z</time>
      </trkpt>
      <trkpt lat="43.35109" lon="-1.62334">
        <ele>10</ele>
        <time>2026-08-23T15:13:08.000Z</time>
      </trkpt>
      <trkpt lat="43.35106" lon="-1.62363">
        <ele>10</ele>
        <time>2026-08-23T15:13:11.000Z</time>
      </trkpt>
      <trkpt lat="43.35103" lon="-1.62402">
        <ele>11</ele>
        <time>2026-08-23T15:13:16.000Z</time>
      </trkpt>
      <trkpt lat="43.35103" lon="-1.62461">
        <ele>10</ele>
        <time>2026-08-23T15:13:24.000Z</time>
      </trkpt>
      <trkpt lat="43.35111" lon="-1.62501">
        <ele>11</ele>
        <time>2026-08-23T15:13:29.000Z</time>
      </trkpt>
      <trkpt lat="43.35115" lon="-1.62516">
        <ele>12</ele>
        <time>2026-08-23T15:13:32.000Z</time>
      </trkpt>
      <trkpt lat="43.35118" lon="-1.62528">
        <ele>12</ele>
        <time>2026-08-23T15:13:33.000Z</time>
      </trkpt>
      <trkpt lat="43.35123" lon="-1.62544">
        <ele>12</ele>
        <time>2026-08-23T15:13:35.000Z</time>
      </trkpt>
      <trkpt lat="43.35142" lon="-1.62592">
        <ele>12</ele>
        <time>2026-08-23T15:13:43.000Z</time>
      </trkpt>
      <trkpt lat="43.3519" lon="-1.62714">
        <ele>8</ele>
        <time>2026-08-23T15:14:00.000Z</time>
      </trkpt>
      <trkpt lat="43.35207" lon="-1.62759">
        <ele>8</ele>
        <time>2026-08-23T15:14:07.000Z</time>
      </trkpt>
      <trkpt lat="43.35255" lon="-1.629">
        <ele>6</ele>
        <time>2026-08-23T15:14:27.000Z</time>
      </trkpt>
      <trkpt lat="43.35268" lon="-1.62932">
        <ele>6</ele>
        <time>2026-08-23T15:14:32.000Z</time>
      </trkpt>
      <trkpt lat="43.35289" lon="-1.62974">
        <ele>6</ele>
        <time>2026-08-23T15:14:38.000Z</time>
      </trkpt>
      <trkpt lat="43.35306" lon="-1.62998">
        <ele>6</ele>
        <time>2026-08-23T15:14:43.000Z</time>
      </trkpt>
      <trkpt lat="43.3535" lon="-1.63044">
        <ele>7</ele>
        <time>2026-08-23T15:14:53.000Z</time>
      </trkpt>
      <trkpt lat="43.35386" lon="-1.63073">
        <ele>7</ele>
        <time>2026-08-23T15:15:00.000Z</time>
      </trkpt>
      <trkpt lat="43.35403" lon="-1.63082">
        <ele>7</ele>
        <time>2026-08-23T15:15:03.000Z</time>
      </trkpt>
      <trkpt lat="43.35415" lon="-1.63087">
        <ele>7</ele>
        <time>2026-08-23T15:15:06.000Z</time>
      </trkpt>
      <trkpt lat="43.3544" lon="-1.63097">
        <ele>6</ele>
        <time>2026-08-23T15:15:10.000Z</time>
      </trkpt>
      <trkpt lat="43.3561" lon="-1.63147">
        <ele>5</ele>
        <time>2026-08-23T15:15:41.000Z</time>
      </trkpt>
      <trkpt lat="43.35614" lon="-1.63148">
        <ele>5</ele>
        <time>2026-08-23T15:15:42.000Z</time>
      </trkpt>
      <trkpt lat="43.3564" lon="-1.63144">
        <ele>6</ele>
        <time>2026-08-23T15:15:46.000Z</time>
      </trkpt>
      <trkpt lat="43.35647" lon="-1.63139">
        <ele>6</ele>
        <time>2026-08-23T15:15:48.000Z</time>
      </trkpt>
      <trkpt lat="43.35652" lon="-1.63132">
        <ele>7</ele>
        <time>2026-08-23T15:15:49.000Z</time>
      </trkpt>
      <trkpt lat="43.35657" lon="-1.63129">
        <ele>7</ele>
        <time>2026-08-23T15:15:50.000Z</time>
      </trkpt>
      <trkpt lat="43.35664" lon="-1.63131">
        <ele>7</ele>
        <time>2026-08-23T15:15:51.000Z</time>
      </trkpt>
      <trkpt lat="43.3567" lon="-1.63137">
        <ele>7</ele>
        <time>2026-08-23T15:15:53.000Z</time>
      </trkpt>
      <trkpt lat="43.35673" lon="-1.63149">
        <ele>7</ele>
        <time>2026-08-23T15:15:54.000Z</time>
      </trkpt>
      <trkpt lat="43.3568" lon="-1.63157">
        <ele>7</ele>
        <time>2026-08-23T15:15:56.000Z</time>
      </trkpt>
      <trkpt lat="43.35699" lon="-1.63173">
        <ele>6</ele>
        <time>2026-08-23T15:16:00.000Z</time>
      </trkpt>
      <trkpt lat="43.35728" lon="-1.63183">
        <ele>7</ele>
        <time>2026-08-23T15:16:05.000Z</time>
      </trkpt>
      <trkpt lat="43.3575" lon="-1.63192">
        <ele>7</ele>
        <time>2026-08-23T15:16:09.000Z</time>
      </trkpt>
      <trkpt lat="43.35789" lon="-1.63219">
        <ele>9</ele>
        <time>2026-08-23T15:16:17.000Z</time>
      </trkpt>
      <trkpt lat="43.35853" lon="-1.63275">
        <ele>9</ele>
        <time>2026-08-23T15:16:31.000Z</time>
      </trkpt>
      <trkpt lat="43.35859" lon="-1.6328">
        <ele>9</ele>
        <time>2026-08-23T15:16:32.000Z</time>
      </trkpt>
      <trkpt lat="43.35921" lon="-1.63341">
        <ele>8</ele>
        <time>2026-08-23T15:16:45.000Z</time>
      </trkpt>
      <trkpt lat="43.35935" lon="-1.63358">
        <ele>9</ele>
        <time>2026-08-23T15:16:49.000Z</time>
      </trkpt>
      <trkpt lat="43.35984" lon="-1.63434">
        <ele>8</ele>
        <time>2026-08-23T15:17:02.000Z</time>
      </trkpt>
      <trkpt lat="43.35995" lon="-1.63453">
        <ele>8</ele>
        <time>2026-08-23T15:17:05.000Z</time>
      </trkpt>
      <trkpt lat="43.36014" lon="-1.63501">
        <ele>6</ele>
        <time>2026-08-23T15:17:12.000Z</time>
      </trkpt>
      <trkpt lat="43.36029" lon="-1.63531">
        <ele>6</ele>
        <time>2026-08-23T15:17:17.000Z</time>
      </trkpt>
      <trkpt lat="43.36039" lon="-1.63549">
        <ele>6</ele>
        <time>2026-08-23T15:17:20.000Z</time>
      </trkpt>
      <trkpt lat="43.36061" lon="-1.63577">
        <ele>5</ele>
        <time>2026-08-23T15:17:25.000Z</time>
      </trkpt>
      <trkpt lat="43.36075" lon="-1.63589">
        <ele>5</ele>
        <time>2026-08-23T15:17:28.000Z</time>
      </trkpt>
      <trkpt lat="43.36097" lon="-1.63603">
        <ele>5</ele>
        <time>2026-08-23T15:17:32.000Z</time>
      </trkpt>
      <trkpt lat="43.36233" lon="-1.63657">
        <ele>6</ele>
        <time>2026-08-23T15:17:58.000Z</time>
      </trkpt>
      <trkpt lat="43.36254" lon="-1.63665">
        <ele>6</ele>
        <time>2026-08-23T15:18:01.000Z</time>
      </trkpt>
      <trkpt lat="43.36269" lon="-1.63668">
        <ele>6</ele>
        <time>2026-08-23T15:18:04.000Z</time>
      </trkpt>
      <trkpt lat="43.36288" lon="-1.63671">
        <ele>6</ele>
        <time>2026-08-23T15:18:08.000Z</time>
      </trkpt>
      <trkpt lat="43.36323" lon="-1.63671">
        <ele>7</ele>
        <time>2026-08-23T15:18:14.000Z</time>
      </trkpt>
      <trkpt lat="43.36365" lon="-1.63663">
        <ele>7</ele>
        <time>2026-08-23T15:18:21.000Z</time>
      </trkpt>
      <trkpt lat="43.36401" lon="-1.63651">
        <ele>7</ele>
        <time>2026-08-23T15:18:28.000Z</time>
      </trkpt>
      <trkpt lat="43.36595" lon="-1.63589">
        <ele>5</ele>
        <time>2026-08-23T15:19:03.000Z</time>
      </trkpt>
      <trkpt lat="43.36638" lon="-1.63578">
        <ele>7</ele>
        <time>2026-08-23T15:19:11.000Z</time>
      </trkpt>
      <trkpt lat="43.36658" lon="-1.63577">
        <ele>8</ele>
        <time>2026-08-23T15:19:15.000Z</time>
      </trkpt>
      <trkpt lat="43.36675" lon="-1.63576">
        <ele>8</ele>
        <time>2026-08-23T15:19:18.000Z</time>
      </trkpt>
      <trkpt lat="43.36709" lon="-1.63582">
        <ele>8</ele>
        <time>2026-08-23T15:19:24.000Z</time>
      </trkpt>
      <trkpt lat="43.36753" lon="-1.63597">
        <ele>7</ele>
        <time>2026-08-23T15:19:32.000Z</time>
      </trkpt>
      <trkpt lat="43.36893" lon="-1.63685">
        <ele>4</ele>
        <time>2026-08-23T15:19:59.000Z</time>
      </trkpt>
      <trkpt lat="43.37067" lon="-1.63794">
        <ele>6</ele>
        <time>2026-08-23T15:20:33.000Z</time>
      </trkpt>
      <trkpt lat="43.37085" lon="-1.63801">
        <ele>6</ele>
        <time>2026-08-23T15:20:37.000Z</time>
      </trkpt>
      <trkpt lat="43.37111" lon="-1.63806">
        <ele>5</ele>
        <time>2026-08-23T15:20:41.000Z</time>
      </trkpt>
      <trkpt lat="43.37124" lon="-1.63805">
        <ele>5</ele>
        <time>2026-08-23T15:20:44.000Z</time>
      </trkpt>
      <trkpt lat="43.37409" lon="-1.63788">
        <ele>4</ele>
        <time>2026-08-23T15:21:34.000Z</time>
      </trkpt>
      <trkpt lat="43.37444" lon="-1.63779">
        <ele>4</ele>
        <time>2026-08-23T15:21:41.000Z</time>
      </trkpt>
      <trkpt lat="43.37508" lon="-1.63778">
        <ele>4</ele>
        <time>2026-08-23T15:21:52.000Z</time>
      </trkpt>
      <trkpt lat="43.37526" lon="-1.63781">
        <ele>5</ele>
        <time>2026-08-23T15:21:55.000Z</time>
      </trkpt>
      <trkpt lat="43.37541" lon="-1.63773">
        <ele>5</ele>
        <time>2026-08-23T15:21:58.000Z</time>
      </trkpt>
      <trkpt lat="43.37607" lon="-1.63771">
        <ele>6</ele>
        <time>2026-08-23T15:22:10.000Z</time>
      </trkpt>
      <trkpt lat="43.37642" lon="-1.63776">
        <ele>6</ele>
        <time>2026-08-23T15:22:16.000Z</time>
      </trkpt>
      <trkpt lat="43.3772" lon="-1.63773">
        <ele>8</ele>
        <time>2026-08-23T15:22:30.000Z</time>
      </trkpt>
      <trkpt lat="43.37749" lon="-1.63773">
        <ele>8</ele>
        <time>2026-08-23T15:22:35.000Z</time>
      </trkpt>
      <trkpt lat="43.37767" lon="-1.63778">
        <ele>8</ele>
        <time>2026-08-23T15:22:38.000Z</time>
      </trkpt>
      <trkpt lat="43.37776" lon="-1.63786">
        <ele>8</ele>
        <time>2026-08-23T15:22:40.000Z</time>
      </trkpt>
      <trkpt lat="43.37802" lon="-1.63812">
        <ele>8</ele>
        <time>2026-08-23T15:22:46.000Z</time>
      </trkpt>
      <trkpt lat="43.37906" lon="-1.63917">
        <ele>6</ele>
        <time>2026-08-23T15:23:09.000Z</time>
      </trkpt>
      <trkpt lat="43.37908" lon="-1.63919">
        <ele>7</ele>
        <time>2026-08-23T15:23:09.000Z</time>
      </trkpt>
      <trkpt lat="43.37952" lon="-1.6396">
        <ele>7</ele>
        <time>2026-08-23T15:23:19.000Z</time>
      </trkpt>
      <trkpt lat="43.37994" lon="-1.63999">
        <ele>8</ele>
        <time>2026-08-23T15:23:28.000Z</time>
      </trkpt>
      <trkpt lat="43.37999" lon="-1.64003">
        <ele>8</ele>
        <time>2026-08-23T15:23:29.000Z</time>
      </trkpt>
      <trkpt lat="43.38049" lon="-1.64048">
        <ele>9</ele>
        <time>2026-08-23T15:23:40.000Z</time>
      </trkpt>
      <trkpt lat="43.38058" lon="-1.64061">
        <ele>9</ele>
        <time>2026-08-23T15:23:42.000Z</time>
      </trkpt>
      <trkpt lat="43.38109" lon="-1.64167">
        <ele>7</ele>
        <time>2026-08-23T15:23:58.000Z</time>
      </trkpt>
      <trkpt lat="43.38121" lon="-1.64194">
        <ele>6</ele>
        <time>2026-08-23T15:24:02.000Z</time>
      </trkpt>
      <trkpt lat="43.38124" lon="-1.64199">
        <ele>6</ele>
        <time>2026-08-23T15:24:03.000Z</time>
      </trkpt>
      <trkpt lat="43.38155" lon="-1.6423">
        <ele>6</ele>
        <time>2026-08-23T15:24:10.000Z</time>
      </trkpt>
      <trkpt lat="43.38212" lon="-1.64283">
        <ele>5</ele>
        <time>2026-08-23T15:24:22.000Z</time>
      </trkpt>
      <trkpt lat="43.38222" lon="-1.64295">
        <ele>5</ele>
        <time>2026-08-23T15:24:25.000Z</time>
      </trkpt>
      <trkpt lat="43.38233" lon="-1.64308">
        <ele>5</ele>
        <time>2026-08-23T15:24:27.000Z</time>
      </trkpt>
      <trkpt lat="43.38244" lon="-1.64328">
        <ele>5</ele>
        <time>2026-08-23T15:24:31.000Z</time>
      </trkpt>
      <trkpt lat="43.38257" lon="-1.64359">
        <ele>6</ele>
        <time>2026-08-23T15:24:35.000Z</time>
      </trkpt>
      <trkpt lat="43.38261" lon="-1.6437">
        <ele>6</ele>
        <time>2026-08-23T15:24:37.000Z</time>
      </trkpt>
      <trkpt lat="43.38272" lon="-1.64424">
        <ele>8</ele>
        <time>2026-08-23T15:24:44.000Z</time>
      </trkpt>
      <trkpt lat="43.38277" lon="-1.64488">
        <ele>10</ele>
        <time>2026-08-23T15:24:52.000Z</time>
      </trkpt>
      <trkpt lat="43.38278" lon="-1.64501">
        <ele>10</ele>
        <time>2026-08-23T15:24:54.000Z</time>
      </trkpt>
      <trkpt lat="43.3828" lon="-1.64566">
        <ele>9</ele>
        <time>2026-08-23T15:25:02.000Z</time>
      </trkpt>
      <trkpt lat="43.38279" lon="-1.64626">
        <ele>7</ele>
        <time>2026-08-23T15:25:10.000Z</time>
      </trkpt>
      <trkpt lat="43.38274" lon="-1.64685">
        <ele>7</ele>
        <time>2026-08-23T15:25:18.000Z</time>
      </trkpt>
      <trkpt lat="43.38273" lon="-1.64701">
        <ele>7</ele>
        <time>2026-08-23T15:25:20.000Z</time>
      </trkpt>
      <trkpt lat="43.3827" lon="-1.64732">
        <ele>7</ele>
        <time>2026-08-23T15:25:24.000Z</time>
      </trkpt>
      <trkpt lat="43.38264" lon="-1.64796">
        <ele>9</ele>
        <time>2026-08-23T15:25:32.000Z</time>
      </trkpt>
      <trkpt lat="43.38255" lon="-1.6488">
        <ele>9</ele>
        <time>2026-08-23T15:25:43.000Z</time>
      </trkpt>
      <trkpt lat="43.38252" lon="-1.64928">
        <ele>8</ele>
        <time>2026-08-23T15:25:50.000Z</time>
      </trkpt>
      <trkpt lat="43.38254" lon="-1.64945">
        <ele>8</ele>
        <time>2026-08-23T15:25:52.000Z</time>
      </trkpt>
      <trkpt lat="43.3826" lon="-1.64971">
        <ele>8</ele>
        <time>2026-08-23T15:25:55.000Z</time>
      </trkpt>
      <trkpt lat="43.38276" lon="-1.65016">
        <ele>9</ele>
        <time>2026-08-23T15:26:02.000Z</time>
      </trkpt>
      <trkpt lat="43.38302" lon="-1.65087">
        <ele>11</ele>
        <time>2026-08-23T15:26:12.000Z</time>
      </trkpt>
      <trkpt lat="43.38333" lon="-1.65173">
        <ele>12</ele>
        <time>2026-08-23T15:26:24.000Z</time>
      </trkpt>
      <trkpt lat="43.38343" lon="-1.652">
        <ele>12</ele>
        <time>2026-08-23T15:26:28.000Z</time>
      </trkpt>
      <trkpt lat="43.38356" lon="-1.65227">
        <ele>13</ele>
        <time>2026-08-23T15:26:33.000Z</time>
      </trkpt>
      <trkpt lat="43.38363" lon="-1.65232">
        <ele>13</ele>
        <time>2026-08-23T15:26:34.000Z</time>
      </trkpt>
      <trkpt lat="43.38379" lon="-1.65254">
        <ele>14</ele>
        <time>2026-08-23T15:26:38.000Z</time>
      </trkpt>
      <trkpt lat="43.38403" lon="-1.65273">
        <ele>14</ele>
        <time>2026-08-23T15:26:43.000Z</time>
      </trkpt>
      <trkpt lat="43.38412" lon="-1.65283">
        <ele>13</ele>
        <time>2026-08-23T15:26:45.000Z</time>
      </trkpt>
      <trkpt lat="43.38412" lon="-1.65303">
        <ele>10</ele>
        <time>2026-08-23T15:26:48.000Z</time>
      </trkpt>
      <trkpt lat="43.38407" lon="-1.65318">
        <ele>8</ele>
        <time>2026-08-23T15:26:50.000Z</time>
      </trkpt>
      <trkpt lat="43.38404" lon="-1.65322">
        <ele>7</ele>
        <time>2026-08-23T15:26:50.000Z</time>
      </trkpt>
      <trkpt lat="43.3838" lon="-1.65372">
        <ele>5</ele>
        <time>2026-08-23T15:26:58.000Z</time>
      </trkpt>
      <trkpt lat="43.38376" lon="-1.6538">
        <ele>5</ele>
        <time>2026-08-23T15:26:59.000Z</time>
      </trkpt>
      <trkpt lat="43.38372" lon="-1.65388">
        <ele>5</ele>
        <time>2026-08-23T15:27:01.000Z</time>
      </trkpt>
      <trkpt lat="43.38346" lon="-1.6544">
        <ele>5</ele>
        <time>2026-08-23T15:27:09.000Z</time>
      </trkpt>
      <trkpt lat="43.38343" lon="-1.65446">
        <ele>5</ele>
        <time>2026-08-23T15:27:10.000Z</time>
      </trkpt>
      <trkpt lat="43.38341" lon="-1.65462">
        <ele>4</ele>
        <time>2026-08-23T15:27:12.000Z</time>
      </trkpt>
      <trkpt lat="43.38363" lon="-1.65495">
        <ele>4</ele>
        <time>2026-08-23T15:27:18.000Z</time>
      </trkpt>
      <trkpt lat="43.38364" lon="-1.655">
        <ele>4</ele>
        <time>2026-08-23T15:27:18.000Z</time>
      </trkpt>
      <trkpt lat="43.38362" lon="-1.65506">
        <ele>4</ele>
        <time>2026-08-23T15:27:19.000Z</time>
      </trkpt>
      <trkpt lat="43.3836" lon="-1.65509">
        <ele>4</ele>
        <time>2026-08-23T15:27:20.000Z</time>
      </trkpt>
      <trkpt lat="43.38357" lon="-1.65509">
        <ele>4</ele>
        <time>2026-08-23T15:27:20.000Z</time>
      </trkpt>
      <trkpt lat="43.38351" lon="-1.65522">
        <ele>4</ele>
        <time>2026-08-23T15:27:22.000Z</time>
      </trkpt>
      <trkpt lat="43.38329" lon="-1.65551">
        <ele>3</ele>
        <time>2026-08-23T15:27:28.000Z</time>
      </trkpt>
      <trkpt lat="43.383" lon="-1.65591">
        <ele>3</ele>
        <time>2026-08-23T15:27:35.000Z</time>
      </trkpt>
      <trkpt lat="43.38296" lon="-1.65596">
        <ele>3</ele>
        <time>2026-08-23T15:27:36.000Z</time>
      </trkpt>
      <trkpt lat="43.38252" lon="-1.65655">
        <ele>4</ele>
        <time>2026-08-23T15:27:47.000Z</time>
      </trkpt>
      <trkpt lat="43.38236" lon="-1.65679">
        <ele>4</ele>
        <time>2026-08-23T15:27:51.000Z</time>
      </trkpt>
      <trkpt lat="43.38233" lon="-1.65687">
        <ele>4</ele>
        <time>2026-08-23T15:27:52.000Z</time>
      </trkpt>
      <trkpt lat="43.38233" lon="-1.65695">
        <ele>4</ele>
        <time>2026-08-23T15:27:53.000Z</time>
      </trkpt>
      <trkpt lat="43.38234" lon="-1.65703">
        <ele>4</ele>
        <time>2026-08-23T15:27:54.000Z</time>
      </trkpt>
      <trkpt lat="43.38262" lon="-1.65781">
        <ele>4</ele>
        <time>2026-08-23T15:28:06.000Z</time>
      </trkpt>
      <trkpt lat="43.38275" lon="-1.65815">
        <ele>3</ele>
        <time>2026-08-23T15:28:11.000Z</time>
      </trkpt>
      <trkpt lat="43.38282" lon="-1.65818">
        <ele>4</ele>
        <time>2026-08-23T15:28:12.000Z</time>
      </trkpt>
      <trkpt lat="43.38281" lon="-1.65812">
        <ele>4</ele>
        <time>2026-08-23T15:28:13.000Z</time>
      </trkpt>
      <trkpt lat="43.3828" lon="-1.6581">
        <ele>4</ele>
        <time>2026-08-23T15:28:13.000Z</time>
      </trkpt>
    </trkseg>
  </trk>
</gpx>